ftp/pub/palmer/observations_modified/2019/October/original_files/AR191014_BASE.txt
Download
Sample DateTime Unit Id WS Avg 2min WD Avg 2min WGS 10min WGD 10min Air Temp Rel Humidity Dew Point Pyranometer Quantum Air Pressure Snow Level Rainfall PW Current Visibility CBase 1 CBase 2 CBase 3 Vert Vis
2019/10/14 00:00:00 BASE 13.92 142 15.33 143 -5.5 88 -7.2 0 0 1000.2 NA 0.0000 -SN 9999 1440 0 0 0
2019/10/14 00:01:00 BASE 14.46 143 15.84 147 -5.6 88 -7.2 0 0 1000.2 NA 0.0000 -SN 9999 4000 0 0 0
2019/10/14 00:02:00 BASE 14.37 144 15.84 147 -5.6 89 -7.1 0 0 1000.2 NA 0.0000 9999 690 0 0 0
2019/10/14 00:03:00 BASE 13.97 145 15.84 147 -5.6 90 -7.0 0 0 1000.2 NA 0.0000 9999 1150 0 0 0
2019/10/14 00:04:00 BASE 13.50 142 15.84 147 -5.6 90 -6.9 0 0 1000.2 NA 0.0000 9999 1080 0 0 0
2019/10/14 00:05:00 BASE 14.60 137 17.54 137 -5.6 91 -6.9 0 0 1000.0 NA 0.0000 9999 850 0 0 0
2019/10/14 00:06:00 BASE 15.91 139 19.09 142 -5.7 92 -6.8 0 0 1000.0 NA 0.0000 9999 1150 0 0 0
2019/10/14 00:07:00 BASE 14.45 144 19.09 142 -5.7 92 -6.8 0 0 1000.2 NA 0.0000 -SN 9999 1050 0 0 0
2019/10/14 00:08:00 BASE 14.86 141 19.81 137 -5.7 93 -6.7 0 0 999.9 NA 0.0000 -SN 9999 1050 0 0 0
2019/10/14 00:09:00 BASE 15.82 136 19.81 137 -5.7 93 -6.7 0 0 999.9 NA 0.0000 -SN 9999 1120 0 0 0
2019/10/14 00:10:00 BASE 14.05 137 19.81 137 -5.8 94 -6.6 0 0 1000.0 NA 0.0000 -SN 9999 1050 0 0 0
2019/10/14 00:11:00 BASE 13.34 139 19.81 137 -5.8 94 -6.6 0 0 1000.0 NA 0.0000 -SN 9999 790 0 0 0
2019/10/14 00:12:00 BASE 13.26 133 19.81 137 -5.8 94 -6.6 0 0 1000.0 NA 0.0000 -SN 9999 1120 0 0 0
2019/10/14 00:13:00 BASE 13.39 125 19.81 137 -5.8 95 -6.5 0 0 999.9 NA 0.0000 -SN 9999 1050 0 0 0
2019/10/14 00:14:00 BASE 13.58 128 19.81 137 -5.8 95 -6.5 0 0 999.9 NA 0.0000 -SN 9999 620 0 0 0
2019/10/14 00:15:00 BASE 12.51 134 19.81 137 -5.8 95 -6.4 0 0 999.9 NA 0.0000 -SN 9999 1120 0 0 0
2019/10/14 00:16:00 BASE 12.92 134 19.81 137 -5.7 95 -6.3 0 0 999.8 NA 0.0000 -SN 9999 790 0 0 0
2019/10/14 00:17:00 BASE 14.11 135 19.81 137 -5.7 96 -6.3 0 0 999.8 NA 0.0000 -SN 9999 820 0 0 0
2019/10/14 00:18:00 BASE 13.51 139 17.18 136 -5.7 96 -6.3 0 0 999.8 NA 0.0000 9999 690 0 0 0
2019/10/14 00:19:00 BASE 12.52 142 15.95 128 -5.7 96 -6.3 0 0 999.8 NA 0.0000 9999 1280 0 0 0
2019/10/14 00:20:00 BASE 11.74 149 15.95 128 -5.8 96 -6.3 0 0 999.7 NA 0.0000 -SN 9999 790 0 0 0
2019/10/14 00:21:00 BASE 12.46 153 16.93 145 -5.8 96 -6.3 0 0 999.6 NA 0.0000 -SN 9999 1250 0 0 0
2019/10/14 00:22:00 BASE 13.50 153 16.93 145 -5.8 96 -6.3 0 0 999.6 NA 0.0000 -SN 9000 1280 3020 0 0
2019/10/14 00:23:00 BASE 11.72 154 16.93 145 -5.8 96 -6.3 0 0 999.7 NA 0.0000 -SN 8000 1120 2820 0 0
2019/10/14 00:24:00 BASE 10.73 146 16.93 145 -5.8 97 -6.2 0 0 999.7 NA 0.0000 -SN 9999 1210 0 0 0
2019/10/14 00:25:00 BASE 11.76 143 16.93 145 -5.7 97 -6.1 0 0 999.6 NA 0.0000 -SN 9999 1840 0 0 0
2019/10/14 00:26:00 BASE 11.46 152 16.93 145 -5.7 97 -6.1 0 0 999.7 NA 0.0000 -SN 9999 2100 0 0 0
2019/10/14 00:27:00 BASE 11.35 150 16.93 145 -5.7 97 -6.1 0 0 999.6 NA 0.0000 -SN 9999 1970 3080 0 0
2019/10/14 00:28:00 BASE 12.24 145 16.93 145 -5.7 97 -6.1 0 0 999.6 NA 0.0000 -SN 9999 2360 0 0 0
2019/10/14 00:29:00 BASE 12.90 146 16.93 145 -5.7 97 -6.1 0 0 999.6 NA 0.0000 -SN 9999 2100 0 0 0
2019/10/14 00:30:00 BASE 12.47 148 16.93 145 -5.8 97 -6.1 0 0 999.6 NA 0.0000 -SN 9999 2100 0 0 0
2019/10/14 00:31:00 BASE 11.68 148 16.77 152 -5.8 97 -6.1 0 0 999.6 NA 0.0000 -SN 9999 2330 0 0 0
2019/10/14 00:32:00 BASE 10.88 146 16.77 152 -5.8 98 -6.1 0 0 999.6 NA 0.0000 -SN 9999 2330 0 0 0
2019/10/14 00:33:00 BASE 11.56 140 16.77 152 -5.7 98 -6.0 0 0 999.5 NA 0.0000 -SN 9999 2330 0 0 0
2019/10/14 00:34:00 BASE 12.38 135 16.36 153 -5.7 98 -6.0 0 0 999.5 NA 0.0000 -SN 9999 2360 2920 0 0
2019/10/14 00:35:00 BASE 10.70 134 14.71 135 -5.7 98 -5.9 0 0 999.6 NA 0.0000 -SN 9999 2330 2950 0 0
2019/10/14 00:36:00 BASE 10.53 132 14.71 135 -5.6 98 -5.9 0 0 999.5 NA 0.0000 -SN 9999 2300 3020 0 0
2019/10/14 00:37:00 BASE 11.90 134 14.71 135 -5.6 98 -5.9 0 0 999.4 NA 0.0000 -SN 9999 1970 0 0 0
2019/10/14 00:38:00 BASE 11.52 141 14.71 135 -5.6 98 -5.8 0 0 999.4 NA 0.0000 -SN 9999 2430 0 0 0
2019/10/14 00:39:00 BASE 11.39 140 14.71 135 -5.6 98 -5.8 0 0 999.4 NA 0.0000 -SN 9999 2460 3080 0 0
2019/10/14 00:40:00 BASE 11.63 139 14.71 135 -5.5 98 -5.8 0 0 999.4 NA 0.0000 -SN 9999 2490 3120 0 0
2019/10/14 00:41:00 BASE 11.84 142 14.71 135 -5.5 98 -5.8 0 0 999.3 NA 0.0000 -SN 9999 2460 3050 0 0
2019/10/14 00:42:00 BASE 13.32 145 15.84 145 -5.5 98 -5.7 0 0 999.2 NA 0.0000 -SN 9999 2460 3050 0 0
2019/10/14 00:43:00 BASE 14.12 147 16.05 145 -5.4 98 -5.7 0 0 999.2 NA 0.0000 -SN 9999 2460 3150 0 0
2019/10/14 00:44:00 BASE 14.02 142 16.05 145 -5.4 98 -5.7 0 0 999.2 NA 0.0000 -SN 9999 2950 0 0 0
2019/10/14 00:45:00 BASE 14.15 137 16.05 145 -5.4 98 -5.6 0 0 999.1 NA 0.0000 -SN 9999 2560 0 0 0
2019/10/14 00:46:00 BASE 13.81 139 16.05 145 -5.3 98 -5.6 0 0 999.2 NA 0.0000 -SN 9999 2560 0 0 0
2019/10/14 00:47:00 BASE 13.24 143 16.05 145 -5.3 98 -5.6 0 0 999.2 NA 0.0000 -SN 9999 2490 0 0 0
2019/10/14 00:48:00 BASE 13.15 146 16.05 145 -5.3 98 -5.5 0 0 999.1 NA 0.0000 -SN 9999 2430 0 0 0
2019/10/14 00:49:00 BASE 12.66 142 16.05 145 -5.2 98 -5.5 0 0 999.1 NA 0.0000 -SN 9999 2460 0 0 0
2019/10/14 00:50:00 BASE 11.30 132 16.05 145 -5.2 98 -5.5 0 0 999.2 NA 0.0000 9999 2400 0 0 0
2019/10/14 00:51:00 BASE 11.46 130 16.05 145 -5.2 98 -5.4 0 0 999.2 NA 0.0000 9999 2460 0 0 0
2019/10/14 00:52:00 BASE 11.84 135 16.05 145 -5.1 98 -5.4 0 0 999.2 NA 0.0000 9999 2430 0 0 0
2019/10/14 00:53:00 BASE 10.05 144 15.48 140 -5.1 98 -5.3 0 0 999.2 NA 0.0000 9999 2400 0 0 0
2019/10/14 00:54:00 BASE 8.05 151 15.48 140 -5.0 98 -5.3 0 0 999.1 NA 0.0000 9999 2360 0 0 0
2019/10/14 00:55:00 BASE 8.31 144 15.48 140 -5.0 98 -5.3 0 0 999.1 NA 0.0000 9999 2460 0 0 0
2019/10/14 00:56:00 BASE 10.28 128 15.48 140 -4.9 98 -5.2 0 0 999.0 NA 0.0000 9999 1800 0 0 0
2019/10/14 00:57:00 BASE 11.00 129 15.48 140 -4.9 97 -5.2 0 0 999.0 NA 0.0000 9999 2000 2560 0 0
2019/10/14 00:58:00 BASE 10.39 137 14.82 138 -4.8 97 -5.2 0 0 999.0 NA 0.0000 9999 2130 0 0 0
2019/10/14 00:59:00 BASE 10.17 139 13.68 138 -4.8 97 -5.2 0 0 998.9 NA 0.0000 9999 1770 0 0 0
2019/10/14 01:00:00 BASE 11.43 140 14.20 145 -4.8 97 -5.1 0 0 998.8 NA 0.0000 9999 1610 0 0 0
2019/10/14 01:01:00 BASE 12.42 142 14.61 142 -4.8 97 -5.2 0 0 998.8 NA 0.0000 9999 1440 0 0 0
2019/10/14 01:02:00 BASE 11.83 145 14.61 142 -4.8 97 -5.3 0 0 998.8 NA 0.0000 9999 1180 2990 0 0
2019/10/14 01:03:00 BASE 11.77 144 14.61 142 -4.8 96 -5.3 0 0 998.8 NA 0.0000 9999 790 0 0 0
2019/10/14 01:04:00 BASE 12.13 143 14.61 142 -4.8 96 -5.3 0 0 998.7 NA 0.0000 9999 850 2230 0 0
2019/10/14 01:05:00 BASE 12.61 142 14.61 142 -4.8 96 -5.3 0 0 998.6 NA 0.0000 9999 620 0 0 0
2019/10/14 01:06:00 BASE 12.24 141 14.61 142 -4.7 96 -5.3 0 0 998.6 NA 0.0000 9999 2200 0 0 0
2019/10/14 01:07:00 BASE 12.04 145 14.61 142 -4.7 96 -5.2 0 0 998.6 NA 0.0000 9999 2200 0 0 0
2019/10/14 01:08:00 BASE 11.87 144 14.61 142 -4.7 96 -5.2 0 0 998.6 NA 0.0000 9999 2260 0 0 0
2019/10/14 01:09:00 BASE 10.89 144 14.61 142 -4.6 96 -5.2 0 0 998.6 NA 0.0000 9999 2230 0 0 0
2019/10/14 01:10:00 BASE 11.29 145 14.61 142 -4.6 96 -5.2 0 0 998.6 NA 0.0000 9999 2300 0 0 0
2019/10/14 01:11:00 BASE 10.68 143 14.15 147 -4.6 96 -5.1 0 0 998.6 NA 0.0000 9999 2260 0 0 0
2019/10/14 01:12:00 BASE 9.71 137 14.15 147 -4.6 96 -5.1 0 0 998.6 NA 0.0000 9999 2330 0 0 0
2019/10/14 01:13:00 BASE 10.34 133 14.15 147 -4.5 96 -5.1 0 0 998.6 NA 0.0000 8000 2300 0 0 0
2019/10/14 01:14:00 BASE 11.31 134 14.15 147 -4.5 96 -5.0 0 0 998.5 NA 0.0000 8000 2300 0 0 0
2019/10/14 01:15:00 BASE 11.20 133 14.15 147 -4.4 96 -4.9 0 0 998.6 NA 0.0000 8000 2360 0 0 0
2019/10/14 01:16:00 BASE 8.57 135 14.15 147 -4.4 96 -4.9 0 0 998.7 NA 0.0000 8000 2300 0 0 0
2019/10/14 01:17:00 BASE 6.47 133 12.66 138 -4.3 96 -4.9 0 0 998.7 NA 0.0000 8000 2200 0 0 0
2019/10/14 01:18:00 BASE 6.74 130 12.66 138 -4.3 96 -4.9 0 0 998.6 NA 0.0000 BR 8000 2200 0 0 0
2019/10/14 01:19:00 BASE 7.27 130 12.66 138 -4.3 96 -4.9 0 0 998.6 NA 0.0000 BR 8000 2130 0 0 0
2019/10/14 01:20:00 BASE 7.75 137 12.60 146 -4.3 96 -4.9 0 0 998.6 NA 0.0000 BR 8000 2400 0 0 0
2019/10/14 01:21:00 BASE 8.77 145 12.60 146 -4.3 96 -4.9 0 0 998.5 NA 0.0000 BR 8000 1480 0 0 0
2019/10/14 01:22:00 BASE 8.33 140 12.60 146 -4.2 96 -4.8 0 0 998.5 NA 0.0000 BR 9000 1900 0 0 0
2019/10/14 01:23:00 BASE 7.35 131 12.60 146 -4.2 96 -4.7 0 0 998.5 NA 0.0000 -SN BR 9999 2360 0 0 0
2019/10/14 01:24:00 BASE 7.93 125 11.94 134 -4.1 96 -4.6 0 0 998.5 NA 0.0000 -SN BR 9999 890 0 0 0
2019/10/14 01:25:00 BASE 7.99 122 10.24 147 -4.0 96 -4.5 0 0 998.4 NA 0.0000 -SN BR 9999 460 0 0 0
2019/10/14 01:26:00 BASE 8.06 120 10.24 147 -3.9 96 -4.5 0 0 998.4 NA 0.0000 -SN BR 9999 430 2720 0 0
2019/10/14 01:27:00 BASE 7.80 122 10.24 147 -3.8 96 -4.4 0 0 998.4 NA 0.0000 -SN 9999 980 2490 0 0
2019/10/14 01:28:00 BASE 8.21 128 11.16 139 -3.7 96 -4.3 0 0 998.2 NA 0.0000 -SN 9999 690 2660 0 0
2019/10/14 01:29:00 BASE 9.80 140 11.16 146 -3.6 95 -4.2 0 0 998.2 NA 0.0000 -SN 9999 430 2850 0 0
2019/10/14 01:30:00 BASE 9.70 144 11.16 146 -3.5 95 -4.2 0 0 998.2 NA 0.0000 -SN 9999 360 0 0 0
2019/10/14 01:31:00 BASE 10.56 137 12.60 137 -3.5 95 -4.2 0 0 998.2 NA 0.0000 -SN 8000 360 2660 0 0
2019/10/14 01:32:00 BASE 10.97 134 12.60 137 -3.5 95 -4.2 0 0 998.2 NA 0.0000 -SN 6000 360 0 0 0
2019/10/14 01:33:00 BASE 9.98 137 12.60 137 -3.6 94 -4.4 0 0 998.2 NA 0.0000 -SN 9000 360 0 0 0
2019/10/14 01:34:00 BASE 11.02 142 12.76 143 -3.7 94 -4.5 0 0 998.2 NA 0.0000 -SN BR 9999 0 0 0 4070
2019/10/14 01:35:00 BASE 11.45 143 12.76 143 -3.8 94 -4.6 0 0 998.2 NA 0.0000 -SN BR 9999 360 0 0 0
2019/10/14 01:36:00 BASE 10.46 142 12.76 143 -3.9 94 -4.7 0 0 998.1 NA 0.0000 -SN BR 9999 360 0 0 0
2019/10/14 01:37:00 BASE 9.88 142 12.76 143 -3.9 94 -4.7 0 0 998.1 NA 0.0000 -SN BR 7000 360 1970 0 0
2019/10/14 01:38:00 BASE 8.99 143 12.76 143 -4.0 94 -4.7 0 0 998.2 NA 0.0000 -SN BR 5000 330 0 0 0
2019/10/14 01:39:00 BASE 9.28 149 12.91 146 -4.0 95 -4.7 0 0 998.0 NA 0.0000 -SN BR 5000 360 0 0 0
2019/10/14 01:40:00 BASE 11.02 146 12.91 146 -4.0 95 -4.7 0 0 997.9 NA 0.0000 -SN BR 5000 390 0 0 0
2019/10/14 01:41:00 BASE 11.47 139 12.91 146 -4.0 95 -4.7 0 0 997.9 NA 0.0000 -SN BR 7000 430 0 0 0
2019/10/14 01:42:00 BASE 11.65 148 14.40 160 -4.0 95 -4.7 0 0 997.9 NA 0.0000 -SN BR 9000 1610 0 0 0
2019/10/14 01:43:01 BASE 11.01 161 14.40 160 -4.0 95 -4.6 0 0 997.8 NA 0.0000 -SN BR 9000 2130 0 0 0
2019/10/14 01:44:00 BASE 10.66 158 14.40 160 -4.0 96 -4.6 0 0 997.8 NA 0.0000 -SN BR 8000 1770 2230 0 0
2019/10/14 01:45:00 BASE 11.03 153 14.40 160 -4.0 96 -4.6 0 0 997.8 NA 0.0000 -SN BR 9000 2170 0 0 0
2019/10/14 01:46:00 BASE 9.75 152 14.40 160 -4.0 96 -4.5 0 0 997.9 NA 0.0000 -SN BR 9000 2070 0 0 0
2019/10/14 01:47:00 BASE 9.26 152 14.40 160 -4.0 97 -4.5 0 0 997.9 NA 0.0000 -SN BR 9999 1840 2400 0 0
2019/10/14 01:48:00 BASE 9.94 148 14.40 160 -3.9 97 -4.3 0 0 997.9 NA 0.0000 -SN BR 9999 2360 0 0 0
2019/10/14 01:49:00 BASE 9.41 141 14.40 160 -3.9 97 -4.2 0 0 997.9 NA 0.0000 -SN BR 9999 1740 0 0 0
2019/10/14 01:50:00 BASE 8.46 134 14.40 160 -3.8 98 -4.1 0 0 997.9 NA 0.0000 -SN BR 9999 1740 0 0 0
2019/10/14 01:51:00 BASE 8.58 134 14.40 160 -3.7 98 -4.0 0 0 997.9 NA 0.0000 -SN BR 9999 2330 0 0 0
2019/10/14 01:52:00 BASE 10.21 141 13.38 148 -3.7 98 -4.0 0 0 997.7 NA 0.0000 -SN BR 9000 0 0 0 2820
2019/10/14 01:53:00 BASE 12.13 150 13.38 155 -3.7 98 -4.0 0 0 997.6 NA 0.0000 -SN BR 8000 560 0 0 0
2019/10/14 01:54:00 BASE 12.78 157 13.53 160 -3.7 98 -4.0 0 0 997.6 NA 0.0000 -SN BR 8000 2590 0 0 0
2019/10/14 01:55:00 BASE 12.13 156 13.53 160 -3.7 98 -4.0 0 0 997.7 NA 0.0000 -SN BR 8000 2030 0 0 0
2019/10/14 01:56:00 BASE 10.87 155 13.53 160 -3.8 98 -4.0 0 0 997.7 NA 0.0000 -SN BR 7000 2530 0 0 0
2019/10/14 01:57:00 BASE 9.98 156 13.53 160 -3.8 98 -4.0 0 0 997.6 NA 0.0000 -SN BR 8000 390 2620 0 0
2019/10/14 01:58:00 BASE 9.25 154 13.53 160 -3.9 99 -4.1 0 0 997.6 NA 0.0000 -SN BR 6000 1800 0 0 0
2019/10/14 01:59:00 BASE 9.02 153 13.53 160 -3.9 99 -4.0 0 0 997.6 NA 0.0000 -SN BR 5000 390 0 0 0
2019/10/14 02:00:00 BASE 9.23 154 13.53 160 -3.9 99 -4.0 0 0 997.6 NA 0.0000 -SN BR 5000 0 0 0 2890
2019/10/14 02:01:00 BASE 9.27 151 13.53 160 -3.9 100 -4.0 0 0 997.6 NA 0.0000 -SN BR 6000 2850 0 0 0
2019/10/14 02:02:00 BASE 8.46 146 13.53 160 -3.9 100 -4.0 0 0 997.6 NA 0.0000 -SN BR 7000 390 0 0 0
2019/10/14 02:03:00 BASE 7.63 148 13.53 160 -3.9 100 -3.9 0 0 997.5 NA 0.0000 -SN BR 7000 390 0 0 0
2019/10/14 02:04:00 BASE 8.82 149 12.96 154 -3.9 100 -3.9 0 0 997.5 NA 0.0000 -SN BR 7000 0 0 0 2820
2019/10/14 02:05:00 BASE 10.04 141 11.47 140 -3.9 100 -3.9 0 0 997.5 NA 0.0000 -SN BR 6000 360 0 0 0
2019/10/14 02:06:00 BASE 10.44 136 11.57 140 -3.9 100 -3.9 0 0 997.5 NA 0.0000 -SN BR 6000 0 0 0 2790
2019/10/14 02:07:00 BASE 9.98 138 11.57 140 -3.8 100 -3.8 0 0 997.5 NA 0.0000 -SN BR 4700 0 0 0 2850
2019/10/14 02:08:00 BASE 8.87 139 11.57 140 -3.7 100 -3.7 0 0 997.5 NA 0.0000 -SN BR 5000 330 0 0 0
2019/10/14 02:09:00 BASE 8.66 136 11.57 140 -3.6 100 -3.7 0 0 997.4 NA 0.0000 -SN BR 4100 330 0 0 0
2019/10/14 02:10:00 BASE 8.58 139 11.57 140 -3.6 100 -3.6 0 0 997.3 NA 0.0000 -SN BR 3500 330 0 0 0
2019/10/14 02:11:00 BASE 8.82 148 11.57 140 -3.6 100 -3.6 0 0 997.3 NA 0.0000 -SN BR 3300 0 0 0 2820
2019/10/14 02:12:00 BASE 9.00 155 11.57 140 -3.6 100 -3.6 0 0 997.3 NA 0.0000 -SN BR 2700 0 0 0 2790
2019/10/14 02:13:00 BASE 9.85 153 12.24 146 -3.6 100 -3.6 0 0 997.2 NA 0.0000 -SN BR 2700 0 0 0 2950
2019/10/14 02:14:00 BASE 10.52 149 12.24 146 -3.7 100 -3.7 0 0 997.2 NA 0.0000 -SN BR 3100 330 0 0 0
2019/10/14 02:15:00 BASE 9.41 153 12.24 146 -3.7 100 -3.7 0 0 997.2 NA 0.0000 -SN BR 3100 300 0 0 0
2019/10/14 02:16:00 BASE 8.60 158 12.24 146 -3.7 100 -3.7 0 0 997.2 NA 0.0000 -SN BR 3200 0 0 0 3020
2019/10/14 02:17:00 BASE 9.25 157 12.24 146 -3.7 100 -3.7 0 0 997.2 NA 0.0000 -SN BR 3500 0 0 0 2720
2019/10/14 02:18:00 BASE 9.19 150 12.24 146 -3.7 100 -3.7 0 0 997.2 NA 0.0000 -SN BR 4000 0 0 0 2790
2019/10/14 02:19:00 BASE 7.57 150 12.24 146 -3.7 100 -3.7 0 0 997.2 NA 0.0000 -SN BR 4200 0 0 0 2850
2019/10/14 02:20:00 BASE 6.93 148 12.24 146 -3.6 100 -3.6 0 0 997.2 NA 0.0000 -SN BR 4400 0 0 0 2920
2019/10/14 02:21:00 BASE 7.32 149 12.24 146 -3.6 100 -3.6 0 0 997.2 NA 0.0000 -SN BR 4500 0 0 0 3020
2019/10/14 02:22:00 BASE 8.12 152 12.24 146 -3.5 100 -3.5 0 0 997.2 NA 0.0000 -SN BR 4400 0 0 0 2920
2019/10/14 02:23:00 BASE 8.70 144 11.78 150 -3.5 100 -3.5 0 0 997.1 NA 0.0000 -SN BR 4500 0 0 0 3120
2019/10/14 02:24:00 BASE 8.77 139 10.24 150 -3.4 100 -3.4 0 0 997.1 NA 0.0000 -SN BR 4700 0 0 0 3050
2019/10/14 02:25:00 BASE 8.89 140 10.24 150 -3.4 100 -3.4 0 0 997.1 NA 0.0000 -SN BR 4800 390 0 0 0
2019/10/14 02:26:00 BASE 8.72 148 10.24 150 -3.3 100 -3.3 0 0 997.1 NA 0.0000 -SN BR 4900 360 0 0 0
2019/10/14 02:27:00 BASE 8.44 156 9.88 147 -3.3 100 -3.3 0 0 997.1 NA 0.0000 -SN BR 4700 0 0 0 3180
2019/10/14 02:28:00 BASE 8.25 156 9.88 153 -3.3 100 -3.3 0 0 997.1 NA 0.0000 -SN BR 5000 2760 0 0 0
2019/10/14 02:29:00 BASE 8.60 148 10.13 140 -3.3 100 -3.3 0 0 997.0 NA 0.0000 -SN BR 5000 390 0 0 0
2019/10/14 02:30:00 BASE 8.59 144 10.13 140 -3.3 100 -3.3 0 0 997.1 NA 0.0000 -SN BR 4800 2820 0 0 0
2019/10/14 02:31:00 BASE 9.05 151 10.34 153 -3.3 100 -3.3 0 0 997.0 NA 0.0000 -SN BR 5000 2130 0 0 0
2019/10/14 02:32:00 BASE 9.66 148 10.39 140 -3.2 100 -3.2 0 0 997.0 NA 0.0000 -SN BR 5000 1840 0 0 0
2019/10/14 02:33:00 BASE 9.21 144 10.39 140 -3.2 100 -3.2 0 0 997.0 NA 0.0000 -SN BR 6000 390 0 0 0
2019/10/14 02:34:00 BASE 8.50 151 10.39 140 -3.2 100 -3.2 0 0 997.0 NA 0.0000 -SN BR 6000 1570 0 0 0
2019/10/14 02:35:00 BASE 7.85 161 10.39 140 -3.2 100 -3.2 0 0 996.9 NA 0.0000 -SN BR 5000 2790 0 0 0
2019/10/14 02:36:00 BASE 7.25 162 10.39 140 -3.2 100 -3.2 0 0 996.8 NA 0.0000 -SN BR 6000 2850 0 0 0
2019/10/14 02:37:00 BASE 6.82 154 10.39 140 -3.2 100 -3.2 0 0 996.8 NA 0.0000 -SN BR 6000 360 0 0 0
2019/10/14 02:38:00 BASE 7.90 147 10.39 140 -3.2 100 -3.2 0 0 996.8 NA 0.0000 -SN BR 5000 330 0 0 0
2019/10/14 02:39:00 BASE 8.75 146 10.39 140 -3.2 100 -3.2 0 0 996.8 NA 0.0000 -SN BR 5000 360 2920 0 0
2019/10/14 02:40:00 BASE 7.46 145 10.39 140 -3.2 100 -3.2 0 0 996.8 NA 0.0000 -SN BR 6000 330 0 0 0
2019/10/14 02:41:00 BASE 6.46 142 10.39 140 -3.2 100 -3.2 0 0 996.8 NA 0.0000 -SN BR 6000 360 0 0 0
2019/10/14 02:42:00 BASE 7.03 138 9.88 138 -3.2 100 -3.2 0 0 996.8 NA 0.0000 -SN BR 7000 0 0 0 3250
2019/10/14 02:43:00 BASE 7.76 135 9.67 148 -3.2 100 -3.2 0 0 996.7 NA 0.0000 -SN BR 7000 1350 2790 0 0
2019/10/14 02:44:00 BASE 7.72 140 9.67 148 -3.2 100 -3.2 0 0 996.7 NA 0.0000 -SN BR 8000 390 0 0 0
2019/10/14 02:45:00 BASE 7.12 147 9.67 148 -3.2 100 -3.2 0 0 996.6 NA 0.0000 -SN BR 7000 360 0 0 0
2019/10/14 02:46:00 BASE 6.71 148 9.67 148 -3.2 100 -3.2 0 0 996.6 NA 0.0000 -SN BR 5000 0 0 0 3120
2019/10/14 02:47:00 BASE 7.79 136 10.08 131 -3.2 100 -3.2 0 0 996.6 NA 0.0000 -SN BR 5000 360 0 0 0
2019/10/14 02:48:00 BASE 9.40 130 10.80 129 -3.1 100 -3.1 0 0 996.5 NA 0.2540 -SN BR 3900 360 0 0 0
2019/10/14 02:49:00 BASE 9.12 134 10.80 129 -3.1 100 -3.1 0 0 996.6 NA 0.0000 -SN BR 2000 330 0 0 0
2019/10/14 02:50:00 BASE 8.12 135 10.80 129 -3.0 100 -3.0 0 0 996.5 NA 0.0000 -SN BR 1800 0 0 0 3020
2019/10/14 02:51:00 BASE 6.99 131 10.80 129 -3.0 100 -3.0 0 0 996.6 NA 0.0000 -SN BR 1800 300 0 0 0
2019/10/14 02:52:00 BASE 6.06 128 10.80 129 -3.0 100 -3.0 0 0 996.5 NA 0.0000 -SN BR 2000 330 0 0 0
2019/10/14 02:53:00 BASE 7.05 133 10.80 129 -3.0 100 -3.0 0 0 996.4 NA 0.0000 -SN BR 3300 300 0 0 0
2019/10/14 02:54:00 BASE 8.52 137 10.80 129 -3.0 100 -3.0 0 0 996.4 NA 0.0000 -SN BR 2400 230 0 0 0
2019/10/14 02:55:00 BASE 8.31 134 10.80 129 -2.9 100 -2.9 0 0 996.4 NA 0.0000 -SN BR 1600 230 0 0 0
2019/10/14 02:56:00 BASE 6.48 141 10.80 129 -2.9 100 -2.9 0 0 996.4 NA 0.0000 -SN BR 3200 200 0 0 0
2019/10/14 02:57:00 BASE 7.88 137 12.96 117 -2.8 100 -2.8 0 0 996.3 NA 0.0000 -SN BR 2500 300 0 0 0
2019/10/14 02:58:00 BASE 8.93 121 12.96 117 -2.8 100 -2.8 0 0 996.3 NA 0.0000 -SN BR 1800 0 0 0 2430
2019/10/14 02:59:00 BASE 7.51 122 12.96 117 -2.7 100 -2.7 0 0 996.3 NA 0.0000 -SN BR 1800 330 0 0 0
2019/10/14 03:00:00 BASE 6.87 124 12.96 117 -2.7 100 -2.7 0 0 996.3 NA 0.0000 -SN BR 1800 0 0 0 2890
2019/10/14 03:01:00 BASE 7.00 128 12.96 117 -2.7 100 -2.7 0 0 996.2 NA 0.0000 -SN BR 2200 0 0 0 2850
2019/10/14 03:02:00 BASE 7.46 137 12.96 117 -2.7 100 -2.7 0 0 996.1 NA 0.0000 -SN BR 3300 0 0 0 2690
2019/10/14 03:03:00 BASE 6.90 143 12.96 117 -2.7 100 -2.7 0 0 996.2 NA 0.0000 -SN BR 2700 0 0 0 2720
2019/10/14 03:04:00 BASE 7.34 138 12.96 117 -2.7 100 -2.7 0 0 996.1 NA 0.0000 -SN BR 1800 0 0 0 3050
2019/10/14 03:05:00 BASE 8.46 129 12.96 117 -2.8 100 -2.8 0 0 996.0 NA 0.0000 -SN BR 1800 0 0 0 2690
2019/10/14 03:06:00 BASE 8.94 137 12.96 117 -2.8 100 -2.8 0 0 996.0 NA 0.0000 -SN BR 2100 330 1020 0 0
2019/10/14 03:07:00 BASE 8.67 155 11.11 122 -2.8 100 -2.8 0 0 996.0 NA 0.0000 -SN BR 3100 0 0 0 2720
2019/10/14 03:08:00 BASE 7.94 160 11.11 122 -2.8 100 -2.8 0 0 996.1 NA 0.0000 -SN BR 3100 0 0 0 2950
2019/10/14 03:09:00 BASE 7.25 156 11.11 122 -2.8 100 -2.8 0 0 996.1 NA 0.0000 -SN BR 3300 0 0 0 2760
2019/10/14 03:10:00 BASE 7.32 158 11.11 122 -2.8 100 -2.8 0 0 996.0 NA 0.0000 -SN BR 3100 0 0 0 2690
2019/10/14 03:11:00 BASE 8.00 164 11.11 122 -2.8 100 -2.8 0 0 996.0 NA 0.0000 -SN BR 3100 300 0 0 0
2019/10/14 03:12:00 BASE 8.34 173 11.11 122 -2.9 100 -2.9 0 0 995.9 NA 0.0000 -SN BR 2700 260 0 0 0
2019/10/14 03:13:00 BASE 7.90 174 11.11 122 -2.9 100 -2.9 0 0 995.9 NA 0.0000 -SN BR 1900 0 0 0 3080
2019/10/14 03:14:00 BASE 7.50 172 11.11 122 -2.9 100 -2.9 0 0 996.0 NA 0.0000 -SN BR 2100 300 0 0 0
2019/10/14 03:15:00 BASE 6.58 176 10.70 160 -2.9 100 -2.9 0 0 995.9 NA 0.0000 -SN BR 3300 0 0 0 2950
2019/10/14 03:16:00 BASE 5.31 184 10.08 162 -2.9 100 -2.9 0 0 996.0 NA 0.0000 -SN BR 3400 0 0 0 2850
2019/10/14 03:17:00 BASE 5.39 186 10.08 162 -2.9 100 -2.9 0 0 995.9 NA 0.0000 -SN BR 3500 0 0 0 2720
2019/10/14 03:18:00 BASE 5.11 181 10.08 162 -2.9 100 -2.9 0 0 995.9 NA 0.0000 -SN BR 3500 0 0 0 2660
2019/10/14 03:19:00 BASE 4.26 185 10.08 162 -2.9 100 -2.9 0 0 995.9 NA 0.0000 -SN BR 3500 260 0 0 0
2019/10/14 03:20:00 BASE 4.19 187 10.08 162 -2.8 100 -2.8 0 0 995.9 NA 0.0000 -SN BR 3500 0 0 0 3250
2019/10/14 03:21:00 BASE 5.56 172 10.08 162 -2.8 100 -2.8 0 0 995.8 NA 0.2540 -SN BR 3300 0 0 0 2920
2019/10/14 03:22:00 BASE 7.97 163 10.08 162 -2.8 100 -2.8 0 0 995.7 NA 0.0000 -SN BR 3000 300 0 0 0
2019/10/14 03:23:00 BASE 8.68 157 10.08 162 -2.7 100 -2.7 0 0 995.7 NA 0.0000 -SN BR 2400 920 0 0 0
2019/10/14 03:24:00 BASE 8.00 147 9.93 148 -2.7 100 -2.7 0 0 995.7 NA 0.0000 -SN BR 1400 0 0 0 2560
2019/10/14 03:25:00 BASE 7.77 147 10.08 161 -2.6 100 -2.6 0 0 995.6 NA 0.0000 -SN BR 1500 0 0 0 2560
2019/10/14 03:26:00 BASE 8.88 158 11.11 163 -2.6 100 -2.6 0 0 995.5 NA 0.0000 -SN BR 1700 330 0 0 0
2019/10/14 03:27:00 BASE 10.20 162 11.73 156 -2.6 100 -2.6 0 0 995.5 NA 0.0000 -SN BR 1700 300 0 0 0
2019/10/14 03:28:00 BASE 9.35 156 11.73 156 -2.7 100 -2.7 0 0 995.5 NA 0.0000 -SN BR 1500 260 0 0 0
2019/10/14 03:29:00 BASE 8.75 153 11.73 156 -2.7 100 -2.7 0 0 995.5 NA 0.0000 -SN BR 1800 0 0 0 2820
2019/10/14 03:30:00 BASE 8.43 160 11.73 156 -2.8 100 -2.8 0 0 995.5 NA 0.0000 -SN BR 2400 0 0 0 2560
2019/10/14 03:31:00 BASE 7.50 169 11.73 156 -2.8 100 -2.8 0 0 995.4 NA 0.0000 -SN BR 1700 300 1670 0 0
2019/10/14 03:32:00 BASE 8.30 161 11.73 156 -2.8 100 -2.8 0 0 995.4 NA 0.0000 -SN BR 2600 0 0 0 3050
2019/10/14 03:33:00 BASE 8.28 150 11.73 156 -2.7 100 -2.7 0 0 995.5 NA 0.0000 -SN BR 1600 0 0 0 2990
2019/10/14 03:34:00 BASE 6.82 154 11.73 156 -2.7 100 -2.7 0 0 995.5 NA 0.0000 -SN BR 1800 0 0 0 2850
2019/10/14 03:35:00 BASE 6.22 160 11.73 156 -2.7 100 -2.7 0 0 995.5 NA 0.0000 -SN BR 3000 0 0 0 2170
2019/10/14 03:36:00 BASE 7.10 164 11.73 156 -2.7 100 -2.7 0 0 995.4 NA 0.0000 -SN BR 3000 300 0 0 0
2019/10/14 03:37:00 BASE 8.98 162 11.11 154 -2.7 100 -2.7 0 0 995.4 NA 0.0000 -SN BR 2200 0 0 0 2620
2019/10/14 03:38:00 BASE 9.90 158 11.11 154 -2.7 100 -2.7 0 0 995.4 NA 0.0000 -SN BR 1300 260 0 0 0
2019/10/14 03:39:00 BASE 9.99 156 11.11 154 -2.8 100 -2.8 0 0 995.4 NA 0.0000 -SN BR 1400 330 0 0 0
2019/10/14 03:40:00 BASE 9.37 145 11.63 136 -2.8 100 -2.8 0 0 995.4 NA 0.0000 -SN BR 2500 360 0 0 0
2019/10/14 03:41:00 BASE 8.16 143 11.63 136 -2.7 100 -2.7 0 0 995.4 NA 0.0000 -SN BR 1700 330 0 0 0
2019/10/14 03:42:00 BASE 7.80 150 11.63 136 -2.7 100 -2.7 0 0 995.4 NA 0.0000 -SN BR 3000 260 0 0 0
2019/10/14 03:43:00 BASE 8.13 153 11.63 136 -2.7 100 -2.7 0 0 995.3 NA 0.0000 -SN BR 2600 230 0 0 0
2019/10/14 03:44:00 BASE 8.77 152 11.63 136 -2.6 100 -2.6 0 0 995.3 NA 0.0000 -SN BR 2200 0 0 0 2100
2019/10/14 03:45:00 BASE 9.34 149 11.63 136 -2.6 100 -2.6 0 0 995.3 NA 0.0000 -SN BR 2200 0 0 0 2030
2019/10/14 03:46:00 BASE 9.17 151 11.63 136 -2.7 100 -2.7 0 0 995.3 NA 0.0000 -SN BR 2400 0 0 0 2200
2019/10/14 03:47:00 BASE 9.63 151 11.73 143 -2.8 100 -2.8 0 0 995.2 NA 0.0000 -SN BR 2300 230 0 0 0
2019/10/14 03:48:00 BASE 10.00 152 11.73 143 -2.8 100 -2.8 0 0 995.2 NA 0.2540 -SN BR 2200 230 0 0 0
2019/10/14 03:49:00 BASE 8.99 156 11.73 143 -2.9 100 -2.9 0 0 995.2 NA 0.0000 -SN BR 2500 0 0 0 2200
2019/10/14 03:50:00 BASE 8.24 138 11.73 143 -2.9 100 -2.9 0 0 995.3 NA 0.0000 -SN BR 2600 260 0 0 0
2019/10/14 03:51:00 BASE 9.15 130 11.73 143 -2.9 100 -2.9 0 0 995.2 NA 0.0000 -SN BR 2600 0 0 0 2560
2019/10/14 03:52:00 BASE 10.91 143 12.81 146 -2.9 100 -2.9 0 0 995.1 NA 0.0000 -SN BR 2000 360 1480 0 0
2019/10/14 03:53:00 BASE 11.20 148 12.81 146 -2.9 100 -2.9 0 0 995.1 NA 0.0000 -SN BR 1200 260 0 0 0
2019/10/14 03:54:00 BASE 10.39 152 12.81 146 -3.0 100 -3.0 0 0 995.2 NA 0.0000 -SN BR 0900 0 0 0 2720
2019/10/14 03:55:00 BASE 9.48 154 12.81 146 -3.0 100 -3.0 0 0 995.2 NA 0.0000 -SN BR 1000 0 0 0 2820
2019/10/14 03:56:00 BASE 7.62 150 12.81 146 -3.1 100 -3.1 0 0 995.2 NA 0.0000 -SN BR 3100 360 0 0 0
2019/10/14 03:57:00 BASE 6.43 154 12.81 146 -3.1 100 -3.1 0 0 995.3 NA 0.0000 -SN BR 3600 330 0 0 0
2019/10/14 03:58:00 BASE 6.17 175 12.81 146 -3.1 100 -3.1 0 0 995.2 NA 0.0000 -SN BR 3300 0 0 0 2430
2019/10/14 03:59:00 BASE 6.28 169 12.81 146 -3.1 100 -3.1 0 0 995.2 NA 0.0000 -SN BR 3300 300 0 0 0
2019/10/14 04:00:00 BASE 8.35 154 12.81 146 -3.1 100 -3.1 0 0 995.2 NA 0.0000 -SN BR 3200 330 0 0 0
2019/10/14 04:01:00 BASE 9.92 156 12.81 146 -3.1 100 -3.1 0 0 995.1 NA 0.0000 -SN BR 2100 0 0 0 2200
2019/10/14 04:02:00 BASE 9.08 160 12.24 142 -3.1 100 -3.1 0 0 995.2 NA 0.0000 -SN BR 1100 0 0 0 2230
2019/10/14 04:03:00 BASE 8.48 159 11.42 161 -3.1 100 -3.1 0 0 995.1 NA 0.0000 -SN BR 1300 300 0 0 0
2019/10/14 04:04:00 BASE 8.69 160 11.42 161 -3.2 100 -3.2 0 0 995.2 NA 0.0000 -SN BR 1300 0 0 0 1940
2019/10/14 04:05:00 BASE 7.83 168 11.42 161 -3.2 100 -3.2 0 0 995.2 NA 0.0000 -SN BR 1600 0 0 0 2030
2019/10/14 04:06:00 BASE 7.83 161 11.42 161 -3.2 100 -3.2 0 0 995.2 NA 0.0000 -SN BR 2500 0 0 0 2030
2019/10/14 04:07:00 BASE 9.11 147 11.42 161 -3.2 100 -3.2 0 0 995.1 NA 0.0000 -SN BR 1400 0 0 0 1900
2019/10/14 04:08:00 BASE 9.34 140 11.42 161 -3.1 100 -3.1 0 0 995.1 NA 0.0000 -SN BR 1100 0 0 0 1770
2019/10/14 04:09:00 BASE 8.58 141 11.42 161 -3.0 100 -3.0 0 0 995.2 NA 0.0000 -SN BR 1100 0 0 0 1640
2019/10/14 04:10:00 BASE 8.13 150 11.42 161 -3.0 100 -3.0 0 0 995.2 NA 0.0000 -SN BR 1200 0 0 0 1570
2019/10/14 04:11:00 BASE 8.34 156 10.13 134 -2.9 100 -2.9 0 0 995.1 NA 0.0000 UP BR 1100 0 0 0 1380
2019/10/14 04:12:00 BASE 8.36 157 10.13 134 -3.0 100 -3.0 0 0 995.2 NA 0.0000 UP BR 0800 0 0 0 1350
2019/10/14 04:13:00 BASE 8.05 158 10.13 134 -3.1 100 -3.1 0 0 995.2 NA 0.0000 UP BR 0800 0 0 0 1310
2019/10/14 04:14:00 BASE 7.95 161 10.13 134 -3.2 100 -3.2 0 0 995.2 NA 0.0000 UP BR 0900 0 0 0 1510
2019/10/14 04:15:00 BASE 8.17 166 10.13 134 -3.3 100 -3.3 0 0 995.1 NA 0.0000 -SN BR 2500 0 0 0 1380
2019/10/14 04:16:00 BASE 8.43 167 10.13 134 -3.3 100 -3.3 0 0 995.1 NA 0.0000 -SN BR 2600 0 0 0 1510
2019/10/14 04:17:00 BASE 8.42 167 9.98 136 -3.4 100 -3.4 0 0 995.1 NA 0.0000 -SN BR 3000 0 0 0 1380
2019/10/14 04:18:00 BASE 8.55 170 9.31 175 -3.4 100 -3.4 0 0 995.0 NA 0.0000 -SN BR 2800 0 0 0 1440
2019/10/14 04:19:00 BASE 8.75 173 9.47 178 -3.5 100 -3.5 0 0 995.0 NA 0.0000 -SN BR 3000 0 0 0 1410
2019/10/14 04:20:00 BASE 9.49 175 11.06 176 -3.5 100 -3.5 0 0 994.9 NA 0.0000 -SN BR 2800 0 0 0 1480
2019/10/14 04:21:00 BASE 10.03 176 11.06 176 -3.5 100 -3.5 0 0 994.9 NA 0.0000 -SN BR 3000 0 0 0 1380
2019/10/14 04:22:00 BASE 9.14 173 11.06 176 -3.5 100 -3.5 0 0 994.9 NA 0.0000 -SN BR 3300 0 0 0 1440
2019/10/14 04:23:00 BASE 8.55 164 11.06 176 -3.5 100 -3.5 0 0 994.9 NA 0.0000 -SN BR 3000 0 0 0 1570
2019/10/14 04:24:00 BASE 9.22 155 11.57 153 -3.5 100 -3.5 0 0 994.9 NA 0.0000 -SN BR 2600 0 0 0 1540
2019/10/14 04:25:00 BASE 10.05 154 11.57 153 -3.6 100 -3.6 0 0 994.8 NA 0.0000 -SN BR 2300 0 0 0 1570
2019/10/14 04:26:00 BASE 9.47 153 11.57 153 -3.6 100 -3.6 0 0 994.9 NA 0.0000 -SN BR 2200 0 0 0 1510
2019/10/14 04:27:00 BASE 8.49 150 11.57 153 -3.6 100 -3.6 0 0 994.9 NA 0.0000 -SN BR 2100 0 0 0 1640
2019/10/14 04:28:00 BASE 8.12 150 11.57 153 -3.6 100 -3.6 0 0 994.9 NA 0.0000 -SN BR 2400 0 0 0 1610
2019/10/14 04:29:00 BASE 8.07 151 11.57 153 -3.7 100 -3.7 0 0 994.9 NA 0.0000 -SN BR 2400 0 0 0 1540
2019/10/14 04:30:00 BASE 9.02 154 11.57 153 -3.7 100 -3.7 0 0 994.8 NA 0.0000 -SN BR 2400 0 0 0 1480
2019/10/14 04:31:00 BASE 9.70 156 11.57 153 -3.7 100 -3.7 0 0 994.9 NA 0.0000 -SN BR 2300 0 0 0 1440
2019/10/14 04:32:00 BASE 9.34 153 11.57 153 -3.8 100 -3.8 0 0 994.9 NA 0.0000 -SN BR 2300 0 0 0 1480
2019/10/14 04:33:00 BASE 8.80 145 11.57 153 -3.8 100 -3.8 0 0 994.8 NA 0.0000 -SN BR 2200 0 0 0 1480
2019/10/14 04:34:00 BASE 8.34 142 11.11 160 -3.8 100 -3.8 0 0 994.8 NA 0.0000 -SN BR 2300 0 0 0 1510
2019/10/14 04:35:00 BASE 7.99 143 10.91 140 -3.8 100 -3.8 0 0 994.8 NA 0.0000 -SN BR 2500 0 0 0 1440
2019/10/14 04:36:00 BASE 8.49 144 10.91 140 -3.8 100 -3.8 0 0 994.8 NA 0.0000 -SN BR 2300 0 0 0 1440
2019/10/14 04:37:00 BASE 9.21 145 10.91 140 -3.7 100 -3.7 0 0 994.8 NA 0.0000 -SN BR 2300 0 0 0 1410
2019/10/14 04:38:00 BASE 8.76 146 10.91 140 -3.7 100 -3.7 0 0 994.9 NA 0.0000 -SN BR 2500 0 0 0 1280
2019/10/14 04:39:00 BASE 8.77 145 10.91 140 -3.7 100 -3.7 0 0 994.8 NA 0.0000 -SN BR 2500 0 0 0 1280
2019/10/14 04:40:00 BASE 9.25 144 10.85 158 -3.7 100 -3.7 0 0 994.8 NA 0.0000 -SN BR 2300 0 0 0 1280
2019/10/14 04:41:00 BASE 8.67 146 10.19 144 -3.7 100 -3.7 0 0 994.8 NA 0.0000 -SN BR 2100 0 0 0 1280
2019/10/14 04:42:00 BASE 8.13 148 10.19 144 -3.7 100 -3.7 0 0 994.8 NA 0.0000 -SN BR 2200 0 0 0 1210
2019/10/14 04:43:00 BASE 8.92 147 10.24 145 -3.7 100 -3.7 0 0 994.7 NA 0.0000 -SN BR 2200 0 0 0 1180
2019/10/14 04:44:00 BASE 9.92 147 10.91 145 -3.7 100 -3.7 0 0 994.7 NA 0.0000 -SN BR 2100 0 0 0 1150
2019/10/14 04:45:00 BASE 9.94 145 10.91 141 -3.7 100 -3.7 0 0 994.7 NA 0.0000 -SN BR 2000 0 0 0 1210
2019/10/14 04:46:00 BASE 10.21 144 11.78 144 -3.7 100 -3.7 0 0 994.7 NA 0.0000 -SN BR 1900 0 0 0 1280
2019/10/14 04:47:00 BASE 10.30 147 11.78 144 -3.8 100 -3.8 0 0 994.7 NA 0.0000 -SN BR 2100 0 0 0 1280
2019/10/14 04:48:00 BASE 10.44 149 13.02 151 -3.8 100 -3.8 0 0 994.6 NA 0.0000 -SN BR 2200 0 0 0 1350
2019/10/14 04:49:00 BASE 11.75 148 13.38 149 -3.8 100 -3.8 0 0 994.5 NA 0.0000 -SN BR 2200 0 0 0 1480
2019/10/14 04:50:00 BASE 11.83 151 13.38 149 -3.8 100 -3.8 0 0 994.6 NA 0.0000 -SN BR 2100 0 0 0 1350
2019/10/14 04:51:00 BASE 10.62 153 13.38 149 -3.9 100 -3.9 0 0 994.6 NA 0.0000 -SN BR 2000 0 0 0 1410
2019/10/14 04:52:00 BASE 10.43 147 13.38 149 -3.9 100 -3.9 0 0 994.6 NA 0.0000 -SN BR 2000 0 0 0 1310
2019/10/14 04:53:00 BASE 10.08 143 13.38 149 -3.9 100 -3.9 0 0 994.6 NA 0.0000 -SN BR 2000 0 0 0 1350
2019/10/14 04:54:00 BASE 9.17 143 13.38 149 -3.9 100 -3.9 0 0 994.6 NA 0.0000 -SN BR 2000 0 0 0 1410
2019/10/14 04:55:00 BASE 9.27 145 13.38 149 -3.9 100 -3.9 0 0 994.5 NA 0.0000 -SN BR 1900 0 0 0 1440
2019/10/14 04:56:00 BASE 9.11 147 13.38 149 -3.9 100 -3.9 0 0 994.6 NA 0.0000 -SN BR 1500 0 0 0 1350
2019/10/14 04:57:00 BASE 8.51 147 13.38 149 -3.9 100 -3.9 0 0 994.5 NA 0.0000 -SN BR 1900 0 0 0 1410
2019/10/14 04:58:01 BASE 8.41 143 13.38 149 -3.9 100 -3.9 0 0 994.5 NA 0.0000 -SN BR 1800 0 0 0 1440
2019/10/14 04:59:00 BASE 8.22 142 12.45 152 -3.9 100 -3.9 0 0 994.5 NA 0.0000 -SN BR 1900 0 0 0 1280
2019/10/14 05:00:00 BASE 7.88 147 12.40 143 -3.9 100 -3.9 0 0 994.5 NA 0.0000 -SN BR 2000 0 0 0 1280
2019/10/14 05:01:00 BASE 8.67 149 12.40 143 -3.9 100 -3.9 0 0 994.4 NA 0.0000 -SN BR 2100 0 0 0 1380
2019/10/14 05:02:00 BASE 9.34 148 10.44 141 -3.9 100 -3.9 0 0 994.5 NA 0.0000 -SN BR 2000 0 0 0 1380
2019/10/14 05:03:00 BASE 8.24 147 10.24 151 -3.8 100 -3.8 0 0 994.5 NA 0.0000 -SN BR 1900 0 0 0 1350
2019/10/14 05:04:00 BASE 7.13 146 10.24 151 -3.8 100 -3.8 0 0 994.5 NA 0.0000 -SN BR 1800 0 0 0 1350
2019/10/14 05:05:00 BASE 7.10 146 10.24 151 -3.8 100 -3.8 0 0 994.5 NA 0.0000 -SN BR 2000 0 0 0 1410
2019/10/14 05:06:00 BASE 7.55 150 10.24 151 -3.8 100 -3.8 0 0 994.4 NA 0.2540 -SN BR 2100 0 0 0 1380
2019/10/14 05:07:00 BASE 8.30 152 10.24 151 -3.8 100 -3.8 0 0 994.3 NA 0.0000 -SN BR 2200 0 0 0 1570
2019/10/14 05:08:00 BASE 9.05 149 10.29 147 -3.8 100 -3.8 0 0 994.3 NA 0.0000 -SN BR 1900 0 0 0 1570
2019/10/14 05:09:00 BASE 9.21 149 10.29 147 -3.8 100 -3.8 0 0 994.3 NA 0.0000 -SN BR 1800 0 0 0 1640
2019/10/14 05:10:00 BASE 8.86 150 10.29 147 -3.8 100 -3.8 0 0 994.4 NA 0.2540 -SN BR 2400 0 0 0 1510
2019/10/14 05:11:00 BASE 8.61 150 10.29 147 -3.7 100 -3.7 0 0 994.4 NA 0.0000 -SN BR 2300 0 0 0 1640
2019/10/14 05:12:00 BASE 8.58 152 10.29 147 -3.7 100 -3.7 0 0 994.4 NA 0.0000 -SN BR 2300 0 0 0 1610
2019/10/14 05:13:00 BASE 8.12 151 10.29 147 -3.7 100 -3.7 0 0 994.4 NA 0.0000 -SN BR 2200 0 0 0 1570
2019/10/14 05:14:00 BASE 8.06 153 10.29 147 -3.6 100 -3.6 0 0 994.4 NA 0.0000 -SN BR 2200 0 0 0 1570
2019/10/14 05:15:00 BASE 8.74 155 10.29 147 -3.6 100 -3.6 0 0 994.3 NA 0.0000 -SN BR 2300 0 0 0 1610
2019/10/14 05:16:00 BASE 9.23 152 10.29 147 -3.6 100 -3.6 0 0 994.2 NA 0.0000 -SN BR 2500 0 0 0 1640
2019/10/14 05:17:00 BASE 9.11 148 10.29 147 -3.7 100 -3.7 0 0 994.2 NA 0.0000 -SN BR 2300 0 0 0 1510
2019/10/14 05:18:00 BASE 8.35 149 9.88 149 -3.7 100 -3.7 0 0 994.2 NA 0.0000 -SN BR 2400 0 0 0 1570
2019/10/14 05:19:00 BASE 7.93 151 9.88 149 -3.6 100 -3.6 0 0 994.2 NA 0.0000 -SN BR 2500 230 0 0 0
2019/10/14 05:20:00 BASE 7.97 150 9.88 149 -3.6 100 -3.6 0 0 994.2 NA 0.0000 -SN BR 2500 0 0 0 1540
2019/10/14 05:21:00 BASE 7.77 152 9.88 149 -3.5 100 -3.5 0 0 994.2 NA 0.0000 -SN BR 2300 0 0 0 1480
2019/10/14 05:22:00 BASE 7.24 158 9.88 149 -3.5 100 -3.5 0 0 994.1 NA 0.0000 -SN BR 2300 0 0 0 1670
2019/10/14 05:23:00 BASE 7.96 159 10.19 159 -3.4 100 -3.4 0 0 994.1 NA 0.0000 -SN BR 2500 230 0 0 0
2019/10/14 05:24:00 BASE 8.84 159 10.34 171 -3.4 100 -3.4 0 0 994.1 NA 0.0000 -SN BR 2800 0 0 0 2560
2019/10/14 05:25:00 BASE 9.63 161 12.14 159 -3.3 100 -3.3 0 0 994.1 NA 0.0000 -SN BR 3100 260 0 0 0
2019/10/14 05:26:00 BASE 10.26 167 12.14 159 -3.3 100 -3.3 0 0 994.0 NA 0.0000 -SN BR 3200 260 0 0 0
2019/10/14 05:27:00 BASE 10.21 174 12.14 159 -3.2 100 -3.2 0 0 994.0 NA 0.2540 -SN BR 3400 260 0 0 0
2019/10/14 05:28:00 BASE 10.18 172 12.14 159 -3.3 100 -3.3 0 0 994.0 NA 0.0000 -SN BR 3700 260 0 0 0
2019/10/14 05:29:00 BASE 11.86 161 16.05 162 -3.3 100 -3.3 0 0 993.9 NA 0.0000 -SN BR 3600 300 0 0 0
2019/10/14 05:30:00 BASE 13.26 158 16.05 162 -3.4 100 -3.4 0 0 993.9 NA 0.0000 -SN BR 3500 330 0 0 0
2019/10/14 05:31:00 BASE 11.83 159 16.05 162 -3.5 100 -3.5 0 0 994.0 NA 0.0000 -SN BR 4000 330 0 0 0
2019/10/14 05:32:00 BASE 12.82 156 16.05 162 -3.6 100 -3.6 0 0 993.8 NA 0.0000 -SN BR 3800 330 2230 0 0
2019/10/14 05:33:00 BASE 14.59 157 16.05 162 -3.7 100 -3.7 0 0 993.8 NA 0.2540 -SN BR 3800 330 0 0 0
2019/10/14 05:34:00 BASE 14.08 157 16.05 162 -3.8 100 -3.8 0 0 993.9 NA 0.0000 -SN BR 4100 330 0 0 0
2019/10/14 05:35:00 BASE 13.86 157 16.67 154 -3.9 100 -3.9 0 0 993.9 NA 0.0000 -SN BR 3500 360 0 0 0
2019/10/14 05:36:00 BASE 14.89 155 16.67 154 -4.0 100 -4.0 0 0 993.8 NA 0.0000 -SN BR 3300 360 0 0 0
2019/10/14 05:37:00 BASE 14.07 156 16.67 154 -4.0 100 -4.0 0 0 993.9 NA 0.0000 -SN BR 3700 1280 2200 0 0
2019/10/14 05:38:00 BASE 12.25 155 16.67 154 -4.1 100 -4.1 0 0 994.0 NA 0.0000 -SN BR 5000 1250 0 0 0
2019/10/14 05:39:00 BASE 11.50 145 16.67 154 -4.1 100 -4.1 0 0 994.0 NA 0.0000 -SN BR 3800 1080 2260 0 0
2019/10/14 05:40:00 BASE 11.90 143 16.67 154 -4.1 100 -4.1 0 0 994.0 NA 0.0000 -SN BR 4000 2300 0 0 0
2019/10/14 05:41:00 BASE 12.94 145 16.67 154 -4.0 100 -4.0 0 0 993.9 NA 0.0000 -SN BR 4400 2070 0 0 0
2019/10/14 05:42:00 BASE 13.69 145 16.67 154 -4.0 100 -4.0 0 0 993.8 NA 0.0000 -SN BR 5000 2200 0 0 0
2019/10/14 05:43:00 BASE 13.97 147 16.67 154 -4.0 100 -4.0 0 0 993.9 NA 0.0000 -SN BR 5000 2100 0 0 0
2019/10/14 05:44:00 BASE 12.66 148 16.67 154 -3.9 100 -3.9 0 0 994.0 NA 0.0000 -SN BR 5000 1180 0 0 0
2019/10/14 05:45:00 BASE 11.83 143 16.41 152 -3.9 100 -3.9 0 0 993.9 NA 0.0000 -SN BR 7000 1210 2260 0 0
2019/10/14 05:46:00 BASE 12.42 136 16.10 151 -3.8 100 -3.8 0 0 993.9 NA 0.0000 -SN BR 8000 1180 2360 0 0
2019/10/14 05:47:00 BASE 11.80 132 16.10 151 -3.8 100 -3.8 0 0 994.0 NA 0.0000 -SN BR 9999 2490 0 0 0
2019/10/14 05:48:00 BASE 11.48 131 16.10 151 -3.7 100 -3.7 0 0 993.9 NA 0.0000 -SN BR 9999 1610 0 0 0
2019/10/14 05:49:00 BASE 12.90 136 16.10 151 -3.7 100 -3.7 0 0 993.8 NA 0.0000 -SN BR 9999 1350 2330 0 0
2019/10/14 05:50:00 BASE 13.21 141 16.10 151 -3.6 100 -3.6 0 0 993.8 NA 0.0000 -SN BR 9999 2230 0 0 0
2019/10/14 05:51:00 BASE 12.32 144 16.10 151 -3.6 100 -3.6 0 0 993.9 NA 0.0000 -SN BR 9999 1840 0 0 0
2019/10/14 05:52:00 BASE 11.74 145 15.54 142 -3.6 100 -3.6 0 0 993.9 NA 0.0000 -SN BR 9999 1610 0 0 0
2019/10/14 05:53:00 BASE 11.68 145 15.54 142 -3.5 100 -3.5 0 0 993.9 NA 0.0000 -SN 9999 1510 0 0 0
2019/10/14 05:54:00 BASE 11.51 143 15.54 142 -3.5 100 -3.5 0 0 993.9 NA 0.0000 -SN 9999 1480 0 0 0
2019/10/14 05:55:00 BASE 11.86 145 15.54 142 -3.5 100 -3.5 0 0 993.9 NA 0.0000 -SN 9999 1710 0 0 0
2019/10/14 05:56:00 BASE 11.99 152 15.54 142 -3.4 100 -3.4 0 0 994.0 NA 0.0000 -SN 9999 1670 2490 0 0
2019/10/14 05:57:00 BASE 12.23 153 15.54 142 -3.4 100 -3.4 0 0 994.0 NA 0.0000 -SN 9999 2530 0 0 0
2019/10/14 05:58:00 BASE 12.42 151 15.54 142 -3.4 100 -3.4 0 0 994.0 NA 0.0000 -SN 9999 0 0 0 3280
2019/10/14 05:59:00 BASE 11.70 152 14.25 149 -3.4 100 -3.4 0 0 994.0 NA 0.0000 -SN 6000 430 0 0 0
2019/10/14 06:00:00 BASE 11.67 150 14.25 149 -3.5 100 -3.5 0 0 994.0 NA 0.2540 -SN 7000 390 0 0 0
2019/10/14 06:01:00 BASE 12.81 146 14.61 144 -3.5 100 -3.5 0 0 994.0 NA 0.0000 -SN BR 4100 390 0 0 0
2019/10/14 06:02:00 BASE 13.03 148 14.61 144 -3.5 100 -3.5 0 0 994.0 NA 0.0000 -SN BR 4200 390 0 0 0
2019/10/14 06:03:01 BASE 13.02 148 15.28 144 -3.6 100 -3.6 0 0 994.1 NA 0.0000 -SN BR 3800 430 0 0 0
2019/10/14 06:04:00 BASE 13.20 149 15.28 144 -3.6 100 -3.6 0 0 994.2 NA 0.0000 -SN BR 7000 0 0 0 2950
2019/10/14 06:05:00 BASE 12.89 149 15.28 144 -3.6 100 -3.6 0 0 994.2 NA 0.0000 -SN BR 5000 390 0 0 0
2019/10/14 06:06:00 BASE 13.81 143 15.95 140 -3.7 100 -3.7 0 0 994.1 NA 0.0000 -SN BR 7000 0 0 0 2820
2019/10/14 06:07:00 BASE 13.76 142 15.95 140 -3.7 100 -3.7 0 0 994.3 NA 0.0000 -SN BR 6000 1840 0 0 0
2019/10/14 06:08:00 BASE 13.20 146 15.95 140 -3.6 100 -3.6 0 0 994.2 NA 0.0000 -SN BR 8000 430 0 0 0
2019/10/14 06:09:00 BASE 13.50 145 15.95 140 -3.6 100 -3.6 0 0 994.2 NA 0.0000 -SN BR 8000 1800 0 0 0
2019/10/14 06:10:00 BASE 13.10 143 15.95 140 -3.6 100 -3.6 0 0 994.2 NA 0.0000 -SN BR 9999 390 0 0 0
2019/10/14 06:11:00 BASE 12.03 142 15.95 140 -3.5 100 -3.5 0 0 994.2 NA 0.0000 -SN BR 9999 1640 0 0 0
2019/10/14 06:12:00 BASE 10.52 140 15.95 140 -3.5 100 -3.5 0 0 994.2 NA 0.0000 -SN BR 8000 1540 0 0 0
2019/10/14 06:13:00 BASE 10.03 137 15.95 140 -3.5 100 -3.5 0 0 994.1 NA 0.0000 -SN BR 9999 1480 0 0 0
2019/10/14 06:14:00 BASE 10.49 136 15.95 140 -3.4 100 -3.4 0 0 994.1 NA 0.0000 -SN BR 9999 0 0 0 2990
2019/10/14 06:15:00 BASE 10.92 139 15.95 140 -3.4 100 -3.4 0 0 994.1 NA 0.0000 -SN BR 9999 890 0 0 0
2019/10/14 06:16:00 BASE 11.44 142 14.20 147 -3.3 100 -3.3 0 0 994.1 NA 0.0000 -SN BR 7000 0 0 0 3050
2019/10/14 06:17:00 BASE 11.50 143 14.20 147 -3.3 100 -3.3 0 0 994.1 NA 0.0000 -SN BR 4600 0 0 0 3020
2019/10/14 06:18:00 BASE 12.12 144 13.94 144 -3.3 100 -3.3 0 0 994.1 NA 0.0000 -SN BR 6000 0 0 0 3120
2019/10/14 06:19:00 BASE 12.56 144 13.84 144 -3.3 100 -3.3 0 0 994.2 NA 0.0000 -SN BR 6000 0 0 0 3150
2019/10/14 06:20:00 BASE 12.01 146 13.84 144 -3.2 100 -3.2 0 0 994.3 NA 0.0000 -SN BR 4200 0 0 0 2990
2019/10/14 06:21:00 BASE 11.43 150 13.84 144 -3.2 100 -3.2 0 0 994.4 NA 0.0000 -SN BR 3500 0 0 0 2790
2019/10/14 06:22:00 BASE 11.48 149 13.84 144 -3.2 100 -3.2 0 0 994.3 NA 0.0000 -SN BR 2900 0 0 0 2760
2019/10/14 06:23:00 BASE 11.84 147 13.84 144 -3.1 100 -3.1 0 0 994.4 NA 0.0000 -SN BR 2700 0 0 0 2560
2019/10/14 06:24:00 BASE 11.91 147 13.84 144 -3.1 100 -3.1 0 0 994.4 NA 0.0000 -SN BR 3100 0 0 0 2460
2019/10/14 06:25:00 BASE 11.69 146 13.84 144 -3.1 100 -3.1 0 0 994.4 NA 0.0000 -SN BR 3100 330 0 0 0
2019/10/14 06:26:00 BASE 11.24 147 13.84 144 -3.1 100 -3.1 0 0 994.4 NA 0.0000 -SN BR 2400 330 0 0 0
2019/10/14 06:27:00 BASE 10.77 149 13.84 144 -3.1 100 -3.1 0 0 994.4 NA 0.0000 -SN BR 2400 330 0 0 0
2019/10/14 06:28:00 BASE 10.18 147 13.02 146 -3.1 100 -3.1 0 0 994.4 NA 0.0000 -SN BR 2900 330 0 0 0
2019/10/14 06:29:00 BASE 10.17 145 13.02 146 -3.1 100 -3.1 0 0 994.3 NA 0.0000 -SN BR 3200 0 0 0 4070
2019/10/14 06:30:00 BASE 10.34 139 12.86 146 -3.0 100 -3.0 0 0 994.3 NA 0.0000 -SN BR 3400 360 0 0 0
2019/10/14 06:31:00 BASE 10.29 132 12.86 146 -3.0 100 -3.0 0 0 994.3 NA 0.0000 -SN BR 3500 360 0 0 0
2019/10/14 06:32:00 BASE 11.03 130 12.86 146 -2.9 100 -2.9 0 0 994.2 NA 0.0000 -SN BR 3400 360 0 0 0
2019/10/14 06:33:00 BASE 11.38 130 12.76 149 -2.9 100 -2.9 0 0 994.2 NA 0.0000 -SN BR 3400 0 0 0 2620
2019/10/14 06:34:00 BASE 10.53 129 12.24 146 -2.8 100 -2.8 0 0 994.2 NA 0.0000 -SN BR 3100 360 0 0 0
2019/10/14 06:35:00 BASE 10.91 125 12.76 121 -2.8 100 -2.8 0 0 994.2 NA 0.0000 -SN BR 3800 360 0 0 0
2019/10/14 06:36:00 BASE 11.60 124 12.76 121 -2.7 100 -2.7 0 0 994.1 NA 0.0000 -SN BR 3600 390 0 0 0
2019/10/14 06:37:00 BASE 10.96 127 12.76 121 -2.7 100 -2.7 0 0 994.1 NA 0.0000 -SN BR 3700 360 0 0 0
2019/10/14 06:38:00 BASE 10.49 130 12.76 121 -2.6 100 -2.6 0 0 994.1 NA 0.0000 -SN BR 4000 390 0 0 0
2019/10/14 06:39:00 BASE 10.61 129 12.76 121 -2.6 100 -2.6 0 0 994.1 NA 0.0000 -SN BR 3000 390 0 0 0
2019/10/14 06:40:00 BASE 11.41 122 13.12 118 -2.6 100 -2.6 0 0 994.1 NA 0.0000 -SN BR 2200 2070 0 0 0
2019/10/14 06:41:00 BASE 11.48 117 13.12 118 -2.6 100 -2.6 0 0 994.1 NA 0.0000 -SN BR 5000 2000 0 0 0
2019/10/14 06:42:00 BASE 11.19 122 13.12 118 -2.6 100 -2.6 0 0 994.1 NA 0.0000 -SN BR 4600 1900 0 0 0
2019/10/14 06:43:00 BASE 10.54 128 13.12 118 -2.5 100 -2.5 0 0 994.2 NA 0.0000 -SN BR 4400 1800 0 0 0
2019/10/14 06:44:00 BASE 9.94 129 13.12 118 -2.5 100 -2.5 0 0 994.2 NA 0.0000 -SN BR 4100 1870 0 0 0
2019/10/14 06:45:00 BASE 10.50 132 13.12 118 -2.5 100 -2.5 0 0 994.2 NA 0.0000 -SN BR 3600 1570 0 0 0
2019/10/14 06:46:00 BASE 10.13 133 13.12 118 -2.6 100 -2.6 0 0 994.2 NA 0.0000 -SN BR 4800 1540 0 0 0
2019/10/14 06:47:00 BASE 9.46 136 13.12 118 -2.6 100 -2.6 0 0 994.2 NA 0.0000 -SN BR 6000 1510 0 0 0
2019/10/14 06:48:00 BASE 9.40 141 13.12 118 -2.6 100 -2.6 0 0 994.2 NA 0.0000 -SN BR 5000 1510 0 0 0
2019/10/14 06:49:00 BASE 9.12 145 13.12 118 -2.6 100 -2.6 0 0 994.3 NA 0.0000 -SN BR 7000 1740 0 0 0
2019/10/14 06:50:00 BASE 8.79 142 12.04 126 -2.7 100 -2.7 0 0 994.4 NA 0.0000 -SN BR 9999 1540 0 0 0
2019/10/14 06:51:00 BASE 8.64 140 12.04 126 -2.7 100 -2.7 0 0 994.3 NA 0.0000 -SN BR 8000 1640 0 0 0
2019/10/14 06:52:00 BASE 7.98 143 11.68 131 -2.7 100 -2.7 0 0 994.4 NA 0.0000 -SN BR 9000 1870 0 0 0
2019/10/14 06:53:00 BASE 7.35 135 11.68 131 -2.7 100 -2.7 0 0 994.5 NA 0.0000 -SN BR 9999 1770 0 0 0
2019/10/14 06:54:00 BASE 7.67 132 11.32 129 -2.7 100 -2.7 0 0 994.5 NA 0.0000 -SN BR 9999 1710 0 0 0
2019/10/14 06:55:00 BASE 8.12 141 10.80 130 -2.7 100 -2.7 0 0 994.5 NA 0.0000 -SN BR 9999 1740 0 0 0
2019/10/14 06:56:00 BASE 8.13 143 10.19 143 -2.7 100 -2.7 0 0 994.5 NA 0.0000 -SN BR 9999 1540 0 0 0
2019/10/14 06:57:00 BASE 7.84 143 10.19 143 -2.7 100 -2.7 0 0 994.6 NA 0.0000 -SN 9999 0 0 0 3770
2019/10/14 06:58:00 BASE 7.54 144 9.62 140 -2.7 100 -2.7 0 0 994.6 NA 0.0000 -SN 9999 1480 3610 0 0
2019/10/14 06:59:00 BASE 7.35 144 9.52 134 -2.7 100 -2.7 0 0 994.6 NA 0.0000 -SN 9999 1480 3540 0 0
2019/10/14 07:00:00 BASE 6.99 141 9.31 139 -2.7 100 -2.7 0 0 994.6 NA 0.0000 -SN 9999 1310 3540 0 0
2019/10/14 07:01:00 BASE 7.05 142 9.31 139 -2.7 100 -2.7 0 0 994.6 NA 0.0000 -SN 9999 1350 0 0 0
2019/10/14 07:02:00 BASE 7.48 139 9.05 116 -2.7 100 -2.7 0 0 994.5 NA 0.0000 -SN 9999 1210 3410 0 0
2019/10/14 07:03:00 BASE 7.77 131 8.95 134 -2.7 100 -2.7 0 0 994.5 NA 0.0000 9999 2460 0 0 0
2019/10/14 07:04:00 BASE 7.55 130 8.85 129 -2.7 100 -2.7 0 0 994.4 NA 0.2540 9999 790 0 0 0
2019/10/14 07:05:00 BASE 7.02 132 8.85 129 -2.7 100 -2.7 0 0 994.5 NA 0.0000 9999 890 0 0 0
2019/10/14 07:06:00 BASE 6.94 132 8.85 129 -2.7 100 -2.7 0 0 994.5 NA 0.0000 9999 750 0 0 0
2019/10/14 07:07:00 BASE 7.03 130 8.85 129 -2.6 100 -2.6 0 0 994.5 NA 0.0000 7000 0 0 0 3670
2019/10/14 07:08:00 BASE 6.93 132 8.85 129 -2.6 100 -2.6 0 0 994.5 NA 0.0000 BR 2700 1250 0 0 0
2019/10/14 07:09:00 BASE 6.99 134 8.85 129 -2.5 100 -2.5 0 0 994.6 NA 0.0000 BR 9999 1280 0 0 0
2019/10/14 07:10:00 BASE 6.87 135 8.85 129 -2.4 100 -2.4 0 0 994.6 NA 0.0000 BR 9999 1280 3250 0 0
2019/10/14 07:11:00 BASE 6.43 137 8.85 129 -2.4 100 -2.4 0 0 994.6 NA 0.0000 BR 9999 1210 0 0 0
2019/10/14 07:12:00 BASE 6.42 136 8.85 129 -2.4 100 -2.4 0 0 994.7 NA 0.0000 BR 9999 1670 0 0 0
2019/10/14 07:13:00 BASE 6.85 133 8.13 126 -2.5 100 -2.5 0 0 994.6 NA 0.0000 BR 9999 1640 0 0 0
2019/10/14 07:14:00 BASE 7.50 128 8.54 126 -2.6 100 -2.6 0 0 994.6 NA 0.0000 BR 9999 1510 0 0 0
2019/10/14 07:15:00 BASE 7.21 127 8.54 126 -2.6 100 -2.6 0 0 994.6 NA 0.0000 BR 9999 0 0 0 3740
2019/10/14 07:16:00 BASE 6.69 131 8.54 126 -2.6 100 -2.6 0 0 994.6 NA 0.0000 BR 9999 0 0 0 3770
2019/10/14 07:17:00 BASE 7.02 134 8.54 126 -2.7 100 -2.7 0 0 994.6 NA 0.0000 BR 9999 820 0 0 0
2019/10/14 07:18:00 BASE 6.52 135 8.54 126 -2.7 100 -2.7 0 0 994.6 NA 0.0000 9999 920 0 0 0
2019/10/14 07:19:00 BASE 5.37 132 8.54 126 -2.8 100 -2.8 0 0 994.6 NA 0.0000 9999 1900 0 0 0
2019/10/14 07:20:00 BASE 5.77 119 8.54 126 -2.7 100 -2.7 0 0 994.5 NA 0.0000 9999 1900 0 0 0
2019/10/14 07:21:00 BASE 6.62 110 8.54 126 -2.6 100 -2.6 0 0 994.5 NA 0.0000 9999 3080 0 0 0
2019/10/14 07:22:00 BASE 6.43 110 8.54 126 -2.4 100 -2.4 0 0 994.6 NA 0.0000 9999 1480 0 0 0
2019/10/14 07:23:00 BASE 6.84 107 8.54 126 -2.3 100 -2.3 0 0 994.5 NA 0.0000 9000 0 0 0 3670
2019/10/14 07:24:00 BASE 6.99 108 8.28 95 -2.1 100 -2.1 0 0 994.5 NA 0.0000 8000 0 0 0 3670
2019/10/14 07:25:00 BASE 6.97 114 8.39 114 -2.0 100 -2.0 0 0 994.5 NA 0.0000 8000 0 0 0 3770
2019/10/14 07:26:00 BASE 7.66 113 8.95 111 -2.0 100 -2.0 0 0 994.5 NA 0.0000 BR 7000 0 0 0 3870
2019/10/14 07:27:00 BASE 7.71 109 9.05 104 -2.0 100 -2.0 0 0 994.5 NA 0.0000 BR 7000 0 0 0 3970
2019/10/14 07:28:00 BASE 7.24 107 9.05 104 -1.9 100 -1.9 0 0 994.5 NA 0.0000 BR 7000 0 0 0 3970
2019/10/14 07:29:00 BASE 6.76 110 9.05 104 -1.9 100 -1.9 0 0 994.6 NA 0.0000 BR 9999 0 0 0 3940
2019/10/14 07:30:00 BASE 6.68 116 9.05 104 -1.8 100 -1.8 0 0 994.7 NA 0.0000 BR 9999 0 0 0 3970
2019/10/14 07:31:00 BASE 6.52 123 9.05 104 -1.8 100 -1.8 0 0 994.7 NA 0.0000 BR 9999 0 0 0 3900
2019/10/14 07:32:00 BASE 5.91 132 9.05 104 -1.7 100 -1.7 0 0 994.7 NA 0.0000 BR 9999 0 0 0 3810
2019/10/14 07:33:00 BASE 5.65 135 9.05 104 -1.8 100 -1.8 0 0 994.7 NA 0.0000 9999 0 0 0 3710
2019/10/14 07:34:00 BASE 5.78 131 9.05 104 -1.8 100 -1.8 0 0 994.7 NA 0.0000 9999 1540 0 0 0
2019/10/14 07:35:00 BASE 5.92 128 9.05 104 -1.9 100 -1.9 0 0 994.7 NA 0.0000 9999 0 0 0 3670
2019/10/14 07:36:00 BASE 5.98 128 9.05 104 -2.0 100 -2.0 0 0 994.7 NA 0.0000 9999 3740 0 0 0
2019/10/14 07:37:00 BASE 5.70 133 8.23 101 -2.0 100 -2.0 0 0 994.7 NA 0.0000 9999 3810 0 0 0
2019/10/14 07:38:00 BASE 5.31 138 7.41 118 -2.1 100 -2.1 0 0 994.7 NA 0.0000 9999 3810 0 0 0
2019/10/14 07:39:00 BASE 5.11 142 7.41 118 -2.1 100 -2.1 0 0 994.7 NA 0.0000 9999 1570 0 0 0
2019/10/14 07:40:00 BASE 4.85 142 6.84 123 -2.2 100 -2.2 0 0 994.7 NA 0.0000 9999 1510 0 0 0
2019/10/14 07:41:00 BASE 4.32 141 6.58 124 -2.3 100 -2.3 0 0 994.7 NA 0.0000 9999 1350 0 0 0
2019/10/14 07:42:00 BASE 3.81 142 6.58 124 -2.4 100 -2.4 0 0 994.7 NA 0.0000 9999 1210 0 0 0
2019/10/14 07:43:00 BASE 3.91 143 6.58 124 -2.4 100 -2.4 0 0 994.7 NA 0.0000 9999 1080 0 0 0
2019/10/14 07:44:00 BASE 4.09 149 6.58 124 -2.4 100 -2.4 0 0 994.7 NA 0.0000 9999 0 0 0 3810
2019/10/14 07:45:00 BASE 3.83 155 6.38 132 -2.5 100 -2.5 0 0 994.7 NA 0.0000 9999 0 0 0 3740
2019/10/14 07:46:00 BASE 2.86 149 6.02 136 -2.4 100 -2.4 0 0 994.7 NA 0.0000 9999 0 0 0 3710
2019/10/14 07:47:00 BASE 2.08 153 5.97 138 -2.4 100 -2.4 0 0 994.7 NA 0.0000 9999 0 0 0 3640
2019/10/14 07:48:00 BASE 2.18 174 5.56 136 -2.4 100 -2.4 0 0 994.7 NA 0.0000 9999 2130 0 0 0
2019/10/14 07:49:00 BASE 2.99 176 5.14 141 -2.4 100 -2.4 0 0 994.7 NA 0.0000 9999 1380 0 0 0
2019/10/14 07:50:00 BASE 3.99 169 5.04 151 -2.4 100 -2.4 0 0 994.7 NA 0.0000 9999 0 0 0 3670
2019/10/14 07:51:00 BASE 4.52 170 5.25 166 -2.4 100 -2.4 0 0 994.7 NA 0.0000 9999 0 0 0 3670
2019/10/14 07:52:00 BASE 4.82 168 5.25 166 -2.4 100 -2.4 0 0 994.7 NA 0.0000 9999 0 0 0 3640
2019/10/14 07:53:00 BASE 4.97 162 5.40 158 -2.4 100 -2.4 0 0 994.7 NA 0.0000 9999 0 0 0 3610
2019/10/14 07:54:00 BASE 4.74 159 5.40 158 -2.4 100 -2.4 0 0 994.7 NA 0.0000 9999 0 0 0 3510
2019/10/14 07:55:00 BASE 4.62 157 5.40 158 -2.4 100 -2.4 0 0 994.7 NA 0.0000 9999 1050 0 0 0
2019/10/14 07:56:00 BASE 4.40 152 5.40 158 -2.4 100 -2.4 0 0 994.7 NA 0.0000 9999 950 0 0 0
2019/10/14 07:57:00 BASE 4.46 152 5.40 158 -2.4 100 -2.4 0 0 994.7 NA 0.0000 9999 0 0 0 3380
2019/10/14 07:58:00 BASE 5.26 155 6.38 145 -2.3 100 -2.3 0 0 994.7 NA 0.0000 UP 9999 0 0 0 3350
2019/10/14 07:59:00 BASE 5.43 153 6.38 145 -2.3 100 -2.3 0 0 994.8 NA 0.0000 UP 9999 0 0 0 3380
2019/10/14 08:00:00 BASE 5.51 152 6.38 145 -2.3 100 -2.3 0 0 994.8 NA 0.0000 UP 9999 2000 0 0 0
2019/10/14 08:01:00 BASE 5.61 153 6.38 145 -2.3 100 -2.3 0 0 994.8 NA 0.0000 UP 9999 950 0 0 0
2019/10/14 08:02:00 BASE 5.47 150 6.38 146 -2.4 100 -2.4 0 0 994.8 NA 0.0000 UP 9999 850 0 0 0
2019/10/14 08:03:00 BASE 5.22 150 6.38 146 -2.4 100 -2.4 0 0 994.8 NA 0.0000 UP 9999 0 0 0 3180
2019/10/14 08:04:00 BASE 4.94 152 6.38 146 -2.4 100 -2.4 0 0 994.8 NA 0.0000 UP 9999 0 0 0 3250
2019/10/14 08:05:00 BASE 4.90 152 6.38 146 -2.4 100 -2.4 0 0 994.8 NA 0.0000 UP 9999 0 0 0 3180
2019/10/14 08:06:00 BASE 4.46 148 6.38 146 -2.5 100 -2.5 0 0 994.8 NA 0.0000 UP 9999 2560 0 0 0
2019/10/14 08:07:00 BASE 3.94 144 6.38 146 -2.5 100 -2.5 0 0 994.8 NA 0.0000 UP 9999 0 0 0 2690
2019/10/14 08:08:00 BASE 4.23 141 6.38 146 -2.5 100 -2.5 0 0 994.7 NA 0.0000 UP 9999 0 0 0 2660
2019/10/14 08:09:00 BASE 4.36 140 6.38 146 -2.5 100 -2.5 0 0 994.7 NA 0.0000 UP 9999 0 0 0 2560
2019/10/14 08:10:00 BASE 3.77 133 6.38 146 -2.5 100 -2.5 0 0 994.7 NA 0.0000 UP 9999 0 0 0 2490
2019/10/14 08:11:00 BASE 3.79 133 6.38 146 -2.5 100 -2.5 0 0 994.7 NA 0.0000 UP 9999 0 0 0 2460
2019/10/14 08:12:00 BASE 3.91 137 5.56 151 -2.5 100 -2.5 0 0 994.7 NA 0.0000 UP 9999 0 0 0 2360
2019/10/14 08:13:00 BASE 3.80 138 5.56 151 -2.5 100 -2.5 0 0 994.7 NA 0.0000 UP 9999 0 0 0 2300
2019/10/14 08:14:00 BASE 3.95 135 5.56 151 -2.5 100 -2.5 0 0 994.7 NA 0.0000 UP 9000 0 0 0 2230
2019/10/14 08:15:00 BASE 3.51 123 5.09 141 -2.5 100 -2.5 0 0 994.7 NA 0.0000 UP 8000 0 0 0 2200
2019/10/14 08:16:00 BASE 3.34 124 5.09 141 -2.5 100 -2.5 0 0 994.7 NA 0.0000 UP 8000 0 0 0 2230
2019/10/14 08:17:00 BASE 3.79 131 5.09 141 -2.5 100 -2.5 0 0 994.8 NA 0.0000 UP BR 6000 0 0 0 2530
2019/10/14 08:18:00 BASE 3.88 129 4.89 144 -2.5 100 -2.5 0 0 994.8 NA 0.0000 UP BR 4900 0 0 0 2400
2019/10/14 08:19:00 BASE 3.66 126 4.89 144 -2.5 100 -2.5 0 0 994.8 NA 0.0000 -SN BR 4600 0 0 0 2400
2019/10/14 08:20:00 BASE 3.75 128 4.89 144 -2.6 100 -2.6 0 0 994.8 NA 0.0000 -SN BR 3400 0 0 0 2430
2019/10/14 08:21:00 BASE 3.55 130 4.89 144 -2.6 100 -2.6 0 0 994.8 NA 0.0000 -SN BR 3000 0 0 0 2330
2019/10/14 08:22:00 BASE 2.81 124 4.89 144 -2.6 100 -2.6 0 0 994.8 NA 0.0000 -SN BR 3100 0 0 0 2230
2019/10/14 08:23:00 BASE 2.53 114 4.58 140 -2.6 100 -2.6 0 0 994.8 NA 0.0000 -SN BR 3700 0 0 0 2170
2019/10/14 08:24:00 BASE 2.26 107 4.58 140 -2.6 100 -2.6 0 0 994.8 NA 0.0000 -SN BR 3200 0 0 0 2530
2019/10/14 08:25:00 BASE 2.19 111 4.58 140 -2.5 100 -2.5 0 0 994.8 NA 0.0000 -SN BR 4400 0 0 0 2490
2019/10/14 08:26:00 BASE 2.43 116 4.58 140 -2.5 100 -2.5 0 0 994.8 NA 0.0000 -SN BR 3500 0 0 0 2330
2019/10/14 08:27:00 BASE 2.33 120 4.37 138 -2.5 100 -2.5 0 0 994.8 NA 0.0000 -SN BR 3400 0 0 0 2130
2019/10/14 08:28:00 BASE 2.33 124 4.37 138 -2.5 100 -2.5 0 0 994.8 NA 0.0000 -SN BR 3500 0 0 0 2100
2019/10/14 08:29:00 BASE 2.27 130 4.37 138 -2.5 100 -2.5 0 0 994.8 NA 0.0000 -SN BR 3600 0 0 0 2000
2019/10/14 08:30:00 BASE 2.09 138 3.50 131 -2.5 100 -2.5 0 0 994.9 NA 0.0000 -SN BR 3500 0 0 0 2130
2019/10/14 08:31:00 BASE 2.16 141 3.19 149 -2.5 100 -2.5 0 0 994.9 NA 0.0000 -SN BR 3300 0 0 0 3350
2019/10/14 08:32:00 BASE 2.57 150 3.19 149 -2.5 100 -2.5 0 0 994.9 NA 0.0000 -SN BR 3400 0 0 0 3450
2019/10/14 08:33:00 BASE 3.05 159 3.34 156 -2.5 100 -2.5 0 0 994.9 NA 0.0000 -SN BR 3900 0 0 0 3970
2019/10/14 08:34:00 BASE 2.84 156 3.34 156 -2.5 100 -2.5 0 0 994.9 NA 0.0000 -SN BR 4600 0 0 0 4040
2019/10/14 08:35:00 BASE 2.61 158 3.34 156 -2.6 100 -2.6 0 0 994.9 NA 0.0000 -SN BR 4100 0 0 0 4040
2019/10/14 08:36:00 BASE 2.22 163 3.34 156 -2.6 100 -2.6 0 0 994.9 NA 0.0000 -SN BR 6000 0 0 0 3900
2019/10/14 08:37:00 BASE 1.75 161 3.34 156 -2.7 100 -2.7 0 0 994.9 NA 0.0000 -SN BR 7000 0 0 0 3350
2019/10/14 08:38:00 BASE 1.93 159 3.34 156 -2.7 100 -2.7 0 0 994.9 NA 0.0000 -SN BR 7000 0 0 0 3310
2019/10/14 08:39:00 BASE 2.28 160 3.34 156 -2.7 100 -2.7 0 0 994.9 NA 0.0000 -SN BR 7000 0 0 0 3310
2019/10/14 08:40:00 BASE 2.58 164 3.34 156 -2.7 100 -2.7 0 0 994.9 NA 0.0000 -SN BR 5000 0 0 0 3640
2019/10/14 08:41:00 BASE 2.77 169 3.34 156 -2.7 100 -2.7 0 0 994.9 NA 0.0000 -SN BR 6000 0 0 0 3640
2019/10/14 08:42:00 BASE 2.76 169 3.34 156 -2.8 100 -2.8 0 0 994.9 NA 0.0000 -SN BR 6000 0 0 0 3610
2019/10/14 08:43:00 BASE 2.62 165 3.24 153 -2.8 100 -2.8 0 0 994.9 NA 0.0000 -SN BR 9000 0 0 0 3580
2019/10/14 08:44:00 BASE 2.60 161 2.98 167 -2.8 100 -2.8 0 0 994.9 NA 0.0000 -SN BR 9000 0 0 0 3610
2019/10/14 08:45:00 BASE 2.55 156 2.93 170 -2.8 100 -2.8 0 0 994.9 NA 0.0000 -SN BR 9000 0 0 0 3610
2019/10/14 08:46:00 BASE 2.47 155 3.04 158 -2.8 100 -2.8 0 0 994.9 NA 0.0000 -SN BR 9000 0 0 0 3640
2019/10/14 08:47:00 BASE 2.81 157 3.45 159 -2.8 100 -2.8 1 0 994.9 NA 0.0000 -SN BR 9999 0 0 0 3580
2019/10/14 08:48:00 BASE 3.19 158 3.50 159 -2.8 100 -2.8 1 0 994.9 NA 0.0000 -SN BR 9999 0 0 0 3510
2019/10/14 08:49:00 BASE 3.18 155 3.50 159 -2.8 100 -2.8 1 0 994.9 NA 0.0000 -SN BR 9999 0 0 0 3450
2019/10/14 08:50:00 BASE 2.94 152 3.50 159 -2.9 100 -2.9 1 0 994.9 NA 0.0000 -SN BR 9999 0 0 0 3380
2019/10/14 08:51:00 BASE 2.90 150 3.50 159 -2.9 100 -2.9 1 0 994.9 NA 0.0000 -SN BR 9999 0 0 0 4760
2019/10/14 08:52:00 BASE 3.03 148 3.50 159 -2.9 100 -2.9 1 0 995.0 NA 0.0000 -SN BR 9999 0 0 0 4630
2019/10/14 08:53:00 BASE 2.99 146 3.50 159 -2.9 100 -2.9 1 0 995.0 NA 0.0000 -SN 9999 0 0 0 4360
2019/10/14 08:54:00 BASE 2.89 145 3.50 159 -3.0 100 -3.0 1 0 994.9 NA 0.0000 -SN 9999 0 0 0 4270
2019/10/14 08:55:00 BASE 2.71 143 3.50 159 -3.0 100 -3.0 1 0 994.9 NA 0.0000 -SN 9999 0 0 0 4100
2019/10/14 08:56:00 BASE 2.62 144 3.50 159 -3.0 100 -3.0 1 0 994.9 NA 0.0000 -SN 9000 0 0 0 4040
2019/10/14 08:57:00 BASE 2.63 145 3.50 159 -3.0 100 -3.0 2 0 994.9 NA 0.0000 -SN BR 4700 0 0 0 3940
2019/10/14 08:58:00 BASE 2.66 146 3.34 154 -3.0 100 -3.0 2 0 994.9 NA 0.0000 -SN BR 4100 0 0 0 3870
2019/10/14 08:59:00 BASE 2.74 146 3.24 145 -3.0 100 -3.0 2 0 994.9 NA 0.0000 -SN BR 4500 0 0 0 3810
2019/10/14 09:00:00 BASE 2.80 144 3.24 145 -3.0 100 -3.0 2 0 994.9 NA 0.0000 -SN BR 5000 0 0 0 3770
2019/10/14 09:01:00 BASE 2.71 143 3.24 145 -3.0 100 -3.0 2 0 994.9 NA 0.0000 -SN BR 4800 0 0 0 4890
2019/10/14 09:02:00 BASE 2.62 143 3.09 146 -3.0 100 -3.0 3 0 994.9 NA 0.0000 -SN BR 4200 0 0 0 4790
2019/10/14 09:03:00 BASE 2.56 143 2.98 142 -3.0 100 -3.0 3 0 994.9 NA 0.0000 -SN BR 4300 0 0 0 4100
2019/10/14 09:04:00 BASE 2.56 143 2.98 142 -3.0 100 -3.0 3 0 994.9 NA 0.0000 -SN BR 5000 0 0 0 3900
2019/10/14 09:05:00 BASE 2.63 142 2.98 142 -3.0 100 -3.0 3 0 994.9 NA 0.0000 -SN BR 5000 0 0 0 3770
2019/10/14 09:06:00 BASE 2.80 142 3.19 145 -3.0 100 -3.0 4 0 994.9 NA 0.0000 -SN BR 6000 0 0 0 3670
2019/10/14 09:07:00 BASE 2.83 142 3.19 145 -3.0 100 -3.0 4 0 995.0 NA 0.0000 -SN BR 6000 0 0 0 3670
2019/10/14 09:08:00 BASE 2.51 140 3.19 145 -3.1 100 -3.1 4 0 995.1 NA 0.0000 -SN BR 6000 0 0 0 3740
2019/10/14 09:09:00 BASE 2.45 140 3.19 145 -3.1 100 -3.1 4 0 995.1 NA 0.0000 -SN BR 8000 0 0 0 4230
2019/10/14 09:10:00 BASE 2.55 140 3.19 145 -3.1 100 -3.1 4 0 995.1 NA 0.0000 -SN BR 6000 0 0 0 4170
2019/10/14 09:11:00 BASE 2.48 140 3.19 145 -3.0 100 -3.0 5 0 995.0 NA 0.0000 -SN BR 9999 0 0 0 3770
2019/10/14 09:12:00 BASE 2.31 140 3.19 145 -3.0 100 -3.0 5 0 994.9 NA 0.0000 -SN BR 8000 0 0 0 3640
2019/10/14 09:13:00 BASE 1.94 138 3.19 145 -3.0 100 -3.0 5 0 994.9 NA 0.0000 -SN BR 9999 0 0 0 3610
2019/10/14 09:14:00 BASE 1.51 134 3.19 145 -3.0 100 -3.0 5 0 994.9 NA 0.0000 -SN BR 9999 0 0 0 3540
2019/10/14 09:15:00 BASE 0.66 134 3.19 145 -3.0 100 -3.0 5 0 994.9 NA 0.0000 -SN BR 9999 0 0 0 3480
2019/10/14 09:16:00 BASE 0.00 134 2.93 141 -3.0 100 -3.0 5 0 994.9 NA 0.0000 -SN BR 8000 0 0 0 3480
2019/10/14 09:17:00 BASE 0.00 136 2.88 145 -2.9 100 -2.9 5 0 994.9 NA 0.0000 -SN BR 5000 0 0 0 5020
2019/10/14 09:18:00 BASE 0.00 152 2.88 145 -2.9 100 -2.9 5 0 994.9 NA 0.0000 -SN BR 2500 0 0 0 3410
2019/10/14 09:19:00 BASE 0.00 158 2.78 143 -2.9 100 -2.9 5 0 994.9 NA 0.0000 -SN BR 2400 0 0 0 3220
2019/10/14 09:20:00 BASE 0.00 154 2.78 143 -2.9 100 -2.9 5 0 994.9 NA 0.0000 -SN BR 4000 0 0 0 3120
2019/10/14 09:21:00 BASE 0.00 154 2.57 143 -2.9 100 -2.9 5 0 994.9 NA 0.0000 -SN BR 4500 0 0 0 3080
2019/10/14 09:22:00 BASE 0.64 155 1.95 124 -2.9 100 -2.9 5 0 994.9 NA 0.0000 -SN BR 6000 0 0 0 3120
2019/10/14 09:23:00 BASE 0.75 150 1.95 124 -3.0 100 -3.0 5 0 994.9 NA 0.0000 -SN BR 9999 0 0 0 3080
2019/10/14 09:24:00 BASE 0.36 144 1.44 165 -3.0 100 -3.0 6 0 994.9 NA 0.0000 -SN BR 9999 0 0 0 2990
2019/10/14 09:25:00 BASE 0.26 146 1.44 165 -3.0 100 -3.0 6 0 994.9 NA 0.0000 -SN BR 9999 0 0 0 2950
2019/10/14 09:26:00 BASE 0.00 148 1.44 165 -3.0 100 -3.0 6 0 994.9 NA 0.0000 -SN BR 9999 0 0 0 4890
2019/10/14 09:27:00 BASE 0.00 142 1.44 165 -2.9 100 -2.9 6 0 994.9 NA 0.0000 -SN BR 5000 0 0 0 4790
2019/10/14 09:28:00 BASE 0.09 141 1.44 165 -2.9 100 -2.9 7 0 994.9 NA 0.0000 -SN BR 9000 0 0 0 4720
2019/10/14 09:29:00 BASE 0.26 144 1.44 165 -2.9 100 -2.9 7 0 994.9 NA 0.0000 -SN BR 4300 0 0 0 4690
2019/10/14 09:30:00 BASE 0.62 146 1.44 165 -2.9 100 -2.9 7 0 994.9 NA 0.0000 -SN BR 8000 0 0 0 4660
2019/10/14 09:31:00 BASE 1.05 150 1.44 165 -2.9 100 -2.9 8 0 994.9 NA 0.0000 -SN BR 3300 0 0 0 4630
2019/10/14 09:32:00 BASE 1.32 151 1.65 152 -2.9 100 -2.9 8 0 994.9 NA 0.0000 -SN BR 9999 0 0 0 4630
2019/10/14 09:33:00 BASE 1.31 148 1.65 152 -2.9 100 -2.9 9 0 994.9 NA 0.0000 -SN BR 9999 0 0 0 4590
2019/10/14 09:34:00 BASE 1.23 145 1.65 152 -2.9 100 -2.9 9 0 994.9 NA 0.0000 -SN BR 9999 0 0 0 4630
2019/10/14 09:35:00 BASE 1.29 143 1.65 152 -2.9 100 -2.9 10 0 994.9 NA 0.0000 -SN BR 9999 0 0 0 4690
2019/10/14 09:36:00 BASE 1.17 139 1.65 152 -2.9 100 -2.9 11 0 994.9 NA 0.0000 -SN BR 9999 0 0 0 4760
2019/10/14 09:37:00 BASE 1.04 133 1.65 152 -2.9 100 -2.9 11 0 994.9 NA 0.0000 -SN BR 9999 0 0 0 4720
2019/10/14 09:38:00 BASE 0.75 130 1.65 152 -2.9 100 -2.9 11 0 994.8 NA 0.0000 -SN BR 9999 0 0 0 4690
2019/10/14 09:39:00 BASE 0.23 129 1.65 152 -2.9 100 -2.9 12 0 994.8 NA 0.0000 -SN BR 9999 0 0 0 4690
2019/10/14 09:40:00 BASE 0.00 127 1.65 152 -2.9 100 -2.9 12 0 994.8 NA 0.0000 -SN BR 9999 0 0 0 4590
2019/10/14 09:41:00 BASE 0.00 125 1.65 152 -2.9 100 -2.9 12 0 994.8 NA 0.0000 -SN 9999 0 0 0 4590
2019/10/14 09:42:00 BASE 0.00 121 1.44 143 -2.9 100 -2.9 13 0 994.8 NA 0.0000 -SN 9999 0 0 0 4560
2019/10/14 09:43:00 BASE 0.00 114 1.44 143 -2.9 100 -2.9 13 0 994.7 NA 0.0000 9999 0 0 0 4490
2019/10/14 09:44:00 BASE 0.54 97 1.49 80 -2.9 100 -2.9 13 0 994.7 NA 0.0000 9999 0 0 0 4490
2019/10/14 09:45:00 BASE 1.36 81 1.75 73 -2.9 100 -2.9 13 0 994.7 NA 0.0000 9999 0 0 0 4400
2019/10/14 09:46:00 BASE 1.64 72 1.85 66 -2.9 100 -2.9 13 0 994.7 NA 0.0000 9999 0 0 0 4400
2019/10/14 09:47:00 BASE 1.65 67 1.85 60 -2.9 100 -2.9 13 0 994.7 NA 0.0000 9999 3580 0 0 0
2019/10/14 09:48:00 BASE 1.70 59 1.85 52 -2.9 100 -2.9 14 0 994.7 NA 0.0000 9999 3480 0 0 0
2019/10/14 09:49:00 BASE 1.73 53 1.85 52 -2.9 100 -2.9 14 0 994.8 NA 0.0000 9999 3450 0 0 0
2019/10/14 09:50:00 BASE 1.65 51 1.85 52 -3.0 100 -3.0 13 0 994.7 NA 0.0000 9999 0 0 0 4330
2019/10/14 09:51:00 BASE 1.57 51 1.85 52 -3.0 100 -3.0 13 0 994.7 NA 0.0000 9999 0 0 0 4300
2019/10/14 09:52:00 BASE 1.50 48 1.85 52 -3.0 100 -3.0 13 0 994.7 NA 0.0000 9999 0 0 0 4270
2019/10/14 09:53:00 BASE 1.44 45 1.85 52 -3.0 100 -3.0 13 0 994.7 NA 0.0000 9999 0 0 0 4230
2019/10/14 09:54:00 BASE 1.54 44 1.85 52 -3.0 100 -3.0 14 0 994.7 NA 0.0000 9999 3940 0 0 0
2019/10/14 09:55:00 BASE 1.55 44 1.85 52 -3.0 100 -3.0 15 0 994.7 NA 0.0000 9999 3840 0 0 0
2019/10/14 09:56:00 BASE 1.35 45 1.85 52 -3.0 100 -3.0 17 0 994.7 NA 0.0000 9999 3710 0 0 0
2019/10/14 09:57:00 BASE 0.70 44 1.85 52 -3.0 100 -3.0 18 0 994.7 NA 0.0000 9999 3540 0 0 0
2019/10/14 09:58:00 BASE 0.09 40 1.75 45 -3.0 100 -3.0 19 0 994.7 NA 0.0000 9999 3480 0 0 0
2019/10/14 09:59:00 BASE 0.00 36 1.75 45 -3.0 100 -3.0 19 0 994.6 NA 0.0000 9999 3380 0 0 0
2019/10/14 10:00:00 BASE 0.00 35 1.75 45 -3.0 100 -3.0 20 0 994.6 NA 0.0000 9999 3280 0 0 0
2019/10/14 10:01:00 BASE 0.18 36 1.75 45 -3.0 100 -3.0 21 0 994.6 NA 0.0000 9999 3150 0 0 0
2019/10/14 10:02:00 BASE 0.75 36 1.75 45 -3.0 100 -3.0 22 0 994.6 NA 0.0000 9999 3020 0 0 0
2019/10/14 10:03:00 BASE 0.80 36 1.75 45 -3.0 100 -3.0 24 0 994.6 NA 0.0000 9999 2850 0 0 0
2019/10/14 10:04:00 BASE 0.23 36 1.65 44 -3.0 100 -3.0 28 0 994.6 NA 0.0000 9999 2760 0 0 0
2019/10/14 10:05:00 BASE 0.00 35 1.39 45 -3.0 100 -3.0 31 0 994.6 NA 0.0000 9999 2720 0 0 0
2019/10/14 10:06:00 BASE 0.00 35 1.23 36 -3.0 100 -3.0 34 0 994.6 NA 0.0000 9999 2590 0 0 0
2019/10/14 10:07:00 BASE 0.00 35 1.23 36 -3.0 100 -3.0 36 0 994.6 NA 0.0000 9999 2530 3380 0 0
2019/10/14 10:08:00 BASE 0.00 35 1.23 36 -3.0 100 -3.0 37 0 994.5 NA 0.0000 9999 2400 3510 0 0
2019/10/14 10:09:00 BASE 0.00 35 1.23 36 -3.0 100 -3.0 39 0 994.5 NA 0.0000 9999 2200 0 0 0
2019/10/14 10:10:00 BASE 0.00 35 1.23 36 -3.0 100 -3.0 41 0 994.5 NA 0.0000 9999 2070 0 0 0
2019/10/14 10:11:00 BASE 0.00 35 1.23 36 -3.0 100 -3.0 43 0 994.5 NA 0.0000 9999 2130 0 0 0
2019/10/14 10:12:00 BASE 0.00 35 1.13 36 -3.0 100 -3.0 43 0 994.4 NA 0.0000 9999 1800 0 0 0
2019/10/14 10:13:00 BASE 0.04 35 1.03 36 -3.0 100 -3.0 44 0 994.4 NA 0.0000 9999 1670 2560 0 0
2019/10/14 10:14:00 BASE 0.59 38 1.13 46 -3.0 100 -3.0 45 0 994.4 NA 0.0000 9999 1640 2530 0 0
2019/10/14 10:15:00 BASE 0.95 43 1.18 46 -3.0 100 -3.0 45 0 994.4 NA 0.0000 9999 1610 3050 0 0
2019/10/14 10:16:00 BASE 0.67 46 1.18 46 -3.0 100 -3.0 44 0 994.3 NA 0.0000 9999 2070 0 0 0
2019/10/14 10:17:00 BASE 0.81 46 1.18 46 -3.0 100 -3.0 45 0 994.3 NA 0.0000 9999 1670 3640 0 0
2019/10/14 10:18:00 BASE 0.64 46 1.18 46 -3.0 100 -3.0 47 0 994.4 NA 0.0000 9999 1610 3480 0 0
2019/10/14 10:19:00 BASE 0.09 45 1.18 46 -3.0 100 -3.0 49 0 994.4 NA 0.0000 9999 1610 3510 0 0
2019/10/14 10:20:00 BASE 0.00 17 1.18 46 -3.0 100 -3.0 50 0 994.4 NA 0.0000 9999 1570 3510 0 0
2019/10/14 10:21:00 BASE 0.00 247 1.18 46 -3.0 100 -3.0 50 0 994.5 NA 0.0000 9999 1940 3050 0 0
2019/10/14 10:22:00 BASE 0.00 225 1.18 46 -3.0 100 -3.0 49 0 994.4 NA 0.0000 9999 1540 2850 0 0
2019/10/14 10:23:00 BASE 0.00 215 1.18 46 -2.9 100 -2.9 45 0 994.4 NA 0.0000 9999 1540 0 0 0
2019/10/14 10:24:00 BASE 0.00 215 1.18 46 -2.9 100 -2.9 39 0 994.4 NA 0.0000 9999 1510 2950 0 0
2019/10/14 10:25:00 BASE 0.00 217 1.13 46 -2.9 100 -2.9 34 0 994.4 NA 0.0000 UP 9999 1510 2330 0 0
2019/10/14 10:26:00 BASE 0.00 219 1.13 46 -2.9 100 -2.9 30 0 994.4 NA 0.0000 UP 8000 1510 2990 0 0
2019/10/14 10:27:00 BASE 0.00 212 1.08 46 -2.9 100 -2.9 28 0 994.3 NA 0.0000 UP 9999 1540 2950 0 0
2019/10/14 10:28:00 BASE 0.00 204 M M -3.0 100 -3.0 26 0 994.3 NA 0.0000 UP 9000 1640 3120 0 0
2019/10/14 10:29:00 BASE 0.00 201 M M -3.0 100 -3.0 25 0 994.4 NA 0.0000 UP 9000 1670 2460 0 0
2019/10/14 10:30:00 BASE 0.00 201 M M -3.0 100 -3.0 24 0 994.4 NA 0.0000 UP 9000 1640 2620 0 0
2019/10/14 10:31:00 BASE 0.00 201 M M -3.0 100 -3.0 24 0 994.4 NA 0.0000 UP 9000 1610 3020 0 0
2019/10/14 10:32:00 BASE 0.00 201 M M -3.0 100 -3.0 25 0 994.3 NA 0.2540 UP BR 9000 1670 2990 0 0
2019/10/14 10:33:00 BASE 0.00 201 M M -3.0 100 -3.0 26 0 994.2 NA 0.0000 UP BR 9000 1800 3020 0 0
2019/10/14 10:34:00 BASE 0.00 194 M M -3.0 100 -3.0 28 0 994.2 NA 0.0000 UP BR 9000 1770 2720 0 0
2019/10/14 10:35:00 BASE 0.00 177 M M -3.0 100 -3.0 29 0 994.3 NA 0.0000 UP BR 9999 1800 2590 0 0
2019/10/14 10:36:00 BASE 0.00 168 M M -3.0 100 -3.0 31 0 994.4 NA 0.0000 UP BR 9999 2100 0 0 0
2019/10/14 10:37:00 BASE 0.00 168 M M -3.0 100 -3.0 33 0 994.4 NA 0.0000 UP BR 9999 2260 2950 0 0
2019/10/14 10:38:00 BASE 0.00 168 M M -3.0 100 -3.0 35 0 994.3 NA 0.0000 UP BR 9999 2230 0 0 0
2019/10/14 10:39:00 BASE 0.00 168 M M -3.0 100 -3.0 37 0 994.2 NA 0.0000 UP BR 9999 2260 0 0 0
2019/10/14 10:40:00 BASE 0.13 168 1.08 167 -3.0 100 -3.0 39 0 994.2 NA 0.0000 UP BR 9999 1800 0 0 0
2019/10/14 10:41:00 BASE 0.68 162 1.39 144 -3.0 100 -3.0 41 0 994.2 NA 0.0000 UP BR 9999 2230 0 0 0
2019/10/14 10:42:00 BASE 1.28 148 1.59 131 -3.0 100 -3.0 44 0 994.1 NA 0.0000 UP BR 9999 2100 0 0 0
2019/10/14 10:43:00 BASE 1.44 133 1.59 131 -3.0 100 -3.0 46 0 994.1 NA 0.0000 BR 9999 2170 0 0 0
2019/10/14 10:44:00 BASE 1.19 126 1.59 131 -3.0 100 -3.0 47 0 994.1 NA 0.0000 BR 9999 2460 0 0 0
2019/10/14 10:45:00 BASE 0.49 125 1.59 131 -3.0 100 -3.0 49 0 994.1 NA 0.0000 BR 9999 2360 0 0 0
2019/10/14 10:46:00 BASE 0.00 127 1.59 131 -3.0 100 -3.0 51 0 994.1 NA 0.0000 9999 2260 0 0 0
2019/10/14 10:47:00 BASE 0.09 134 1.59 131 -3.0 100 -3.0 53 0 994.1 NA 0.0000 9999 2230 0 0 0
2019/10/14 10:48:00 BASE 0.22 140 1.59 131 -3.0 100 -3.0 53 0 994.1 NA 0.0000 9999 2200 2950 0 0
2019/10/14 10:49:00 BASE 0.13 141 1.59 131 -3.0 100 -3.0 50 0 994.1 NA 0.0000 9999 2200 2920 0 0
2019/10/14 10:50:00 BASE 0.00 143 1.59 131 -3.0 100 -3.0 47 0 994.1 NA 0.0000 9999 2200 0 0 0
2019/10/14 10:51:00 BASE 0.00 152 1.59 131 -3.0 100 -3.0 46 0 994.1 NA 0.0000 9999 2230 0 0 0
2019/10/14 10:52:00 BASE 0.47 171 1.54 131 -3.0 100 -3.0 45 0 994.1 NA 0.0000 9999 2170 0 0 0
2019/10/14 10:53:00 BASE 0.75 181 1.29 126 -3.0 100 -3.0 43 0 994.1 NA 0.0000 9999 2130 0 0 0
2019/10/14 10:54:00 BASE 0.80 168 1.44 142 -3.0 100 -3.0 40 0 994.1 NA 0.0000 9999 2170 0 0 0
2019/10/14 10:55:00 BASE 1.28 147 1.75 138 -3.0 100 -3.0 39 0 994.1 NA 0.0000 9999 2130 0 0 0
2019/10/14 10:56:00 BASE 1.51 137 1.75 138 -3.0 100 -3.0 38 0 994.1 NA 0.0000 9999 2170 0 0 0
2019/10/14 10:57:00 BASE 1.52 139 1.75 139 -3.0 100 -3.0 37 0 994.1 NA 0.0000 9999 2200 0 0 0
2019/10/14 10:58:00 BASE 1.64 148 1.95 157 -3.0 100 -3.0 37 0 994.1 NA 0.0000 9999 2170 0 0 0
2019/10/14 10:59:00 BASE 1.92 158 2.31 161 -3.0 100 -3.0 37 0 994.1 NA 0.0000 UP 9999 2170 0 0 0
2019/10/14 11:00:00 BASE 2.30 167 2.78 171 -3.0 100 -3.0 36 0 994.1 NA 0.0000 UP 9999 2230 0 0 0
2019/10/14 11:01:00 BASE 2.57 173 2.78 171 -3.1 100 -3.1 36 0 994.1 NA 0.0000 UP 9999 2260 0 0 0
2019/10/14 11:02:00 BASE 2.78 175 3.09 173 -3.1 100 -3.1 37 0 994.1 NA 0.0000 UP 9999 2260 0 0 0
2019/10/14 11:03:00 BASE 2.92 175 3.09 173 -3.1 100 -3.1 39 0 994.2 NA 0.0000 UP 9999 2300 22510 0 0
2019/10/14 11:04:00 BASE 2.93 174 3.19 166 -3.1 100 -3.1 41 0 994.2 NA 0.0000 UP 9999 2300 0 0 0
2019/10/14 11:05:00 BASE 3.06 166 3.24 158 -3.1 100 -3.1 43 0 994.2 NA 0.0000 UP 9999 2300 0 0 0
2019/10/14 11:06:00 BASE 3.04 162 3.24 158 -3.1 100 -3.1 46 0 994.2 NA 0.0000 UP 9999 2300 0 0 0
2019/10/14 11:07:00 BASE 2.92 164 3.24 164 -3.1 100 -3.1 47 0 994.2 NA 0.0000 UP 9999 2260 0 0 0
2019/10/14 11:08:00 BASE 3.05 164 3.50 166 -3.1 100 -3.1 47 0 994.2 NA 0.0000 UP 9999 2260 0 0 0
2019/10/14 11:09:00 BASE 3.22 164 3.50 166 -3.1 100 -3.1 47 0 994.2 NA 0.0000 9999 2230 0 0 0
2019/10/14 11:10:00 BASE 3.17 166 3.50 166 -3.1 100 -3.1 48 0 994.3 NA 0.0000 9999 2260 0 0 0
2019/10/14 11:11:00 BASE 3.12 166 3.50 166 -3.0 100 -3.0 51 0 994.4 NA 0.0000 9999 2200 0 0 0
2019/10/14 11:12:00 BASE 3.19 160 3.50 166 -3.0 100 -3.0 53 0 994.4 NA 0.0000 9999 2070 0 0 0
2019/10/14 11:13:00 BASE 3.29 156 3.50 166 -3.0 100 -3.0 54 0 994.4 NA 0.0000 9999 1940 0 0 0
2019/10/14 11:14:00 BASE 3.40 154 3.65 152 -3.0 100 -3.0 54 0 994.4 NA 0.0000 9999 1940 0 0 0
2019/10/14 11:15:00 BASE 3.30 153 3.65 152 -3.0 100 -3.0 55 0 994.4 NA 0.0000 UP 8000 2000 0 0 0
2019/10/14 11:16:00 BASE 3.10 149 3.65 152 -3.0 100 -3.0 60 0 994.5 NA 0.0000 UP 7000 2000 0 0 0
2019/10/14 11:17:00 BASE 3.14 144 3.65 138 -3.0 100 -3.0 67 0 994.5 NA 0.0000 UP 6000 2070 0 0 0
2019/10/14 11:18:00 BASE 3.26 140 3.65 141 -2.9 100 -2.9 74 0 994.5 NA 0.0000 UP 8000 2070 0 0 0
2019/10/14 11:19:00 BASE 3.14 135 3.65 129 -2.9 100 -2.9 79 0 994.5 NA 0.0000 UP BR 7000 2100 0 0 0
2019/10/14 11:20:00 BASE 2.99 131 3.65 129 -2.9 100 -2.9 82 0 994.5 NA 0.0000 UP BR 7000 2070 0 0 0
2019/10/14 11:21:00 BASE 3.02 131 3.81 143 -2.8 100 -2.8 84 0 994.5 NA 0.0000 UP BR 5000 2030 0 0 0
2019/10/14 11:22:00 BASE 2.99 132 3.81 143 -2.8 100 -2.8 89 0 994.5 NA 0.0000 UP BR 7000 1940 0 0 0
2019/10/14 11:23:00 BASE 2.89 134 3.81 143 -2.8 100 -2.8 96 0 994.6 NA 0.0000 UP BR 9000 1970 0 0 0
2019/10/14 11:24:01 BASE 2.94 134 3.81 143 -2.7 100 -2.7 102 0 994.6 NA 0.0000 UP BR 7000 2000 0 0 0
2019/10/14 11:25:01 BASE 3.04 132 3.81 143 -2.7 100 -2.7 103 0 994.6 NA 0.0000 UP BR 6000 430 0 0 0
2019/10/14 11:26:01 BASE 2.80 128 3.81 143 -2.7 100 -2.7 101 0 994.6 NA 0.0000 UP BR 6000 1870 0 0 0
2019/10/14 11:27:01 BASE 2.86 126 4.12 125 -2.7 100 -2.7 96 0 994.6 NA 0.0000 UP BR 8000 1770 21130 0 0
2019/10/14 11:28:01 BASE 3.09 124 4.12 125 -2.7 100 -2.7 90 0 994.6 NA 0.0000 UP BR 7000 430 0 0 0
2019/10/14 11:29:01 BASE 2.93 120 4.12 125 -2.7 100 -2.7 83 0 994.6 NA 0.0000 UP BR 7000 390 0 0 0
2019/10/14 11:30:01 BASE 2.79 120 4.12 125 -2.7 100 -2.7 75 0 994.6 NA 0.0000 UP BR 6000 330 0 0 0
2019/10/14 11:31:01 BASE 2.52 119 4.12 125 -2.7 100 -2.7 68 0 994.7 NA 0.0000 UP BR 5000 330 0 0 0
2019/10/14 11:32:01 BASE 1.92 108 4.12 125 -2.7 100 -2.7 63 0 994.7 NA 0.0000 UP BR 3200 300 0 0 0
2019/10/14 11:33:01 BASE 1.69 103 4.12 125 -2.7 100 -2.7 65 0 994.7 NA 0.0000 -SN BR 2600 300 0 0 0
2019/10/14 11:34:01 BASE 2.09 107 4.12 125 -2.6 100 -2.6 75 0 994.7 NA 0.0000 -SN BR 1900 330 0 0 0
2019/10/14 11:35:01 BASE 2.37 108 4.12 125 -2.6 100 -2.6 82 0 994.7 NA 0.0000 -SN BR 1700 330 0 0 0
2019/10/14 11:36:01 BASE 2.24 112 4.12 125 -2.6 100 -2.6 91 0 994.7 NA 0.0000 -SN BR 2000 360 0 0 0
2019/10/14 11:37:01 BASE 1.85 106 3.65 127 -2.6 100 -2.6 98 0 994.7 NA 0.0000 -SN BR 2600 390 0 0 0
2019/10/14 11:38:01 BASE 1.52 82 3.19 118 -2.6 100 -2.6 106 0 994.6 NA 0.0000 -SN BR 3200 390 0 0 0
2019/10/14 11:39:01 BASE 1.79 54 3.19 118 -2.6 100 -2.6 113 0 994.6 NA 0.0000 -SN BR 4000 390 0 0 0
2019/10/14 11:40:01 BASE 2.25 42 3.19 118 -2.6 100 -2.6 123 0 994.6 NA 0.0000 -SN BR 3300 360 0 0 0
2019/10/14 11:41:01 BASE 2.10 44 2.78 115 -2.7 100 -2.7 135 0 994.6 NA 0.0000 -SN BR 3300 360 0 0 0
2019/10/14 11:42:01 BASE 2.07 38 2.78 115 -2.7 100 -2.7 144 0 994.6 NA 0.0000 -SN BR 2600 360 0 0 0
2019/10/14 11:43:01 BASE 2.65 30 3.24 27 -2.7 100 -2.7 148 0 994.6 NA 0.0000 -SN BR 3200 360 0 0 0
2019/10/14 11:44:01 BASE 3.14 29 3.45 31 -2.7 100 -2.7 143 0 994.6 NA 0.0000 -SN BR 3100 360 0 0 0
2019/10/14 11:45:01 BASE 3.16 27 3.45 26 -2.7 100 -2.7 137 0 994.6 NA 0.0000 -SN BR 4500 360 0 0 0
2019/10/14 11:46:01 BASE 2.86 35 3.45 26 -2.7 100 -2.7 128 0 994.6 NA 0.0000 -SN BR 3800 330 0 0 0
2019/10/14 11:47:01 BASE 2.59 54 3.45 26 -2.7 100 -2.7 120 0 994.6 NA 0.0000 -SN BR 3300 300 0 0 0
2019/10/14 11:48:01 BASE 2.82 69 3.45 26 -2.7 100 -2.7 117 0 994.5 NA 0.0000 -SN BR 2400 330 0 0 0
2019/10/14 11:49:01 BASE 3.09 72 3.45 26 -2.7 100 -2.7 119 0 994.5 NA 0.0000 -SN BR 3000 330 0 0 0
2019/10/14 11:50:01 BASE 3.10 67 3.45 26 -2.7 100 -2.7 128 0 994.6 NA 0.0000 -SN BR 3500 330 0 0 0
2019/10/14 11:51:01 BASE 3.10 66 3.45 26 -2.7 100 -2.7 136 0 994.6 NA 0.0000 -SN BR 3600 330 0 0 0
2019/10/14 11:52:01 BASE 3.14 73 3.45 26 -2.7 100 -2.7 144 0 994.5 NA 0.0000 -SN BR 4700 330 0 0 0
2019/10/14 11:53:01 BASE 3.22 74 3.45 26 -2.6 100 -2.6 152 0 994.5 NA 0.0000 -SN BR 4600 360 0 0 0
2019/10/14 11:54:01 BASE 3.12 70 3.45 26 -2.6 100 -2.6 158 0 994.5 NA 0.0000 -SN BR 7000 360 0 0 0
2019/10/14 11:55:01 BASE 3.05 74 3.34 70 -2.6 100 -2.6 165 0 994.5 NA 0.0000 -SN BR 9000 390 0 0 0
2019/10/14 11:56:01 BASE 2.95 78 3.34 70 -2.6 100 -2.6 170 0 994.5 NA 0.0000 -SN BR 9999 950 0 0 0
2019/10/14 11:57:01 BASE 2.73 73 3.34 70 -2.5 100 -2.5 173 0 994.5 NA 0.0000 -SN BR 9999 920 0 0 0
2019/10/14 11:58:01 BASE 2.63 66 3.34 70 -2.5 100 -2.5 174 0 994.5 NA 0.0000 -SN BR 9999 430 0 0 0
2019/10/14 11:59:01 BASE 2.40 66 3.34 70 -2.5 100 -2.5 176 0 994.5 NA 0.0000 -SN BR 9999 360 0 0 0
2019/10/14 12:00:01 BASE 2.23 70 3.34 70 -2.4 100 -2.4 178 0 994.5 NA 0.0000 -SN BR 5000 360 0 0 0
2019/10/14 12:01:01 BASE 2.23 71 3.34 70 -2.4 100 -2.4 177 0 994.5 NA 0.0000 -SN BR 4800 360 0 0 0
2019/10/14 12:02:01 BASE 2.07 72 3.34 70 -2.4 100 -2.4 176 0 994.5 NA 0.0000 -SN BR 3800 330 1080 0 0
2019/10/14 12:03:01 BASE 1.71 67 3.19 80 -2.4 100 -2.4 175 0 994.5 NA 0.0000 -SN BR 2200 260 1050 0 0
2019/10/14 12:04:01 BASE 1.48 65 3.19 80 -2.3 100 -2.3 174 0 994.5 NA 0.0000 -SN BR 2100 300 0 0 0
2019/10/14 12:05:01 BASE 1.51 69 3.09 76 -2.3 100 -2.3 173 0 994.5 NA 0.0000 -SN BR 2600 360 0 0 0
2019/10/14 12:06:01 BASE 1.36 70 2.83 62 -2.3 100 -2.3 174 0 994.5 NA 0.0000 -SN BR 2700 300 0 0 0
2019/10/14 12:07:01 BASE 0.83 64 2.68 63 -2.3 100 -2.3 175 0 994.5 NA 0.0000 -SN BR 2300 300 0 0 0
2019/10/14 12:08:01 BASE 0.24 34 2.52 62 -2.2 100 -2.2 167 0 994.5 NA 0.0000 -SN BR 2300 300 0 0 0
2019/10/14 12:09:01 BASE 0.00 345 2.37 71 -2.2 100 -2.2 163 0 994.5 NA 0.0000 -SN BR 2700 300 0 0 0
2019/10/14 12:10:01 BASE 0.20 316 2.37 71 -2.1 100 -2.1 153 0 994.5 NA 0.0000 -SN BR 2100 330 0 0 0
2019/10/14 12:11:00 BASE 0.54 317 2.16 77 -2.1 100 -2.1 153 0 994.5 NA 0.0000 -SN BR 1200 330 0 0 0
2019/10/14 12:12:01 BASE 0.75 308 1.80 77 -2.0 100 -2.0 157 0 994.4 NA 0.0000 -SN BR 5000 360 0 0 0
2019/10/14 12:13:01 BASE 0.41 294 1.80 77 -1.9 100 -1.9 163 0 994.4 NA 0.0000 -SN BR 9000 790 0 0 0
2019/10/14 12:14:01 BASE 0.00 287 1.80 77 -1.8 100 -1.8 168 0 994.4 NA 0.0000 -SN BR 9999 390 0 0 0
2019/10/14 12:15:00 BASE 0.12 287 1.49 295 -1.8 100 -1.8 173 0 994.4 NA 0.0000 -SN BR 9000 390 0 0 0
2019/10/14 12:16:01 BASE 0.45 295 1.49 295 -1.7 100 -1.7 173 0 994.4 NA 0.0000 -SN BR 5000 360 0 0 0
2019/10/14 12:17:01 BASE 0.99 290 1.49 275 -1.7 100 -1.7 171 0 994.4 NA 0.0000 -SN BR 5000 300 0 0 0
2019/10/14 12:18:01 BASE 1.53 287 2.16 287 -1.7 100 -1.7 171 0 994.4 NA 0.0000 -SN BR 4900 360 0 0 0
2019/10/14 12:19:00 BASE 1.89 288 2.21 292 -1.7 100 -1.7 174 0 994.4 NA 0.0000 -SN BR 9000 360 0 0 0
2019/10/14 12:20:00 BASE 1.77 284 2.21 292 -1.7 100 -1.7 176 0 994.3 NA 0.0000 -SN BR 9000 360 0 0 0
2019/10/14 12:21:00 BASE 1.10 293 2.21 292 -1.7 100 -1.7 185 0 994.2 NA 0.0000 -SN BR 9999 360 0 0 0
2019/10/14 12:22:00 BASE 0.34 306 2.21 292 -1.7 100 -1.7 201 0 994.2 NA 0.0000 -SN BR 9999 390 0 0 0
2019/10/14 12:23:00 BASE 0.44 323 2.21 292 -1.7 100 -1.7 222 0 994.2 NA 0.0000 -SN BR 9999 360 0 0 0
2019/10/14 12:24:01 BASE 1.06 333 2.21 292 -1.7 100 -1.7 239 0 994.2 NA 0.0000 -SN BR 9000 390 0 0 0
2019/10/14 12:25:00 BASE 0.67 314 2.21 292 -1.7 100 -1.7 245 0 994.2 NA 0.0000 -SN BR 9999 430 0 0 0
2019/10/14 12:26:00 BASE 0.04 267 2.21 292 -1.8 100 -1.8 244 0 994.2 NA 0.0000 -SN BR 9999 360 0 0 0
2019/10/14 12:27:00 BASE 0.14 238 2.21 292 -1.8 100 -1.8 235 0 994.2 NA 0.0000 -SN BR 9999 390 0 0 0
2019/10/14 12:28:00 BASE 0.14 277 2.21 292 -1.9 100 -1.9 225 0 994.2 NA 0.0000 -SN 9999 330 0 0 0
2019/10/14 12:29:00 BASE 0.64 311 2.42 317 -1.8 100 -1.8 220 0 994.2 NA 0.0000 -SN 9000 330 0 0 0
2019/10/14 12:30:00 BASE 1.56 326 2.88 327 -1.7 100 -1.7 218 0 994.2 NA 0.0000 -SN 9000 330 0 0 0
2019/10/14 12:31:01 BASE 1.85 319 2.88 327 -1.7 100 -1.7 212 0 994.2 NA 0.0000 -SN BR 9999 360 0 0 0
2019/10/14 12:32:00 BASE 2.10 309 3.45 308 -1.6 100 -1.6 203 0 994.2 NA 0.0000 -SN 9999 390 0 0 0
2019/10/14 12:33:00 BASE 2.39 305 3.45 308 -1.5 100 -1.5 196 0 994.2 NA 0.0000 -SN 9999 390 0 0 0
2019/10/14 12:34:01 BASE 1.84 309 3.45 308 -1.4 100 -1.4 189 0 994.2 NA 0.2540 -SN 9999 330 0 0 0
2019/10/14 12:35:00 BASE 1.53 311 3.45 308 -1.4 100 -1.4 179 0 994.2 NA 0.0000 -SN 9999 300 0 0 0
2019/10/14 12:36:00 BASE 2.24 303 3.50 307 -1.3 100 -1.3 172 0 994.1 NA 0.0000 -SN 9000 300 0 0 0
2019/10/14 12:37:00 BASE 2.57 300 3.50 307 -1.3 100 -1.3 176 0 994.1 NA 0.0000 -SN 8000 300 0 0 0
2019/10/14 12:38:00 BASE 3.50 301 6.48 324 -1.3 100 -1.3 194 0 994.1 NA 0.0000 -SN 9999 260 20640 0 0
2019/10/14 12:39:00 BASE 4.82 302 6.84 317 -1.2 100 -1.2 211 0 994.1 NA 0.0000 -SN 9999 330 0 0 0
2019/10/14 12:40:00 BASE 5.58 315 7.20 318 -1.2 100 -1.2 221 0 994.1 NA 0.0000 -SN 9999 360 0 0 0
2019/10/14 12:41:00 BASE 6.56 324 8.23 337 -1.1 100 -1.1 228 0 994.1 NA 0.0000 -SN 9999 660 0 0 0
2019/10/14 12:42:00 BASE 7.34 327 8.23 337 -1.0 100 -1.0 229 0 994.1 NA 0.0000 -SN 9999 560 0 0 0
2019/10/14 12:43:00 BASE 7.77 330 8.95 328 -0.8 100 -0.8 220 0 994.1 NA 0.0000 -SN 9999 520 21290 0 0
2019/10/14 12:44:00 BASE 8.59 330 10.39 326 -0.6 100 -0.6 214 0 994.1 NA 0.0000 -SN 9999 390 0 0 0
2019/10/14 12:45:00 BASE 9.50 330 10.85 332 -0.4 100 -0.4 212 0 994.1 NA 0.0000 -SN 9999 390 0 0 0
2019/10/14 12:46:00 BASE 9.42 332 10.85 332 -0.2 100 -0.2 208 0 994.1 NA 0.0000 -SN 9999 390 0 0 0
2019/10/14 12:47:00 BASE 8.96 333 10.85 332 -0.1 100 -0.1 201 0 994.1 NA 0.0000 -SN 9999 360 0 0 0
2019/10/14 12:48:01 BASE 9.17 332 10.85 332 -0.0 100 -0.0 195 0 994.1 NA 0.0000 9999 330 0 0 0
2019/10/14 12:49:00 BASE 9.81 329 10.85 332 -0.0 100 -0.0 187 0 994.1 NA 0.0000 9999 360 0 0 0
2019/10/14 12:50:00 BASE 10.27 327 11.06 323 0.0 100 0.0 182 0 994.1 NA 0.0000 9999 390 0 0 0
2019/10/14 12:51:00 BASE 10.65 329 11.42 329 0.0 100 0.0 185 0 994.1 NA 0.0000 9999 390 0 0 0
2019/10/14 12:52:00 BASE 10.65 331 11.42 329 0.0 100 0.0 189 0 994.1 NA 0.0000 9999 390 0 0 0
2019/10/14 12:53:00 BASE 10.28 332 11.42 329 0.1 100 0.1 190 0 994.1 NA 0.0000 9999 360 0 0 0
2019/10/14 12:54:00 BASE 10.35 333 11.78 333 0.1 100 0.1 196 0 994.1 NA 0.0000 9999 330 0 0 0
2019/10/14 12:55:00 BASE 10.29 334 11.78 333 0.1 100 0.1 210 0 994.1 NA 0.0000 9999 360 0 0 0
2019/10/14 12:56:00 BASE 9.81 333 11.78 333 0.1 100 0.1 225 0 994.1 NA 0.0000 9999 390 0 0 0
2019/10/14 12:57:00 BASE 9.00 333 11.78 333 0.1 100 0.1 232 0 994.1 NA 0.0000 9999 390 0 0 0
2019/10/14 12:58:00 BASE 8.26 335 11.78 333 0.1 100 0.1 232 0 994.1 NA 0.0000 9999 390 0 0 0
2019/10/14 12:59:00 BASE 8.44 335 11.78 333 0.1 100 0.1 226 0 994.1 NA 0.0000 9999 390 0 0 0
2019/10/14 13:00:00 BASE 8.94 337 11.78 333 0.1 100 0.1 215 0 994.1 NA 0.0000 9999 360 0 0 0
2019/10/14 13:01:00 BASE 9.44 337 11.78 333 0.1 100 0.1 199 0 994.1 NA 0.0000 9999 360 0 0 0
2019/10/14 13:02:00 BASE 9.92 333 11.78 333 0.1 100 0.1 188 0 994.1 NA 0.0000 9999 360 0 0 0
2019/10/14 13:03:00 BASE 9.68 331 11.78 333 0.1 100 0.1 182 0 994.1 NA 0.0000 9999 330 0 0 0
2019/10/14 13:04:00 BASE 9.20 335 11.32 339 0.1 100 0.1 184 0 994.1 NA 0.0000 9999 300 0 0 0
2019/10/14 13:05:00 BASE 9.46 339 10.85 335 0.1 100 0.1 187 0 994.1 NA 0.0000 9999 260 0 0 0
2019/10/14 13:06:00 BASE 9.41 341 10.85 335 0.1 100 0.1 181 0 994.1 NA 0.0000 9999 330 0 0 0
2019/10/14 13:07:00 BASE 9.04 340 10.85 335 0.1 100 0.1 171 0 994.1 NA 0.0000 9999 390 0 0 0
2019/10/14 13:08:00 BASE 9.05 338 10.85 335 0.1 100 0.1 163 0 994.1 NA 0.0000 9999 430 0 0 0
2019/10/14 13:09:00 BASE 8.99 337 10.85 335 0.1 100 0.1 162 0 994.1 NA 0.0000 9999 390 0 0 0
2019/10/14 13:10:00 BASE 9.22 336 10.96 334 0.1 100 0.1 167 0 994.1 NA 0.0000 9999 430 0 0 0
2019/10/14 13:11:00 BASE 9.63 335 10.96 334 0.1 100 0.1 172 0 994.1 NA 0.0000 9999 390 0 0 0
2019/10/14 13:12:00 BASE 9.34 335 10.96 334 0.1 100 0.1 178 0 994.2 NA 0.0000 9999 360 0 0 0
2019/10/14 13:13:00 BASE 9.24 334 10.96 334 0.1 100 0.1 180 0 994.2 NA 0.0000 9999 390 0 0 0
2019/10/14 13:14:00 BASE 9.26 332 10.96 334 0.1 100 0.1 178 0 994.2 NA 0.0000 9999 460 0 0 0
2019/10/14 13:15:00 BASE 9.32 334 10.96 334 0.1 100 0.1 176 0 994.2 NA 0.0000 9999 460 0 0 0
2019/10/14 13:16:00 BASE 9.55 336 10.96 334 0.1 100 0.1 171 0 994.2 NA 0.0000 9999 430 0 0 0
2019/10/14 13:17:00 BASE 9.65 337 10.96 334 0.1 100 0.1 166 0 994.2 NA 0.0000 9999 390 0 0 0
2019/10/14 13:18:00 BASE 9.79 337 10.96 334 0.1 100 0.1 161 0 994.2 NA 0.0000 9999 390 0 0 0
2019/10/14 13:19:00 BASE 9.48 337 10.96 334 0.1 100 0.1 158 0 994.2 NA 0.0000 9999 360 0 0 0
2019/10/14 13:20:00 BASE 9.45 337 10.91 335 0.1 100 0.1 162 0 994.2 NA 0.0000 9999 330 0 0 0
2019/10/14 13:21:00 BASE 9.84 336 11.47 333 0.1 100 0.1 170 0 994.3 NA 0.0000 9999 330 0 0 0
2019/10/14 13:22:00 BASE 9.91 334 11.47 333 0.1 100 0.1 179 0 994.3 NA 0.0000 9999 300 0 0 0
2019/10/14 13:23:00 BASE 9.36 332 11.47 333 0.1 100 0.1 185 0 994.4 NA 0.0000 -SN 9999 300 0 0 0
2019/10/14 13:24:00 BASE 8.97 334 11.47 333 0.1 100 0.1 186 0 994.3 NA 0.0000 -SN 9999 300 0 0 0
2019/10/14 13:25:00 BASE 8.78 335 11.47 333 0.1 100 0.1 183 0 994.4 NA 0.0000 -SN 9999 330 0 0 0
2019/10/14 13:26:00 BASE 8.31 333 11.47 333 0.1 100 0.1 180 0 994.4 NA 0.0000 -SN 9999 330 0 0 0
2019/10/14 13:27:00 BASE 7.87 333 11.47 333 0.1 100 0.1 176 0 994.4 NA 0.0000 -SN 9999 360 0 0 0
2019/10/14 13:28:00 BASE 7.87 335 11.47 333 0.1 100 0.1 172 0 994.4 NA 0.0000 -SN 9999 390 0 0 0
2019/10/14 13:29:00 BASE 7.91 334 11.47 333 0.1 100 0.1 167 0 994.4 NA 0.0000 -SN 9999 390 0 0 0
2019/10/14 13:30:00 BASE 7.88 333 11.47 333 0.1 100 0.1 160 0 994.4 NA 0.0000 -SN 9999 390 0 0 0
2019/10/14 13:31:00 BASE 8.24 332 10.80 333 0.1 100 0.1 151 0 994.4 NA 0.0000 -SN 9999 390 0 0 0
2019/10/14 13:32:00 BASE 8.42 334 10.34 334 0.1 100 0.1 141 0 994.4 NA 0.0000 -SN 9999 390 0 0 0
2019/10/14 13:33:00 BASE 8.76 336 10.34 334 0.1 100 0.1 135 0 994.3 NA 0.0000 9999 390 0 0 0
2019/10/14 13:34:00 BASE 9.04 336 10.08 332 0.1 100 0.1 135 0 994.2 NA 0.0000 9999 390 0 0 0
2019/10/14 13:35:00 BASE 8.96 338 10.08 337 0.1 100 0.1 139 0 994.2 NA 0.0000 9999 390 0 0 0
2019/10/14 13:36:00 BASE 9.18 340 10.49 341 0.1 100 0.1 142 0 994.2 NA 0.0000 9999 360 0 0 0
2019/10/14 13:37:00 BASE 9.22 340 10.49 341 0.1 100 0.1 142 0 994.2 NA 0.0000 9999 330 0 0 0
2019/10/14 13:38:00 BASE 9.39 338 10.55 333 0.1 100 0.1 145 0 994.2 NA 0.0000 9999 330 0 0 0
2019/10/14 13:39:00 BASE 9.72 335 10.55 333 0.1 100 0.1 157 0 994.2 NA 0.0000 9999 330 0 0 0
2019/10/14 13:40:00 BASE 9.37 336 10.55 333 0.1 100 0.1 172 0 994.2 NA 0.0000 9999 360 0 0 0
2019/10/14 13:41:00 BASE 9.27 337 10.55 333 0.2 100 0.2 186 0 994.2 NA 0.0000 9999 330 0 0 0
2019/10/14 13:42:00 BASE 9.54 337 10.55 333 0.2 100 0.2 199 0 994.2 NA 0.0000 9999 360 0 0 0
2019/10/14 13:43:00 BASE 9.65 338 10.55 333 0.2 100 0.2 207 0 994.2 NA 0.0000 9999 360 0 0 0
2019/10/14 13:44:00 BASE 9.57 339 10.55 333 0.2 100 0.2 205 0 994.2 NA 0.0000 9999 330 0 0 0
2019/10/14 13:45:00 BASE 9.03 339 10.55 333 0.2 100 0.2 196 0 994.2 NA 0.0000 9999 330 0 0 0
2019/10/14 13:46:00 BASE 8.63 340 10.55 333 0.2 100 0.2 187 0 994.2 NA 0.0000 9999 330 0 0 0
2019/10/14 13:47:00 BASE 8.66 341 10.55 333 0.1 100 0.1 181 0 994.2 NA 0.0000 9999 300 0 0 0
2019/10/14 13:48:00 BASE 8.85 342 10.55 333 0.1 100 0.1 180 0 994.2 NA 0.0000 9999 300 0 0 0
2019/10/14 13:49:00 BASE 8.75 342 10.34 336 0.1 100 0.1 184 0 994.3 NA 0.0000 9999 260 0 0 0
2019/10/14 13:50:00 BASE 8.73 342 10.34 336 0.1 100 0.1 190 0 994.3 NA 0.0000 9999 260 0 0 0
2019/10/14 13:51:00 BASE 9.40 341 10.39 343 0.1 100 0.1 201 0 994.4 NA 0.0000 -SN 9999 260 0 0 0
2019/10/14 13:52:00 BASE 9.67 340 10.39 343 0.1 100 0.1 212 0 994.4 NA 0.0000 -SN 9999 260 0 0 0
2019/10/14 13:53:00 BASE 9.25 339 10.39 343 0.1 100 0.1 214 0 994.4 NA 0.0000 -SN 9999 260 0 0 0
2019/10/14 13:54:00 BASE 8.93 340 10.39 343 0.1 100 0.1 213 0 994.4 NA 0.0000 -SN 9999 260 21980 0 0
2019/10/14 13:55:00 BASE 8.82 341 10.39 343 0.1 100 0.1 213 0 994.4 NA 0.0000 -SN 9999 300 0 0 0
2019/10/14 13:56:00 BASE 8.93 343 10.39 343 0.2 100 0.2 217 0 994.3 NA 0.0000 -SN 9999 300 0 0 0
2019/10/14 13:57:00 BASE 9.10 345 10.39 343 0.2 100 0.2 221 0 994.2 NA 0.0000 -SN 9999 300 0 0 0
2019/10/14 13:58:00 BASE 9.10 346 10.39 343 0.2 100 0.2 221 0 994.2 NA 0.0000 -SN 9999 260 21720 0 0
2019/10/14 13:59:00 BASE 9.07 345 10.39 343 0.2 100 0.2 218 0 994.2 NA 0.0000 -SN 9999 260 0 0 0
2019/10/14 14:00:00 BASE 9.42 344 10.75 344 0.2 100 0.2 215 0 994.2 NA 0.0000 -SN 9999 330 0 0 0
2019/10/14 14:01:00 BASE 9.78 344 10.75 344 0.2 100 0.2 215 0 994.2 NA 0.0000 -SN 9999 330 0 0 0
2019/10/14 14:02:00 BASE 9.50 345 10.75 344 0.2 100 0.2 216 0 994.2 NA 0.0000 -SN 9999 300 0 0 0
2019/10/14 14:03:00 BASE 9.56 346 10.75 344 0.2 100 0.2 212 0 994.2 NA 0.0000 -SN 9999 330 0 0 0
2019/10/14 14:04:00 BASE 9.67 344 10.75 343 0.2 100 0.2 206 0 994.2 NA 0.0000 -SN 9999 300 0 0 0
2019/10/14 14:05:00 BASE 9.05 344 10.75 343 0.3 100 0.3 200 0 994.2 NA 0.0000 -SN 9999 300 0 0 0
2019/10/14 14:06:00 BASE 9.11 346 10.75 343 0.3 100 0.3 192 0 994.2 NA 0.0000 -SN 9999 260 0 0 0
2019/10/14 14:07:00 BASE 9.12 349 10.75 343 0.3 100 0.3 186 0 994.2 NA 0.0000 9999 260 0 0 0
2019/10/14 14:08:00 BASE 8.74 350 10.75 343 0.3 100 0.3 183 0 994.2 NA 0.0000 9999 260 0 0 0
2019/10/14 14:09:00 BASE 8.53 347 10.75 343 0.3 100 0.3 183 0 994.1 NA 0.0000 9999 230 0 0 0
2019/10/14 14:10:00 BASE 8.70 348 10.75 343 0.3 100 0.3 181 0 994.1 NA 0.0000 9999 0 0 0 1440
2019/10/14 14:11:00 BASE 9.37 347 10.80 340 0.3 100 0.3 175 0 994.2 NA 0.0000 -SN 9999 0 0 0 1540
2019/10/14 14:12:00 BASE 9.31 346 10.80 340 0.3 100 0.3 171 0 994.2 NA 0.0000 -SN 9999 0 0 0 1540
2019/10/14 14:13:00 BASE 9.31 346 10.80 340 0.3 100 0.3 168 0 994.2 NA 0.0000 -SN 9999 300 0 0 0
2019/10/14 14:14:00 BASE 9.92 347 10.80 349 0.3 100 0.3 167 0 994.2 NA 0.0000 -SN 9999 300 0 0 0
2019/10/14 14:15:00 BASE 9.93 348 10.80 349 0.3 100 0.3 167 0 994.2 NA 0.0000 -SN 9999 300 0 0 0
2019/10/14 14:16:00 BASE 9.80 349 10.80 349 0.3 100 0.3 168 0 994.2 NA 0.0000 -SN 9999 300 0 0 0
2019/10/14 14:17:00 BASE 10.07 349 11.83 347 0.3 100 0.3 170 0 994.2 NA 0.0000 -SN 9999 300 0 0 0
2019/10/14 14:18:00 BASE 10.27 347 11.83 347 0.3 100 0.3 173 0 994.2 NA 0.2540 -SN 9999 300 0 0 0
2019/10/14 14:19:00 BASE 9.92 347 11.83 347 0.4 100 0.4 178 0 994.2 NA 0.0000 -SN 9999 300 0 0 0
2019/10/14 14:20:00 BASE 9.67 351 11.83 347 0.4 100 0.4 182 0 994.1 NA 0.0000 9999 300 0 0 0
2019/10/14 14:21:00 BASE 10.31 353 11.83 347 0.4 100 0.4 185 0 994.1 NA 0.0000 9999 300 0 0 0
2019/10/14 14:22:00 BASE 10.33 348 11.83 347 0.4 100 0.4 188 0 994.1 NA 0.0000 9999 260 0 0 0
2019/10/14 14:23:00 BASE 9.65 344 11.83 347 0.4 100 0.4 190 0 994.2 NA 0.0000 9999 300 0 0 0
2019/10/14 14:24:00 BASE 9.01 343 11.83 347 0.5 100 0.5 188 0 994.2 NA 0.0000 9999 330 0 0 0
2019/10/14 14:25:00 BASE 9.06 343 11.83 347 0.5 100 0.5 185 0 994.2 NA 0.0000 9999 330 0 0 0
2019/10/14 14:26:00 BASE 9.06 345 11.83 347 0.5 100 0.5 183 0 994.2 NA 0.0000 9999 330 0 0 0
2019/10/14 14:27:00 BASE 8.26 348 11.42 349 0.4 100 0.4 183 0 994.2 NA 0.0000 9999 360 0 0 0
2019/10/14 14:28:00 BASE 7.73 351 11.42 349 0.4 100 0.4 191 0 994.2 NA 0.0000 9999 330 0 0 0
2019/10/14 14:29:00 BASE 7.91 349 11.42 349 0.4 100 0.4 202 0 994.2 NA 0.0000 -SN 9999 390 0 0 0
2019/10/14 14:30:00 BASE 7.79 347 11.42 349 0.4 100 0.4 213 0 994.2 NA 0.0000 -SN 9999 390 0 0 0
2019/10/14 14:31:00 BASE 8.04 346 10.75 346 0.5 100 0.5 219 0 994.2 NA 0.0000 -SN 9999 390 0 0 0
2019/10/14 14:32:00 BASE 8.52 345 10.55 345 0.5 100 0.5 219 0 994.1 NA 0.0000 -SN 9999 390 0 0 0
2019/10/14 14:33:00 BASE 8.18 345 9.98 347 0.5 100 0.5 214 0 994.2 NA 0.0000 -SN 9999 390 0 0 0
2019/10/14 14:34:00 BASE 7.92 346 9.98 347 0.5 100 0.5 204 0 994.2 NA 0.0000 -SN 9999 390 0 0 0
2019/10/14 14:35:00 BASE 8.39 347 10.03 344 0.5 100 0.5 199 0 994.2 NA 0.0000 -SN 9999 390 0 0 0
2019/10/14 14:36:00 BASE 8.95 345 10.03 344 0.5 100 0.5 200 0 994.2 NA 0.0000 -SN 9999 490 0 0 0
2019/10/14 14:37:00 BASE 8.48 347 10.03 344 0.5 100 0.5 206 0 994.2 NA 0.0000 -SN 9999 430 0 0 0
2019/10/14 14:38:00 BASE 8.17 348 10.03 344 0.5 100 0.5 213 0 994.2 NA 0.0000 -SN 9999 430 0 0 0
2019/10/14 14:39:00 BASE 8.38 347 10.03 344 0.5 100 0.5 218 0 994.2 NA 0.0000 9999 390 0 0 0
2019/10/14 14:40:00 BASE 8.49 344 10.03 344 0.5 100 0.5 220 0 994.2 NA 0.0000 9999 360 0 0 0
2019/10/14 14:41:00 BASE 8.66 339 10.03 344 0.5 100 0.5 217 0 994.3 NA 0.0000 -SN 9999 330 0 0 0
2019/10/14 14:42:00 BASE 8.29 338 10.03 344 0.5 100 0.5 213 0 994.4 NA 0.0000 -SN 9999 330 0 0 0
2019/10/14 14:43:00 BASE 7.55 338 10.03 344 0.5 100 0.5 208 0 994.4 NA 0.0000 -SN 9999 330 0 0 0
2019/10/14 14:44:00 BASE 7.54 339 10.03 344 0.5 100 0.5 203 0 994.4 NA 0.0000 -SN 9999 300 0 0 0
2019/10/14 14:45:00 BASE 7.43 340 9.41 347 0.5 100 0.5 205 0 994.4 NA 0.0000 -SN 9999 300 0 0 0
2019/10/14 14:46:00 BASE 6.79 340 9.41 347 0.5 100 0.5 212 0 994.4 NA 0.0000 -SN 9999 300 0 0 0
2019/10/14 14:47:00 BASE 6.55 340 9.41 347 0.5 100 0.5 220 0 994.4 NA 0.0000 -SN 9999 300 0 0 0
2019/10/14 14:48:00 BASE 7.01 342 9.31 340 0.5 100 0.5 223 0 994.4 NA 0.0000 -SN 9999 300 0 0 0
2019/10/14 14:49:00 BASE 7.24 343 9.31 340 0.5 100 0.5 221 0 994.3 NA 0.0000 -SN 9999 300 0 0 0
2019/10/14 14:50:00 BASE 6.78 342 9.31 340 0.5 100 0.5 220 0 994.3 NA 0.0000 -SN 9000 260 0 0 0
2019/10/14 14:51:00 BASE 6.52 343 9.11 340 0.5 100 0.5 219 0 994.4 NA 0.0000 -SN BR 8000 300 0 0 0
2019/10/14 14:52:00 BASE 6.48 344 9.11 340 0.5 100 0.5 220 0 994.4 NA 0.0000 -SN BR 9999 300 0 0 0
2019/10/14 14:53:00 BASE 6.27 344 9.11 340 0.5 100 0.5 232 0 994.4 NA 0.0000 -SN BR 9999 300 0 0 0
2019/10/14 14:54:00 BASE 6.25 342 9.11 340 0.5 100 0.5 242 0 994.4 NA 0.0000 -SN 9999 300 0 0 0
2019/10/14 14:55:00 BASE 6.56 342 9.11 340 0.5 100 0.5 232 0 994.4 NA 0.0000 -SN 9999 330 0 0 0
2019/10/14 14:56:00 BASE 6.76 344 9.11 340 0.5 100 0.5 221 0 994.4 NA 0.0000 -SN 9999 330 0 0 0
2019/10/14 14:57:00 BASE 6.82 343 9.11 340 0.5 100 0.5 215 0 994.4 NA 0.0000 -SN 9999 330 0 0 0
2019/10/14 14:58:00 BASE 6.96 342 7.97 340 0.5 100 0.5 213 0 994.4 NA 0.0000 -SN 9999 330 0 0 0
2019/10/14 14:59:00 BASE 6.90 342 7.67 340 0.5 100 0.5 213 0 994.5 NA 0.0000 -SN 9999 330 0 0 0
2019/10/14 15:00:00 BASE 6.86 343 7.92 340 0.5 100 0.5 207 0 994.5 NA 0.0000 -SN 9999 330 0 0 0
2019/10/14 15:01:00 BASE 7.01 341 7.92 340 0.5 100 0.5 201 0 994.5 NA 0.0000 -SN 9999 300 0 0 0
2019/10/14 15:02:00 BASE 6.93 340 7.92 340 0.5 100 0.5 197 0 994.5 NA 0.0000 -SN 9999 300 0 0 0
2019/10/14 15:03:00 BASE 6.86 339 7.92 340 0.5 100 0.5 200 0 994.5 NA 0.0000 -SN 9999 260 0 0 0
2019/10/14 15:04:00 BASE 6.91 335 7.92 340 0.5 100 0.5 210 0 994.6 NA 0.0000 -SN 9999 230 0 0 0
2019/10/14 15:05:00 BASE 6.71 332 7.92 340 0.5 100 0.5 219 0 994.5 NA 0.0000 -SN 9999 230 0 0 0
2019/10/14 15:06:00 BASE 7.01 333 8.28 333 0.5 100 0.5 221 0 994.5 NA 0.0000 -SN 9000 260 0 0 0
2019/10/14 15:07:00 BASE 7.04 336 8.28 333 0.5 100 0.5 217 0 994.5 NA 0.0000 -SN 9000 260 0 0 0
2019/10/14 15:08:00 BASE 6.64 340 8.28 333 0.5 100 0.5 211 0 994.4 NA 0.0000 -SN BR 6000 0 0 0 1120
2019/10/14 15:09:00 BASE 6.78 345 8.28 333 0.5 100 0.5 203 0 994.4 NA 0.0000 -SN BR 4000 0 0 0 1570
2019/10/14 15:10:00 BASE 6.95 347 8.28 333 0.5 100 0.5 197 0 994.4 NA 0.0000 -SN BR 4500 0 0 0 1610
2019/10/14 15:11:00 BASE 7.15 350 8.28 333 0.5 100 0.5 194 0 994.4 NA 0.0000 -SN BR 3100 0 0 0 1250
2019/10/14 15:12:00 BASE 7.39 350 8.28 333 0.5 100 0.5 196 0 994.4 NA 0.0000 -SN BR 4600 0 0 0 1540
2019/10/14 15:13:00 BASE 7.21 349 8.28 333 0.4 100 0.4 200 0 994.4 NA 0.0000 -SN BR 8000 260 0 0 0
2019/10/14 15:14:00 BASE 6.99 349 8.28 333 0.4 100 0.4 208 0 994.4 NA 0.0000 -SN BR 9999 260 0 0 0
2019/10/14 15:15:00 BASE 6.75 354 8.28 333 0.4 100 0.4 220 0 994.3 NA 0.0000 -SN BR 9999 230 0 0 0
2019/10/14 15:16:01 BASE 6.57 353 8.18 350 0.4 100 0.4 239 0 994.2 NA 0.0000 -SN BR 9999 0 0 0 1480
2019/10/14 15:17:01 BASE 7.43 345 8.54 347 0.5 100 0.5 263 0 994.2 NA 0.0000 -SN BR 9999 0 0 0 1510
2019/10/14 15:18:01 BASE 7.39 347 8.54 347 0.5 100 0.5 286 0 994.2 NA 0.0000 -SN BR 9999 0 0 0 1210
2019/10/14 15:19:00 BASE 6.62 350 8.54 347 0.6 100 0.6 295 0 994.2 NA 0.0000 -SN BR 8000 0 0 0 1150
2019/10/14 15:20:01 BASE 6.74 352 8.54 347 0.6 100 0.6 283 0 994.2 NA 0.0000 -SN BR 4600 0 0 0 1050
2019/10/14 15:21:01 BASE 7.29 355 8.54 347 0.6 100 0.6 247 0 994.2 NA 0.2540 -SN BR 3200 0 0 0 890
2019/10/14 15:22:01 BASE 7.61 354 8.54 347 0.6 100 0.6 212 0 994.3 NA 0.0000 -SN BR 4000 0 0 0 920
2019/10/14 15:23:00 BASE 7.42 352 8.75 350 0.6 100 0.6 194 0 994.3 NA 0.0000 -SN BR 3400 0 0 0 980
2019/10/14 15:24:01 BASE 7.88 354 8.95 1 0.6 100 0.6 199 0 994.3 NA 0.0000 -SN BR 3100 0 0 0 1080
2019/10/14 15:25:00 BASE 8.22 350 8.95 1 0.6 100 0.6 226 0 994.3 NA 0.0000 -SN BR 6000 0 0 0 1120
2019/10/14 15:26:00 BASE 7.69 346 8.95 1 0.6 100 0.6 257 0 994.3 NA 0.0000 -SN BR 5000 0 0 0 1250
2019/10/14 15:27:00 BASE 7.59 347 10.55 349 0.6 100 0.6 269 0 994.3 NA 0.0000 -SN BR 4900 0 0 0 1180
2019/10/14 15:28:00 BASE 8.31 347 10.55 349 0.6 100 0.6 254 0 994.3 NA 0.0000 -SN BR 6000 0 0 0 1280
2019/10/14 15:29:00 BASE 8.58 344 10.55 349 0.6 100 0.6 226 0 994.3 NA 0.0000 -SN BR 9999 230 0 0 0
2019/10/14 15:30:00 BASE 7.76 343 10.55 349 0.6 100 0.6 197 0 994.3 NA 0.0000 -SN BR 8000 260 0 0 0
2019/10/14 15:31:00 BASE 7.68 343 10.55 349 0.6 100 0.6 181 0 994.3 NA 0.0000 -SN BR 6000 0 0 0 1350
2019/10/14 15:32:00 BASE 7.98 345 10.55 349 0.6 100 0.6 190 0 994.3 NA 0.0000 -SN BR 9000 24280 0 0 0
2019/10/14 15:33:00 BASE 7.42 348 10.55 349 0.6 100 0.6 228 0 994.2 NA 0.0000 -SN BR 5000 0 0 0 1180
2019/10/14 15:34:00 BASE 7.22 348 10.55 349 0.6 100 0.6 278 0 994.2 NA 0.0000 -SN BR 3100 0 0 0 1180
2019/10/14 15:35:00 BASE 7.64 346 10.55 349 0.6 100 0.6 306 0 994.2 NA 0.2540 -SN BR 3000 23100 0 0 0
2019/10/14 15:36:00 BASE 7.51 346 10.55 349 0.6 100 0.6 318 0 994.1 NA 0.0000 -SN BR 3500 0 0 0 1150
2019/10/14 15:37:00 BASE 7.90 348 10.55 349 0.6 100 0.6 314 0 994.1 NA 0.0000 -SN BR 2400 0 0 0 1380
2019/10/14 15:38:00 BASE 8.50 348 9.62 343 0.6 100 0.6 298 0 994.2 NA 0.0000 -SN BR 9999 0 0 0 1380
2019/10/14 15:39:00 BASE 8.57 344 9.62 343 0.6 100 0.6 283 0 994.2 NA 0.0000 -SN BR 9999 260 0 0 0
2019/10/14 15:40:00 BASE 8.87 344 9.62 343 0.7 100 0.7 271 0 994.2 NA 0.0000 -SN BR 9999 0 0 0 1280
2019/10/14 15:41:00 BASE 8.84 343 9.62 343 0.7 100 0.7 265 0 994.3 NA 0.0000 -SN BR 9999 0 0 0 1120
2019/10/14 15:42:00 BASE 8.89 340 10.49 337 0.7 100 0.7 260 0 994.4 NA 0.0000 -SN BR 5000 0 0 0 1050
2019/10/14 15:43:00 BASE 9.39 338 10.49 337 0.7 100 0.7 257 0 994.4 NA 0.0000 -SN BR 3600 0 0 0 1150
2019/10/14 15:44:00 BASE 9.17 336 10.49 337 0.6 100 0.6 258 0 994.4 NA 0.0000 -SN BR 4400 0 0 0 1180
2019/10/14 15:45:00 BASE 9.04 335 10.49 337 0.6 100 0.6 265 0 994.5 NA 0.0000 -SN BR 4500 0 0 0 1180
2019/10/14 15:46:00 BASE 8.79 338 10.49 337 0.6 100 0.6 274 0 994.5 NA 0.0000 -SN BR 2100 0 0 0 1250
2019/10/14 15:47:00 BASE 8.10 343 10.49 337 0.6 100 0.6 282 0 994.4 NA 0.0000 -SN BR 2700 0 0 0 1280
2019/10/14 15:48:00 BASE 8.15 343 10.49 337 0.6 100 0.6 287 0 994.4 NA 0.2540 -SN BR 5000 0 0 0 1280
2019/10/14 15:49:00 BASE 8.05 343 10.49 337 0.6 100 0.6 295 0 994.4 NA 0.0000 -SN BR 6000 0 0 0 1250
2019/10/14 15:50:00 BASE 8.02 346 10.49 337 0.6 100 0.6 303 0 994.4 NA 0.0000 -SN BR 4900 0 0 0 1510
2019/10/14 15:51:00 BASE 8.09 346 10.49 337 0.6 100 0.6 300 0 994.4 NA 0.0000 -SN BR 9999 0 0 0 1350
2019/10/14 15:52:00 BASE 8.17 343 10.49 337 0.6 100 0.6 296 0 994.4 NA 0.0000 -SN BR 9999 260 0 0 0
2019/10/14 15:53:00 BASE 8.50 342 10.34 337 0.6 100 0.6 295 0 994.4 NA 0.0000 -SN BR 9999 260 0 0 0
2019/10/14 15:54:00 BASE 9.03 344 10.34 337 0.6 100 0.6 293 0 994.3 NA 0.0000 -SN BR 9999 260 0 0 0
2019/10/14 15:55:00 BASE 9.69 344 10.29 346 0.6 100 0.6 291 0 994.3 NA 0.0000 -SN BR 9999 260 0 0 0
2019/10/14 15:56:00 BASE 9.80 346 10.39 348 0.6 100 0.6 287 0 994.3 NA 0.0000 -SN BR 9999 300 0 0 0
2019/10/14 15:57:00 BASE 9.72 346 10.55 340 0.6 100 0.6 283 0 994.2 NA 0.0000 -SN BR 9999 300 0 0 0
2019/10/14 15:58:00 BASE 9.15 346 10.55 340 0.6 100 0.6 283 0 994.2 NA 0.0000 -SN 9999 300 0 0 0
2019/10/14 15:59:00 BASE 8.13 349 10.55 340 0.6 100 0.6 280 0 994.3 NA 0.0000 -SN 9999 300 0 0 0
2019/10/14 16:00:00 BASE 8.21 349 10.55 340 0.6 100 0.6 278 0 994.2 NA 0.0000 -SN 9999 300 0 0 0
2019/10/14 16:01:00 BASE 8.83 348 10.55 340 0.6 100 0.6 276 0 994.2 NA 0.0000 -SN 9999 300 0 0 0
2019/10/14 16:02:00 BASE 9.09 349 10.55 340 0.6 100 0.6 278 0 994.2 NA 0.0000 9999 260 0 0 0
2019/10/14 16:03:00 BASE 9.49 348 11.11 346 0.6 100 0.6 280 0 994.2 NA 0.0000 9999 260 0 0 0
2019/10/14 16:04:00 BASE 9.73 347 11.11 346 0.6 100 0.6 287 0 994.2 NA 0.0000 9999 300 0 0 0
2019/10/14 16:05:00 BASE 9.65 346 11.11 346 0.6 100 0.6 296 0 994.2 NA 0.0000 9999 300 0 0 0
2019/10/14 16:06:00 BASE 9.73 345 11.11 346 0.6 100 0.6 302 0 994.2 NA 0.0000 9999 300 0 0 0
2019/10/14 16:07:00 BASE 10.44 344 11.57 344 0.6 100 0.6 307 0 994.1 NA 0.0000 9999 300 0 0 0
2019/10/14 16:08:00 BASE 10.44 344 11.57 344 0.6 100 0.6 307 0 994.2 NA 0.0000 9999 300 0 0 0
2019/10/14 16:09:00 BASE 9.41 344 11.57 344 0.6 100 0.6 310 0 994.1 NA 0.0000 9999 300 22840 0 0
2019/10/14 16:10:00 BASE 9.69 345 12.04 343 0.6 100 0.6 314 0 994.1 NA 0.0000 9999 330 0 0 0
2019/10/14 16:11:00 BASE 10.90 346 12.55 342 0.6 100 0.6 318 0 994.1 NA 0.0000 9999 330 0 0 0
2019/10/14 16:12:00 BASE 11.06 345 12.55 342 0.7 100 0.7 318 0 994.1 NA 0.0000 9999 360 21390 0 0
2019/10/14 16:13:00 BASE 10.74 344 12.55 342 0.7 100 0.7 314 0 994.1 NA 0.0000 9999 360 0 0 0
2019/10/14 16:14:00 BASE 11.19 343 12.55 337 0.7 100 0.7 310 0 994.1 NA 0.0000 9999 360 0 0 0
2019/10/14 16:15:00 BASE 11.34 344 12.55 337 0.7 100 0.7 301 0 994.1 NA 0.0000 9999 360 0 0 0
2019/10/14 16:16:00 BASE 10.96 343 12.55 337 0.7 100 0.7 292 0 994.1 NA 0.0000 9999 360 0 0 0
2019/10/14 16:17:00 BASE 10.82 342 12.55 337 0.7 100 0.7 285 0 994.1 NA 0.0000 9999 360 0 0 0
2019/10/14 16:18:00 BASE 10.82 341 12.55 337 0.7 100 0.7 279 0 994.1 NA 0.0000 9999 360 0 0 0
2019/10/14 16:19:00 BASE 10.99 342 12.55 337 0.7 100 0.7 277 0 994.1 NA 0.0000 9999 360 0 0 0
2019/10/14 16:20:00 BASE 11.23 342 12.55 337 0.7 100 0.7 278 0 994.1 NA 0.0000 9999 360 0 0 0
2019/10/14 16:21:00 BASE 10.93 341 12.55 337 0.7 100 0.7 277 0 994.1 NA 0.0000 9999 360 0 0 0
2019/10/14 16:22:00 BASE 10.36 341 12.55 337 0.7 100 0.7 279 0 994.1 NA 0.0000 9999 360 0 0 0
2019/10/14 16:23:00 BASE 10.39 342 12.55 337 0.7 100 0.7 276 0 994.2 NA 0.0000 9999 330 0 0 0
2019/10/14 16:24:00 BASE 10.56 341 12.50 343 0.7 100 0.7 271 0 994.2 NA 0.0000 9999 330 0 0 0
2019/10/14 16:25:00 BASE 10.64 341 12.50 343 0.7 100 0.7 268 0 994.2 NA 0.0000 9999 330 0 0 0
2019/10/14 16:26:00 BASE 10.52 341 12.50 343 0.7 100 0.7 270 0 994.2 NA 0.0000 9999 330 0 0 0
2019/10/14 16:27:00 BASE 10.48 341 12.50 343 0.7 100 0.7 271 0 994.2 NA 0.0000 9999 330 0 0 0
2019/10/14 16:28:00 BASE 10.27 341 12.50 343 0.7 100 0.7 271 0 994.2 NA 0.0000 9999 300 0 0 0
2019/10/14 16:29:00 BASE 9.98 341 12.50 343 0.7 100 0.7 270 0 994.2 NA 0.0000 9999 300 0 0 0
2019/10/14 16:30:00 BASE 10.24 340 11.47 334 0.6 100 0.6 269 0 994.2 NA 0.0000 9999 300 0 0 0
2019/10/14 16:31:00 BASE 10.08 340 11.37 341 0.6 100 0.6 270 0 994.3 NA 0.0000 9999 300 17520 0 0
2019/10/14 16:32:00 BASE 9.66 340 11.37 341 0.6 100 0.6 273 0 994.3 NA 0.0000 9999 300 0 0 0
2019/10/14 16:33:00 BASE 9.48 340 11.37 341 0.6 100 0.6 273 0 994.3 NA 0.0000 9999 300 0 0 0
2019/10/14 16:34:00 BASE 9.66 340 11.37 341 0.6 100 0.6 276 0 994.2 NA 0.0000 9999 300 0 0 0
2019/10/14 16:35:00 BASE 9.49 340 11.27 339 0.6 100 0.6 283 0 994.2 NA 0.0000 9999 300 0 0 0
2019/10/14 16:36:00 BASE 9.22 339 11.27 339 0.6 100 0.6 287 0 994.2 NA 0.0000 9999 260 0 0 0
2019/10/14 16:37:00 BASE 9.25 340 10.91 340 0.6 100 0.6 285 0 994.2 NA 0.0000 9999 260 0 0 0
2019/10/14 16:38:00 BASE 9.44 342 10.91 340 0.6 100 0.6 286 0 994.2 NA 0.0000 9999 260 0 0 0
2019/10/14 16:39:00 BASE 10.03 344 11.11 344 0.6 100 0.6 285 0 994.1 NA 0.0000 9999 260 22080 0 0
2019/10/14 16:40:00 BASE 10.24 342 11.11 344 0.6 100 0.6 284 0 994.1 NA 0.0000 9999 230 0 0 0
2019/10/14 16:41:00 BASE 10.29 340 11.16 340 0.6 100 0.6 283 0 994.1 NA 0.0000 9999 230 0 0 0
2019/10/14 16:42:00 BASE 10.40 340 11.16 340 0.6 100 0.6 282 0 994.1 NA 0.0000 9999 260 0 0 0
2019/10/14 16:43:00 BASE 10.16 340 11.16 340 0.6 100 0.6 286 0 994.1 NA 0.0000 9999 260 0 0 0
2019/10/14 16:44:00 BASE 10.54 344 11.73 342 0.6 100 0.6 293 0 994.1 NA 0.0000 9999 260 0 0 0
2019/10/14 16:45:00 BASE 10.61 343 11.73 342 0.6 100 0.6 289 0 994.2 NA 0.0000 9999 260 0 0 0
2019/10/14 16:46:00 BASE 10.46 341 11.73 342 0.6 100 0.6 282 0 994.2 NA 0.0000 9999 300 0 0 0
2019/10/14 16:47:00 BASE 10.64 344 11.73 342 0.6 100 0.6 277 0 994.1 NA 0.0000 9999 330 0 0 0
2019/10/14 16:48:01 BASE 10.60 346 11.73 342 0.6 100 0.6 270 0 994.1 NA 0.0000 9999 330 0 0 0
2019/10/14 16:49:00 BASE 10.61 346 11.73 342 0.6 100 0.6 265 0 994.2 NA 0.0000 9999 330 0 0 0
2019/10/14 16:50:00 BASE 10.25 346 11.73 342 0.6 100 0.6 267 0 994.2 NA 0.0000 9999 330 0 0 0
2019/10/14 16:51:00 BASE 9.90 345 11.73 342 0.6 100 0.6 284 0 994.2 NA 0.0000 9999 300 0 0 0
2019/10/14 16:52:00 BASE 9.71 345 11.73 342 0.6 100 0.6 303 0 994.2 NA 0.0000 9999 330 0 0 0
2019/10/14 16:53:00 BASE 9.77 346 11.73 342 0.6 100 0.6 320 0 994.1 NA 0.0000 9999 330 0 0 0
2019/10/14 16:54:00 BASE 9.73 348 11.47 344 0.6 100 0.6 332 0 994.1 NA 0.0000 9999 300 0 0 0
2019/10/14 16:55:00 BASE 9.50 349 11.47 344 0.7 100 0.7 321 0 994.2 NA 0.0000 9999 330 0 0 0
2019/10/14 16:56:00 BASE 9.69 352 11.47 344 0.7 100 0.7 300 0 994.2 NA 0.0000 9999 300 0 0 0
2019/10/14 16:57:00 BASE 9.86 350 11.47 344 0.7 100 0.7 288 0 994.2 NA 0.0000 9999 260 0 0 0
2019/10/14 16:58:00 BASE 10.18 345 11.27 341 0.7 100 0.7 286 0 994.2 NA 0.0000 9999 200 0 0 0
2019/10/14 16:59:00 BASE 9.93 346 11.11 341 0.7 100 0.7 291 0 994.2 NA 0.0000 9999 230 0 0 0
2019/10/14 17:00:00 BASE 9.56 349 11.11 341 0.7 100 0.7 292 0 994.3 NA 0.0000 9999 230 0 0 0
2019/10/14 17:01:00 BASE 9.51 347 11.11 341 0.7 100 0.7 284 0 994.4 NA 0.0000 9999 300 0 0 0
2019/10/14 17:02:00 BASE 9.31 344 11.11 341 0.7 100 0.7 272 0 994.4 NA 0.0000 9999 300 0 0 0
2019/10/14 17:03:00 BASE 9.35 344 11.11 341 0.7 100 0.7 266 0 994.4 NA 0.0000 9999 330 0 0 0
2019/10/14 17:04:00 BASE 8.60 344 11.11 341 0.7 100 0.7 259 0 994.5 NA 0.0000 9999 330 17880 0 0
2019/10/14 17:05:00 BASE 8.01 345 11.11 341 0.7 100 0.7 251 0 994.5 NA 0.0000 9999 330 0 0 0
2019/10/14 17:06:00 BASE 8.31 346 11.11 341 0.7 100 0.7 250 0 994.5 NA 0.0000 9999 330 0 0 0
2019/10/14 17:07:00 BASE 8.84 344 11.11 341 0.7 100 0.7 254 0 994.5 NA 0.0000 9999 330 0 0 0
2019/10/14 17:08:01 BASE 9.13 343 10.39 352 0.7 100 0.7 252 0 994.5 NA 0.0000 9999 330 0 0 0
2019/10/14 17:09:00 BASE 8.76 343 10.39 352 0.7 100 0.7 244 0 994.6 NA 0.0000 9999 360 0 0 0
2019/10/14 17:10:00 BASE 8.61 342 10.24 341 0.7 100 0.7 232 0 994.6 NA 0.0000 9999 360 0 0 0
2019/10/14 17:11:00 BASE 9.07 342 10.24 341 0.7 100 0.7 227 0 994.6 NA 0.0000 9999 360 0 0 0
2019/10/14 17:12:00 BASE 9.62 341 10.44 339 0.7 100 0.7 224 0 994.6 NA 0.0000 9999 360 0 0 0
2019/10/14 17:13:00 BASE 9.71 339 10.44 339 0.7 100 0.7 226 0 994.6 NA 0.0000 9999 360 0 0 0
2019/10/14 17:14:00 BASE 9.12 338 10.44 339 0.7 100 0.7 227 0 994.6 NA 0.0000 9999 360 0 0 0
2019/10/14 17:15:00 BASE 8.89 338 10.44 339 0.7 100 0.7 234 0 994.6 NA 0.0000 9999 360 0 0 0
2019/10/14 17:16:00 BASE 9.24 341 10.44 339 0.7 100 0.7 239 0 994.6 NA 0.0000 9999 360 1180 0 0
2019/10/14 17:17:00 BASE 9.54 342 10.44 339 0.7 100 0.7 242 0 994.6 NA 0.0000 9999 330 0 0 0
2019/10/14 17:18:00 BASE 9.46 342 10.44 339 0.7 100 0.7 246 0 994.7 NA 0.0000 9999 330 0 0 0
2019/10/14 17:19:00 BASE 9.14 341 10.44 339 0.6 100 0.6 246 0 994.7 NA 0.0000 9999 330 0 0 0
2019/10/14 17:20:00 BASE 8.92 339 10.44 339 0.6 100 0.6 241 0 994.7 NA 0.0000 9999 330 0 0 0
2019/10/14 17:21:00 BASE 8.95 338 10.44 339 0.6 100 0.6 240 0 994.7 NA 0.0000 9999 330 0 0 0
2019/10/14 17:22:00 BASE 9.47 335 10.75 331 0.6 100 0.6 246 0 994.7 NA 0.0000 9999 300 0 0 0
2019/10/14 17:23:00 BASE 9.64 335 10.75 331 0.6 100 0.6 250 0 994.7 NA 0.0000 9999 300 0 0 0
2019/10/14 17:24:00 BASE 9.39 336 10.75 331 0.6 100 0.6 249 0 994.7 NA 0.0000 9999 260 0 0 0
2019/10/14 17:25:00 BASE 9.26 337 10.75 331 0.6 100 0.6 243 0 994.7 NA 0.0000 9999 0 0 0 1310
2019/10/14 17:26:00 BASE 9.04 337 10.75 331 0.6 100 0.6 240 0 994.7 NA 0.0000 UP 9999 260 0 0 0
2019/10/14 17:27:00 BASE 9.09 336 10.75 331 0.6 100 0.6 241 0 994.7 NA 0.0000 UP 9999 260 0 0 0
2019/10/14 17:28:00 BASE 9.22 337 10.75 331 0.6 100 0.6 245 0 994.7 NA 0.0000 UP 9999 260 0 0 0
2019/10/14 17:29:00 BASE 9.41 338 10.75 331 0.6 100 0.6 245 0 994.7 NA 0.0000 UP 9999 260 0 0 0
2019/10/14 17:30:00 BASE 9.73 338 10.75 331 0.6 100 0.6 241 0 994.7 NA 0.0000 UP 9999 300 0 0 0
2019/10/14 17:31:00 BASE 9.45 336 10.75 331 0.6 100 0.6 230 0 994.7 NA 0.0000 UP 9999 330 0 0 0
2019/10/14 17:32:00 BASE 9.07 337 10.65 331 0.6 100 0.6 226 0 994.8 NA 0.0000 UP 9999 330 0 0 0
2019/10/14 17:33:00 BASE 9.24 338 10.65 331 0.6 100 0.6 227 0 994.8 NA 0.0000 UP 9999 330 0 0 0
2019/10/14 17:34:00 BASE 9.27 338 10.65 331 0.6 100 0.6 231 0 994.8 NA 0.0000 UP 9999 330 0 0 0
2019/10/14 17:35:00 BASE 9.10 337 10.65 331 0.6 100 0.6 235 0 994.8 NA 0.0000 UP 9999 330 0 0 0
2019/10/14 17:36:00 BASE 9.15 338 10.65 331 0.6 100 0.6 238 0 994.8 NA 0.0000 9999 330 0 0 0
2019/10/14 17:37:00 BASE 9.41 339 10.65 331 0.6 100 0.6 238 0 994.9 NA 0.0000 9999 300 0 0 0
2019/10/14 17:38:00 BASE 9.40 339 10.49 335 0.6 100 0.6 241 0 994.9 NA 0.0000 9999 300 0 0 0
2019/10/14 17:39:00 BASE 9.35 341 10.49 335 0.6 100 0.6 244 0 994.9 NA 0.0000 9999 300 0 0 0
2019/10/14 17:40:00 BASE 9.52 344 10.49 335 0.6 100 0.6 241 0 994.9 NA 0.0000 9999 330 22930 0 0
2019/10/14 17:41:00 BASE 9.49 346 10.49 335 0.6 100 0.6 237 0 994.9 NA 0.0000 9999 330 1180 0 0
2019/10/14 17:42:00 BASE 9.19 347 10.49 335 0.6 100 0.6 235 0 994.9 NA 0.0000 9999 330 0 0 0
2019/10/14 17:43:00 BASE 8.93 346 10.49 335 0.6 100 0.6 234 0 994.9 NA 0.0000 9999 330 0 0 0
2019/10/14 17:44:00 BASE 9.05 345 10.49 335 0.6 100 0.6 235 0 994.9 NA 0.0000 9999 360 0 0 0
2019/10/14 17:45:00 BASE 8.93 345 10.49 335 0.5 100 0.5 244 0 995.0 NA 0.0000 9999 360 0 0 0
2019/10/14 17:46:00 BASE 8.43 344 10.49 335 0.5 100 0.5 255 0 995.0 NA 0.0000 9999 360 0 0 0
2019/10/14 17:47:00 BASE 8.37 345 10.08 340 0.5 100 0.5 259 0 995.0 NA 0.0000 9999 360 0 0 0
2019/10/14 17:48:00 BASE 9.05 344 10.24 343 0.5 100 0.5 257 0 995.0 NA 0.0000 9999 390 0 0 0
2019/10/14 17:49:00 BASE 9.20 344 10.24 343 0.6 100 0.6 246 0 995.1 NA 0.0000 9999 390 0 0 0
2019/10/14 17:50:00 BASE 8.88 343 10.24 343 0.6 100 0.6 240 0 995.1 NA 0.0000 9999 360 0 0 0
2019/10/14 17:51:00 BASE 8.78 342 10.24 343 0.6 100 0.6 241 0 995.1 NA 0.0000 9999 360 0 0 0
2019/10/14 17:52:00 BASE 8.69 341 10.24 343 0.6 100 0.6 240 0 995.1 NA 0.0000 9999 360 0 0 0
2019/10/14 17:53:00 BASE 8.98 341 10.24 343 0.6 100 0.6 241 0 995.1 NA 0.0000 9999 360 0 0 0
2019/10/14 17:54:00 BASE 9.40 341 10.24 343 0.5 100 0.5 242 0 995.1 NA 0.0000 9999 360 0 0 0
2019/10/14 17:55:00 BASE 9.14 341 10.24 343 0.5 100 0.5 245 0 995.1 NA 0.0000 9999 330 0 0 0
2019/10/14 17:56:00 BASE 8.87 341 10.24 343 0.5 100 0.5 249 0 995.0 NA 0.0000 9999 330 0 0 0
2019/10/14 17:57:00 BASE 8.77 341 10.24 343 0.5 100 0.5 255 0 995.0 NA 0.0000 9999 360 0 0 0
2019/10/14 17:58:00 BASE 8.86 340 10.19 343 0.5 100 0.5 263 0 995.0 NA 0.0000 9999 330 0 0 0
2019/10/14 17:59:00 BASE 9.13 341 10.19 343 0.5 100 0.5 269 0 995.1 NA 0.0000 9999 330 0 0 0
2019/10/14 18:00:00 BASE 9.10 341 10.19 343 0.6 100 0.5 276 0 995.1 NA 0.0000 9999 330 0 0 0
2019/10/14 18:01:00 BASE 8.97 341 10.19 343 0.6 100 0.6 279 0 995.1 NA 0.0000 9999 330 0 0 0
2019/10/14 18:02:00 BASE 8.69 341 10.19 343 0.6 100 0.6 274 0 995.2 NA 0.0000 9999 300 0 0 0
2019/10/14 18:03:00 BASE 8.49 342 10.19 343 0.6 100 0.6 271 0 995.2 NA 0.0000 9999 300 0 0 0
2019/10/14 18:04:00 BASE 8.09 342 9.98 339 0.6 100 0.6 270 0 995.2 NA 0.0000 9999 300 0 0 0
2019/10/14 18:05:00 BASE 7.88 341 9.98 339 0.6 100 0.6 267 0 995.3 NA 0.0000 9999 300 20670 0 0
2019/10/14 18:06:00 BASE 8.33 341 9.98 339 0.5 100 0.5 266 0 995.3 NA 0.0000 9999 330 0 0 0
2019/10/14 18:07:00 BASE 8.54 340 9.98 339 0.5 100 0.5 252 0 995.3 NA 0.0000 9999 300 0 0 0
2019/10/14 18:08:00 BASE 8.29 338 9.67 346 0.5 100 0.5 243 0 995.3 NA 0.0000 9999 300 0 0 0
2019/10/14 18:09:00 BASE 8.20 340 9.62 345 0.5 100 0.5 244 0 995.3 NA 0.0000 9999 330 0 0 0
2019/10/14 18:10:00 BASE 7.79 339 9.47 339 0.6 100 0.6 232 0 995.4 NA 0.0000 9999 260 0 0 0
2019/10/14 18:11:00 BASE 7.21 338 9.47 339 0.6 100 0.6 233 0 995.4 NA 0.0000 9999 300 0 0 0
2019/10/14 18:12:00 BASE 7.51 336 9.47 339 0.6 100 0.6 233 0 995.4 NA 0.0000 9999 300 0 0 0
2019/10/14 18:13:00 BASE 8.26 335 9.67 335 0.5 100 0.5 230 0 995.4 NA 0.0000 9999 300 0 0 0
2019/10/14 18:14:00 BASE 8.52 337 9.67 335 0.5 100 0.5 236 0 995.4 NA 0.0000 9999 300 0 0 0
2019/10/14 18:15:00 BASE 8.56 337 9.67 335 0.5 100 0.5 233 0 995.4 NA 0.0000 9999 300 0 0 0
2019/10/14 18:16:00 BASE 8.68 335 10.03 333 0.5 100 0.5 229 0 995.4 NA 0.0000 9999 300 0 0 0
2019/10/14 18:17:00 BASE 8.59 333 10.03 333 0.5 100 0.5 226 0 995.4 NA 0.0000 9999 260 0 0 0
2019/10/14 18:18:00 BASE 8.51 332 10.19 323 0.5 100 0.5 224 0 995.4 NA 0.0000 9999 260 0 0 0
2019/10/14 18:19:00 BASE 8.72 329 10.19 323 0.5 100 0.5 228 0 995.4 NA 0.0000 9999 260 0 0 0
2019/10/14 18:20:00 BASE 8.78 329 10.19 323 0.5 100 0.5 236 0 995.4 NA 0.0000 9999 230 0 0 0
2019/10/14 18:21:00 BASE 8.95 331 10.55 331 0.5 100 0.5 240 0 995.4 NA 0.0000 9999 230 0 0 0
2019/10/14 18:22:00 BASE 9.15 328 10.55 331 0.5 100 0.5 235 0 995.4 NA 0.0000 9999 230 0 0 0
2019/10/14 18:23:00 BASE 9.32 327 10.55 331 0.5 100 0.5 235 0 995.4 NA 0.0000 9999 230 0 0 0
2019/10/14 18:24:00 BASE 9.51 330 10.55 331 0.5 100 0.5 237 0 995.3 NA 0.0000 9999 230 0 0 0
2019/10/14 18:25:00 BASE 9.80 331 11.42 330 0.5 100 0.5 238 0 995.3 NA 0.0000 9999 230 0 0 0
2019/10/14 18:26:00 BASE 10.40 332 11.57 331 0.5 100 0.5 238 0 995.3 NA 0.0000 9999 230 0 0 0
2019/10/14 18:27:00 BASE 10.10 334 11.57 331 0.5 100 0.5 234 0 995.2 NA 0.0000 9999 230 0 0 0
2019/10/14 18:28:00 BASE 10.16 335 12.14 333 0.5 100 0.5 238 0 995.1 NA 0.0000 9999 230 0 0 0
2019/10/14 18:29:00 BASE 10.82 333 12.30 331 0.5 100 0.5 250 0 995.1 NA 0.0000 9999 260 0 0 0
2019/10/14 18:30:00 BASE 10.77 333 12.30 331 0.4 100 0.4 257 0 995.1 NA 0.0000 9999 260 0 0 0
2019/10/14 18:31:00 BASE 10.61 334 12.30 331 0.4 100 0.4 256 0 995.1 NA 0.0000 9999 260 0 0 0
2019/10/14 18:32:00 BASE 10.45 333 12.30 331 0.4 100 0.4 255 0 995.1 NA 0.0000 9999 300 0 0 0
2019/10/14 18:33:00 BASE 10.64 332 12.30 331 0.4 100 0.4 250 0 995.1 NA 0.0000 9999 330 0 0 0
2019/10/14 18:34:00 BASE 10.97 332 12.30 331 0.4 100 0.4 244 0 995.1 NA 0.0000 9999 260 0 0 0
2019/10/14 18:35:00 BASE 10.90 334 12.76 330 0.4 100 0.4 245 0 995.2 NA 0.0000 9999 260 0 0 0
2019/10/14 18:36:00 BASE 11.16 334 12.76 330 0.4 100 0.4 244 0 995.2 NA 0.0000 9999 260 0 0 0
2019/10/14 18:37:00 BASE 11.46 335 12.76 330 0.4 100 0.4 248 0 995.2 NA 0.0000 9999 260 0 0 0
2019/10/14 18:38:00 BASE 11.33 334 12.76 330 0.4 100 0.4 247 0 995.2 NA 0.0000 9999 260 0 0 0
2019/10/14 18:39:00 BASE 11.32 332 12.76 330 0.4 100 0.4 251 0 995.3 NA 0.0000 9999 260 0 0 0
2019/10/14 18:40:00 BASE 10.95 333 12.76 330 0.4 100 0.4 250 0 995.3 NA 0.0000 9999 260 0 0 0
2019/10/14 18:41:00 BASE 10.12 332 12.76 330 0.4 100 0.4 245 0 995.4 NA 0.0000 9999 260 0 0 0
2019/10/14 18:42:00 BASE 9.60 332 12.76 330 0.4 100 0.4 239 0 995.4 NA 0.0000 9999 260 0 0 0
2019/10/14 18:43:00 BASE 9.58 333 12.76 330 0.4 100 0.4 238 0 995.4 NA 0.0000 9999 230 0 0 0
2019/10/14 18:44:00 BASE 9.88 333 12.76 330 0.4 100 0.4 235 0 995.4 NA 0.0000 9999 230 0 0 0
2019/10/14 18:45:00 BASE 10.15 333 12.35 324 0.4 100 0.4 230 0 995.5 NA 0.0000 9999 230 0 0 0
2019/10/14 18:46:00 BASE 9.58 333 12.35 324 0.4 100 0.4 229 0 995.5 NA 0.0000 9999 230 0 0 0
2019/10/14 18:47:00 BASE 9.25 334 12.35 324 0.4 100 0.4 223 0 995.6 NA 0.0000 9999 200 0 0 0
2019/10/14 18:48:01 BASE 9.22 333 11.88 333 0.4 100 0.4 221 0 995.7 NA 0.0000 9999 200 0 0 0
2019/10/14 18:49:00 BASE 9.40 334 11.42 328 0.4 100 0.4 221 0 995.7 NA 0.0000 9999 200 0 0 0
2019/10/14 18:50:00 BASE 9.82 334 11.42 328 0.4 100 0.4 224 0 995.7 NA 0.0000 9999 200 0 0 0
2019/10/14 18:51:00 BASE 9.69 334 11.42 328 0.4 100 0.4 227 0 995.7 NA 0.0000 9999 200 0 0 0
2019/10/14 18:52:00 BASE 9.39 333 11.42 328 0.4 100 0.4 230 0 995.7 NA 0.0000 9999 200 0 0 0
2019/10/14 18:53:00 BASE 9.34 332 11.42 328 0.4 100 0.4 233 0 995.7 NA 0.0000 9999 200 0 0 0
2019/10/14 18:54:00 BASE 9.78 333 11.99 325 0.4 100 0.4 239 0 995.7 NA 0.0000 9999 200 0 0 0
2019/10/14 18:55:00 BASE 10.07 333 11.99 325 0.4 100 0.4 244 0 995.7 NA 0.0000 9999 160 0 0 0
2019/10/14 18:56:00 BASE 9.76 335 11.99 325 0.4 100 0.4 246 0 995.7 NA 0.0000 9999 160 0 0 0
2019/10/14 18:57:00 BASE 10.13 332 12.24 323 0.4 100 0.4 242 0 995.7 NA 0.0000 9999 160 0 0 0
2019/10/14 18:58:00 BASE 10.29 330 12.24 323 0.4 100 0.4 240 0 995.7 NA 0.0000 9999 160 0 0 0
2019/10/14 18:59:00 BASE 9.83 333 12.24 323 0.4 100 0.4 243 0 995.8 NA 0.0000 9999 200 0 0 0
2019/10/14 19:00:00 BASE 10.07 331 12.24 323 0.4 100 0.4 249 0 995.8 NA 0.0000 9999 160 0 0 0
2019/10/14 19:01:00 BASE 10.05 328 12.24 323 0.4 100 0.4 253 0 995.8 NA 0.0000 9999 160 0 0 0
2019/10/14 19:02:00 BASE 10.39 329 12.24 323 0.4 100 0.4 258 0 995.8 NA 0.0000 9999 160 0 0 0
2019/10/14 19:03:00 BASE 10.49 329 12.24 323 0.4 100 0.4 264 0 995.8 NA 0.0000 9999 160 0 0 0
2019/10/14 19:04:00 BASE 10.09 329 12.24 323 0.4 100 0.4 270 0 995.8 NA 0.0000 9999 160 0 0 0
2019/10/14 19:05:00 BASE 10.54 328 12.24 323 0.4 100 0.4 272 0 995.8 NA 0.0000 9999 160 0 0 0
2019/10/14 19:06:00 BASE 10.48 328 12.24 323 0.4 100 0.4 269 0 995.8 NA 0.0000 9999 200 0 0 0
2019/10/14 19:07:00 BASE 10.20 330 12.14 323 0.4 100 0.4 263 0 995.8 NA 0.0000 9999 160 0 0 0
2019/10/14 19:08:00 BASE 10.61 330 12.14 323 0.4 100 0.4 264 0 995.8 NA 0.0000 9999 200 0 0 0
2019/10/14 19:09:00 BASE 10.67 331 12.14 323 0.4 100 0.4 268 0 995.8 NA 0.0000 9999 160 0 0 0
2019/10/14 19:10:00 BASE 10.22 334 12.14 323 0.4 100 0.4 271 0 995.7 NA 0.0000 9999 200 0 0 0
2019/10/14 19:11:00 BASE 9.87 334 12.14 323 0.4 100 0.4 268 0 995.7 NA 0.0000 9999 160 0 0 0
2019/10/14 19:12:00 BASE 9.78 334 11.78 331 0.4 100 0.4 267 0 995.7 NA 0.0000 9999 200 0 0 0
2019/10/14 19:13:00 BASE 10.08 338 11.78 331 0.4 100 0.4 273 0 995.7 NA 0.0000 9999 200 0 0 0
2019/10/14 19:14:00 BASE 10.62 339 11.78 331 0.4 100 0.4 279 0 995.7 NA 0.0000 9999 160 0 0 0
2019/10/14 19:15:00 BASE 10.29 337 11.78 331 0.4 100 0.4 285 0 995.8 NA 0.0000 9999 160 0 0 0
2019/10/14 19:16:00 BASE 9.88 336 11.78 331 0.4 100 0.4 285 0 995.8 NA 0.0000 9999 160 0 0 0
2019/10/14 19:17:00 BASE 9.76 336 11.78 331 0.4 100 0.4 276 0 995.9 NA 0.0000 9999 200 0 0 0
2019/10/14 19:18:00 BASE 9.13 336 11.57 328 0.4 100 0.4 267 0 995.9 NA 0.0000 9999 160 0 0 0
2019/10/14 19:19:00 BASE 9.00 335 11.57 328 0.4 100 0.4 263 0 996.0 NA 0.0000 9999 160 0 0 0
2019/10/14 19:20:00 BASE 9.38 337 11.57 328 0.4 100 0.4 258 0 996.0 NA 0.0000 9999 160 0 0 0
2019/10/14 19:21:00 BASE 9.83 338 11.57 328 0.4 100 0.4 254 0 996.0 NA 0.0000 9999 160 0 0 0
2019/10/14 19:22:00 BASE 10.08 337 11.42 335 0.4 100 0.4 258 0 996.0 NA 0.0000 9999 160 0 0 0
2019/10/14 19:23:00 BASE 10.26 334 12.24 331 0.4 100 0.4 269 0 996.0 NA 0.0000 9999 160 0 0 0
2019/10/14 19:24:00 BASE 9.98 336 12.24 331 0.4 100 0.4 282 0 996.0 NA 0.0000 9999 160 0 0 0
2019/10/14 19:25:00 BASE 9.48 336 12.24 331 0.4 100 0.4 287 0 996.0 NA 0.0000 9999 160 0 0 0
2019/10/14 19:26:00 BASE 8.58 335 12.24 331 0.4 100 0.4 283 0 996.0 NA 0.0000 9999 0 0 0 620
2019/10/14 19:27:00 BASE 8.23 332 12.24 331 0.4 100 0.4 283 0 996.0 NA 0.0000 9999 160 0 0 0
2019/10/14 19:28:00 BASE 8.63 330 12.24 331 0.4 100 0.4 286 0 996.0 NA 0.0000 9999 0 0 0 590
2019/10/14 19:29:00 BASE 8.43 333 12.24 331 0.4 100 0.4 275 0 996.0 NA 0.0000 9999 160 0 0 0
2019/10/14 19:30:00 BASE 8.03 335 12.24 331 0.4 100 0.4 264 0 996.1 NA 0.0000 9999 0 0 0 620
2019/10/14 19:31:00 BASE 8.07 336 12.24 331 0.4 100 0.4 249 0 996.1 NA 0.0000 9999 160 0 0 0
2019/10/14 19:32:00 BASE 8.49 337 12.24 331 0.4 100 0.4 230 0 996.1 NA 0.0000 9999 160 0 0 0
2019/10/14 19:33:00 BASE 8.98 336 11.21 331 0.4 100 0.4 219 0 996.1 NA 0.0000 9999 160 0 0 0
2019/10/14 19:34:00 BASE 8.76 336 11.21 331 0.4 100 0.4 211 0 996.2 NA 0.0000 9999 0 0 0 620
2019/10/14 19:35:00 BASE 8.70 338 11.21 331 0.4 100 0.4 204 0 996.2 NA 0.0000 9999 0 0 0 620
2019/10/14 19:36:00 BASE 9.06 337 11.21 331 0.4 100 0.4 194 0 996.3 NA 0.0000 9999 0 0 0 620
2019/10/14 19:37:00 BASE 8.50 337 10.55 338 0.4 100 0.4 179 0 996.3 NA 0.0000 9999 160 0 0 0
2019/10/14 19:38:00 BASE 7.53 337 10.55 338 0.4 100 0.4 172 0 996.3 NA 0.0000 9999 0 0 0 620
2019/10/14 19:39:00 BASE 7.65 338 10.55 338 0.4 100 0.4 182 0 996.3 NA 0.0000 9999 160 0 0 0
2019/10/14 19:40:00 BASE 8.35 334 10.55 338 0.4 100 0.4 206 0 996.3 NA 0.0000 9999 0 0 0 590
2019/10/14 19:41:00 BASE 8.00 334 10.55 338 0.4 100 0.4 228 0 996.3 NA 0.0000 9999 0 0 0 590
2019/10/14 19:42:00 BASE 8.20 337 10.55 338 0.4 100 0.4 266 0 996.3 NA 0.0000 9999 0 0 0 590
2019/10/14 19:43:00 BASE 8.47 337 10.55 338 0.4 100 0.4 303 0 996.2 NA 0.0000 9999 0 0 0 590
2019/10/14 19:44:00 BASE 8.07 337 10.55 338 0.4 100 0.4 331 0 996.1 NA 0.0000 9999 0 0 0 590
2019/10/14 19:45:00 BASE 7.93 337 10.44 325 0.4 100 0.4 324 0 996.2 NA 0.0000 9999 160 0 0 0
2019/10/14 19:46:00 BASE 7.80 336 10.44 325 0.4 100 0.4 299 0 996.2 NA 0.0000 9999 0 0 0 590
2019/10/14 19:47:00 BASE 7.90 334 10.44 325 0.4 100 0.4 262 0 996.3 NA 0.0000 9999 160 0 0 0
2019/10/14 19:48:00 BASE 8.75 331 10.44 331 0.4 100 0.4 236 0 996.3 NA 0.0000 9999 0 0 0 590
2019/10/14 19:49:00 BASE 8.98 329 10.80 316 0.4 100 0.4 221 0 996.3 NA 0.0000 9999 0 0 0 590
2019/10/14 19:50:00 BASE 8.41 331 10.80 316 0.4 100 0.4 205 0 996.3 NA 0.0000 9999 0 0 0 590
2019/10/14 19:51:00 BASE 8.17 328 10.80 316 0.4 100 0.4 208 0 996.3 NA 0.0000 9999 160 0 0 0
2019/10/14 19:52:00 BASE 8.13 328 10.80 316 0.4 100 0.4 214 0 996.3 NA 0.0000 9999 0 0 0 590
2019/10/14 19:53:00 BASE 8.47 330 10.80 316 0.4 100 0.4 220 0 996.3 NA 0.0000 9999 200 0 0 0
2019/10/14 19:54:00 BASE 8.39 326 10.80 316 0.4 100 0.4 232 0 996.4 NA 0.0000 9999 160 0 0 0
2019/10/14 19:55:00 BASE 7.95 323 10.80 316 0.4 100 0.4 206 0 996.4 NA 0.0000 9999 160 0 0 0
2019/10/14 19:56:00 BASE 7.47 327 10.80 316 0.4 100 0.4 169 0 996.4 NA 0.0000 9999 0 0 0 590
2019/10/14 19:57:00 BASE 7.27 328 10.80 316 0.4 100 0.4 149 0 996.4 NA 0.0000 9999 160 0 0 0
2019/10/14 19:58:00 BASE 7.21 327 10.80 316 0.4 100 0.4 154 0 996.5 NA 0.0000 9999 0 0 0 590
2019/10/14 19:59:00 BASE 6.94 325 10.19 336 0.4 100 0.4 166 0 996.5 NA 0.0000 9999 0 0 0 590
2019/10/14 20:00:00 BASE 6.76 323 10.19 336 0.4 100 0.4 176 0 996.6 NA 0.0000 9999 0 0 0 590
2019/10/14 20:01:00 BASE 6.83 323 10.19 336 0.4 100 0.4 171 0 996.6 NA 0.0000 9999 0 0 0 590
2019/10/14 20:02:00 BASE 6.88 322 10.19 336 0.3 100 0.3 166 0 996.6 NA 0.0000 9999 160 0 0 0
2019/10/14 20:03:00 BASE 6.67 316 8.80 324 0.4 100 0.4 159 0 996.6 NA 0.0000 9999 0 0 0 590
2019/10/14 20:04:00 BASE 6.93 312 8.75 323 0.4 100 0.4 161 0 996.6 NA 0.0000 9999 200 0 0 0
2019/10/14 20:05:00 BASE 7.23 307 8.64 305 0.4 100 0.4 187 0 996.6 NA 0.0000 9999 200 0 0 0
2019/10/14 20:06:00 BASE 7.11 303 8.64 305 0.4 100 0.4 222 0 996.7 NA 0.0000 9999 160 0 0 0
2019/10/14 20:07:00 BASE 7.19 303 8.64 305 0.4 100 0.4 227 0 996.7 NA 0.0000 9999 160 0 0 0
2019/10/14 20:08:00 BASE 6.76 298 8.64 305 0.4 100 0.4 234 0 996.7 NA 0.0000 9999 160 0 0 0
2019/10/14 20:09:00 BASE 5.75 298 8.64 305 0.4 100 0.4 243 0 996.8 NA 0.0000 9999 200 0 0 0
2019/10/14 20:10:00 BASE 6.01 300 8.64 305 0.4 100 0.4 241 0 996.8 NA 0.0000 9999 160 21100 0 0
2019/10/14 20:11:00 BASE 5.85 295 8.64 305 0.4 100 0.4 218 0 996.8 NA 0.0000 9999 160 20010 0 0
2019/10/14 20:12:00 BASE 5.67 289 8.64 305 0.4 100 0.4 198 0 996.9 NA 0.0000 9999 200 0 0 0
2019/10/14 20:13:00 BASE 5.68 291 8.64 305 0.4 100 0.4 193 0 997.0 NA 0.0000 9999 160 0 0 0
2019/10/14 20:14:00 BASE 5.15 289 8.44 303 0.4 100 0.4 181 0 996.9 NA 0.0000 9999 160 21230 0 0
2019/10/14 20:15:00 BASE 5.25 285 8.44 303 0.4 100 0.4 166 0 996.9 NA 0.0000 9999 160 0 0 0
2019/10/14 20:16:00 BASE 5.85 291 8.44 303 0.4 100 0.4 167 0 996.8 NA 0.0000 9999 160 0 0 0
2019/10/14 20:17:00 BASE 6.46 292 7.82 290 0.4 100 0.4 181 0 996.9 NA 0.0000 9999 160 0 0 0
2019/10/14 20:18:00 BASE 6.31 287 7.82 290 0.4 100 0.4 188 0 996.8 NA 0.0000 9999 160 0 0 0
2019/10/14 20:19:00 BASE 5.89 285 7.82 290 0.4 100 0.4 190 0 996.9 NA 0.0000 9999 160 0 0 0
2019/10/14 20:20:00 BASE 5.63 284 7.72 282 0.4 100 0.4 203 0 996.9 NA 0.0000 9999 160 0 0 0
2019/10/14 20:21:00 BASE 6.14 282 8.75 272 0.4 100 0.4 210 0 996.9 NA 0.0000 9999 160 0 0 0
2019/10/14 20:22:00 BASE 6.31 286 8.75 272 0.5 100 0.5 200 0 996.9 NA 0.0000 9999 160 0 0 0
2019/10/14 20:23:00 BASE 5.77 287 8.75 272 0.4 100 0.4 194 0 996.8 NA 0.0000 9999 160 0 0 0
2019/10/14 20:24:00 BASE 5.93 283 8.75 272 0.5 100 0.5 199 0 996.8 NA 0.0000 9999 160 0 0 0
2019/10/14 20:25:00 BASE 5.96 283 8.75 272 0.5 100 0.5 212 0 996.8 NA 0.0000 9999 160 0 0 0
2019/10/14 20:26:01 BASE 6.26 283 8.75 272 0.5 100 0.5 208 0 996.8 NA 0.0000 9999 200 0 0 0
2019/10/14 20:27:01 BASE 6.03 286 8.75 272 0.4 100 0.4 185 0 996.8 NA 0.0000 9999 160 0 0 0
2019/10/14 20:28:01 BASE 5.50 292 8.75 272 0.4 100 0.4 168 0 996.8 NA 0.0000 9999 200 0 0 0
2019/10/14 20:29:01 BASE 5.93 290 8.75 272 0.4 100 0.4 168 0 996.8 NA 0.0000 9999 200 0 0 0
2019/10/14 20:30:01 BASE 5.91 288 8.75 272 0.4 100 0.4 161 0 996.8 NA 0.0000 9999 160 20210 0 0
2019/10/14 20:31:01 BASE 6.00 291 7.72 295 0.4 100 0.4 148 0 996.8 NA 0.0000 9999 160 0 0 0
2019/10/14 20:32:01 BASE 6.66 291 7.72 295 0.4 100 0.4 135 0 996.8 NA 0.0000 9999 160 0 0 0
2019/10/14 20:33:01 BASE 7.32 290 9.36 289 0.4 100 0.4 129 0 996.8 NA 0.0000 9999 160 0 0 0
2019/10/14 20:34:01 BASE 7.80 289 9.36 289 0.4 100 0.4 127 0 996.8 NA 0.0000 9999 160 0 0 0
2019/10/14 20:35:01 BASE 7.01 288 9.36 289 0.4 100 0.4 122 0 996.9 NA 0.0000 9999 160 0 0 0
2019/10/14 20:36:01 BASE 6.39 290 9.36 289 0.4 100 0.4 119 0 996.9 NA 0.0000 9999 160 0 0 0
2019/10/14 20:37:01 BASE 6.71 286 9.36 289 0.4 100 0.4 119 0 997.0 NA 0.0000 9999 0 0 0 560
2019/10/14 20:38:01 BASE 5.94 287 9.36 289 0.3 100 0.3 120 0 997.0 NA 0.0000 9999 160 0 0 0
2019/10/14 20:39:01 BASE 5.66 288 9.36 289 0.3 100 0.3 122 0 997.0 NA 0.0000 9999 160 0 0 0
2019/10/14 20:40:01 BASE 6.29 283 9.36 289 0.3 100 0.3 127 0 997.1 NA 0.0000 9999 160 0 0 0
2019/10/14 20:41:01 BASE 6.47 278 9.36 289 0.3 100 0.3 130 0 997.1 NA 0.0000 9999 0 0 0 560
2019/10/14 20:42:01 BASE 6.48 275 9.36 289 0.3 100 0.3 141 0 997.1 NA 0.0000 9999 160 0 0 0
2019/10/14 20:43:01 BASE 5.98 273 9.16 289 0.3 100 0.3 148 0 997.1 NA 0.0000 9999 160 0 0 0
2019/10/14 20:44:01 BASE 5.45 272 8.64 289 0.3 100 0.3 141 0 997.1 NA 0.0000 9999 0 0 0 560
2019/10/14 20:45:01 BASE 6.43 272 9.21 274 0.3 100 0.3 121 0 997.2 NA 0.0000 9999 0 0 0 560
2019/10/14 20:46:01 BASE 7.75 271 9.21 274 0.3 100 0.3 98 0 997.1 NA 0.0000 9999 0 0 0 560
2019/10/14 20:47:01 BASE 7.98 270 9.88 259 0.3 100 0.3 88 0 997.2 NA 0.0000 9000 0 0 0 520
2019/10/14 20:48:01 BASE 7.81 270 9.88 259 0.3 100 0.3 93 0 997.2 NA 0.0000 9000 0 0 0 520
2019/10/14 20:49:01 BASE 7.75 269 9.88 259 0.3 100 0.3 101 0 997.2 NA 0.0000 9000 0 0 0 520
2019/10/14 20:50:01 BASE 7.33 268 9.88 259 0.3 100 0.3 102 0 997.2 NA 0.0000 9999 0 0 0 560
2019/10/14 20:51:01 BASE 6.67 267 9.88 259 0.3 100 0.3 111 0 997.2 NA 0.0000 9999 0 0 0 560
2019/10/14 20:52:01 BASE 6.34 269 9.88 259 0.3 100 0.3 119 0 997.2 NA 0.0000 9999 0 0 0 520
2019/10/14 20:53:01 BASE 6.30 268 9.88 259 0.3 100 0.3 124 0 997.1 NA 0.0000 9999 0 0 0 520
2019/10/14 20:54:01 BASE 6.67 269 9.88 259 0.3 100 0.3 124 0 997.1 NA 0.0000 BR 9999 0 0 0 520
2019/10/14 20:55:01 BASE 7.89 264 9.88 264 0.3 100 0.3 127 0 997.1 NA 0.0000 BR 7000 0 0 0 520
2019/10/14 20:56:01 BASE 8.73 265 10.08 271 0.3 100 0.3 125 0 997.1 NA 0.0000 BR 6000 0 0 0 520
2019/10/14 20:57:01 BASE 7.93 265 10.08 271 0.3 100 0.3 123 0 997.1 NA 0.0000 BR 7000 0 0 0 520
2019/10/14 20:58:01 BASE 7.52 260 10.08 271 0.3 100 0.3 125 0 997.1 NA 0.0000 BR 8000 0 0 0 520
2019/10/14 20:59:01 BASE 7.59 261 10.08 271 0.2 100 0.2 122 0 997.1 NA 0.0000 BR 8000 0 0 0 490
2019/10/14 21:00:01 BASE 6.99 265 10.08 271 0.2 100 0.2 120 0 997.1 NA 0.0000 BR 7000 0 0 0 490
2019/10/14 21:01:01 BASE 7.03 265 10.08 271 0.2 100 0.2 117 0 997.1 NA 0.0000 BR 7000 0 0 0 490
2019/10/14 21:02:01 BASE 7.71 261 10.08 271 0.2 100 0.2 119 0 997.1 NA 0.0000 BR 7000 0 0 0 520
2019/10/14 21:03:01 BASE 7.33 263 10.08 271 0.3 100 0.3 119 0 997.1 NA 0.0000 BR 5000 0 0 0 490
2019/10/14 21:04:01 BASE 6.73 262 10.08 271 0.3 100 0.3 119 0 997.1 NA 0.0000 BR 5000 24020 0 0 0
2019/10/14 21:05:01 BASE 7.42 257 10.08 271 0.3 100 0.3 119 0 997.1 NA 0.0000 BR 6000 0 0 0 490
2019/10/14 21:06:01 BASE 7.90 259 9.41 252 0.3 100 0.3 118 0 997.1 NA 0.0000 BR 5000 0 0 0 490
2019/10/14 21:07:01 BASE 7.74 260 9.41 252 0.2 100 0.2 115 0 997.1 NA 0.0000 BR 4700 0 0 0 490
2019/10/14 21:08:01 BASE 6.30 263 9.41 252 0.2 100 0.2 109 0 997.1 NA 0.0000 BR 4500 0 0 0 460
2019/10/14 21:09:00 BASE 5.62 261 9.41 252 0.2 100 0.2 100 0 997.2 NA 0.0000 BR 4300 0 0 0 490
2019/10/14 21:10:01 BASE 5.92 261 9.41 252 0.2 100 0.2 93 0 997.2 NA 0.0000 BR 3300 0 0 0 460
2019/10/14 21:11:00 BASE 4.84 266 9.41 252 0.2 100 0.2 90 0 997.2 NA 0.0000 BR 2700 0 0 0 460
2019/10/14 21:12:01 BASE 4.87 264 9.41 252 0.2 100 0.2 90 0 997.2 NA 0.0000 BR 2500 0 0 0 460
2019/10/14 21:13:00 BASE 6.06 262 9.41 252 0.2 100 0.2 88 0 997.2 NA 0.0000 BR 2500 0 0 0 460
2019/10/14 21:14:00 BASE 6.52 258 9.41 252 0.2 100 0.2 88 0 997.3 NA 0.0000 BR 2900 0 0 0 490
2019/10/14 21:15:01 BASE 6.08 257 8.95 262 0.2 100 0.2 92 0 997.3 NA 0.0000 BR 2200 0 0 0 460
2019/10/14 21:16:00 BASE 6.13 256 8.49 246 0.2 100 0.2 97 0 997.4 NA 0.0000 BR 2200 0 0 0 460
2019/10/14 21:17:00 BASE 6.66 254 8.28 250 0.2 100 0.2 102 0 997.4 NA 0.0000 BR 2700 0 0 0 490
2019/10/14 21:18:00 BASE 7.04 252 8.28 242 0.2 100 0.2 102 0 997.5 NA 0.0000 BR 2600 0 0 0 460
2019/10/14 21:19:00 BASE 7.19 251 8.64 240 0.2 100 0.2 98 0 997.5 NA 0.0000 BR 2900 0 0 0 460
2019/10/14 21:20:00 BASE 6.80 251 8.64 240 0.2 100 0.2 92 0 997.6 NA 0.0000 BR 3300 0 0 0 460
2019/10/14 21:21:00 BASE 6.73 253 8.64 240 0.2 100 0.2 86 0 997.6 NA 0.0000 BR 2700 0 0 0 460
2019/10/14 21:22:01 BASE 6.24 251 8.64 240 0.2 100 0.2 82 0 997.6 NA 0.0000 BR 2500 0 0 0 460
2019/10/14 21:23:00 BASE 5.76 250 8.64 240 0.2 100 0.2 76 0 997.7 NA 0.0000 BR 2100 0 0 0 430
2019/10/14 21:24:01 BASE 6.26 253 8.64 240 0.1 100 0.1 70 0 997.7 NA 0.0000 BR 1600 0 0 0 430
2019/10/14 21:25:00 BASE 6.06 253 8.64 240 0.1 100 0.1 63 0 997.7 NA 0.0000 BR 1500 0 0 0 430
2019/10/14 21:26:00 BASE 5.94 251 8.64 240 0.1 100 0.1 59 0 997.7 NA 0.0000 BR 1600 0 0 0 460
2019/10/14 21:27:00 BASE 6.42 252 8.64 240 0.1 100 0.1 58 0 997.8 NA 0.0000 BR 1800 0 0 0 460
2019/10/14 21:28:01 BASE 6.77 255 8.64 240 0.1 100 0.1 61 0 997.8 NA 0.0000 BR 1800 0 0 0 430
2019/10/14 21:29:00 BASE 7.68 256 10.65 254 0.1 100 0.1 68 0 997.8 NA 0.0000 BR 1700 0 0 0 460
2019/10/14 21:30:00 BASE 8.85 253 10.70 242 0.1 100 0.1 74 0 997.8 NA 0.0000 BR 2000 0 0 0 460
2019/10/14 21:31:00 BASE 8.65 248 10.70 242 0.1 100 0.1 74 0 997.8 NA 0.0000 BR 2600 0 0 0 460
2019/10/14 21:32:00 BASE 7.01 253 10.70 242 0.1 100 0.1 74 0 997.8 NA 0.0000 BR 2300 0 0 0 460
2019/10/14 21:33:00 BASE 6.95 253 10.70 242 0.1 100 0.1 76 0 997.8 NA 0.0000 BR 2200 0 0 0 460
2019/10/14 21:34:00 BASE 7.54 250 10.70 242 0.1 100 0.1 79 0 997.8 NA 0.0000 BR 2500 0 0 0 460
2019/10/14 21:35:00 BASE 6.50 252 10.70 242 0.1 100 0.1 87 0 997.8 NA 0.0000 BR 2000 0 0 0 460
2019/10/14 21:36:01 BASE 6.51 255 10.70 242 0.1 100 0.1 96 0 997.8 NA 0.0000 BR 1700 0 0 0 430
2019/10/14 21:37:00 BASE 7.11 256 10.70 242 0.1 100 0.1 104 0 997.8 NA 0.0000 BR 1600 0 0 0 460
2019/10/14 21:38:00 BASE 7.59 255 10.70 242 0.1 100 0.1 113 0 997.8 NA 0.0000 BR 1500 0 0 0 460
2019/10/14 21:39:00 BASE 7.43 257 10.70 242 0.1 100 0.1 118 0 997.8 NA 0.0000 BR 1500 0 0 0 430
2019/10/14 21:40:00 BASE 6.74 260 9.52 256 0.1 100 0.1 121 0 997.8 NA 0.0000 BR 1200 0 0 0 430
2019/10/14 21:41:00 BASE 6.89 261 9.52 256 0.1 100 0.1 118 0 997.8 NA 0.0000 BR 1100 0 0 0 460
2019/10/14 21:42:00 BASE 6.24 260 9.52 256 0.1 100 0.1 108 0 997.8 NA 0.0000 BR 1100 0 0 0 460
2019/10/14 21:43:00 BASE 5.75 262 9.52 256 0.1 100 0.1 88 0 997.8 NA 0.0000 BR 1200 0 0 0 460
2019/10/14 21:44:00 BASE 6.38 265 9.52 256 0.1 100 0.1 74 0 997.8 NA 0.0000 BR 1100 0 0 0 460
2019/10/14 21:45:00 BASE 6.29 266 9.52 256 0.1 100 0.1 62 0 997.8 NA 0.0000 BR 1200 0 0 0 460
2019/10/14 21:46:00 BASE 6.25 269 9.52 256 0.1 100 0.1 60 0 997.9 NA 0.0000 BR 1300 22900 0 0 0
2019/10/14 21:47:00 BASE 6.20 273 9.52 256 0.1 100 0.1 65 0 997.8 NA 0.0000 BR 1100 0 0 0 430
2019/10/14 21:48:00 BASE 5.35 278 8.54 274 0.1 100 0.1 66 0 997.8 NA 0.0000 BR 1000 0 0 0 430
2019/10/14 21:49:00 BASE 5.48 275 8.54 274 0.1 100 0.1 67 0 997.8 NA 0.0000 BR 1100 0 0 0 460
2019/10/14 21:50:00 BASE 6.02 273 8.54 274 0.1 100 0.1 73 0 997.8 NA 0.0000 BR 1200 0 0 0 430
2019/10/14 21:51:00 BASE 6.02 275 8.54 274 0.1 100 0.1 72 0 997.8 NA 0.0000 BR 1300 0 0 0 430
2019/10/14 21:52:00 BASE 6.07 273 8.54 274 0.1 100 0.1 68 0 997.8 NA 0.0000 BR 1300 0 0 0 560
2019/10/14 21:53:00 BASE 6.20 271 8.54 274 0.1 100 0.1 74 0 997.8 NA 0.0000 BR 1200 0 0 0 490
2019/10/14 21:54:00 BASE 6.16 273 8.54 274 0.1 100 0.1 81 0 997.8 NA 0.0000 BR 1300 0 0 0 460
2019/10/14 21:55:00 BASE 6.28 273 8.54 274 0.0 100 0.0 83 0 997.8 NA 0.0000 BR 1200 17260 0 0 0
2019/10/14 21:56:00 BASE 5.81 276 8.08 263 0.0 100 0.0 77 0 997.8 NA 0.0000 BR 1200 0 0 0 490
2019/10/14 21:57:00 BASE 5.46 276 8.08 263 0.0 100 0.0 76 0 997.8 NA 0.0000 BR 1500 0 0 0 520
2019/10/14 21:58:00 BASE 6.13 274 8.08 263 0.0 100 0.0 76 0 997.8 NA 0.0000 BR 1400 0 0 0 490
2019/10/14 21:59:00 BASE 6.47 276 8.28 274 0.0 100 0.0 84 0 997.8 NA 0.0000 BR 1200 0 0 0 560
2019/10/14 22:00:00 BASE 6.25 277 8.28 274 0.0 100 0.0 72 0 997.8 NA 0.0000 BR 1200 0 0 0 560
2019/10/14 22:01:00 BASE 6.06 274 8.28 274 0.0 100 0.0 69 0 997.8 NA 0.0000 BR 1200 0 0 0 520
2019/10/14 22:02:00 BASE 6.28 276 8.28 274 0.0 100 0.0 71 0 997.8 NA 0.0000 BR 1500 0 0 0 560
2019/10/14 22:03:00 BASE 6.51 274 8.28 274 0.0 100 0.0 81 0 997.8 NA 0.0000 BR 1900 0 0 0 590
2019/10/14 22:04:00 BASE 6.33 265 8.28 274 0.0 100 0.0 80 0 997.8 NA 0.0000 BR 4100 0 0 0 660
2019/10/14 22:05:00 BASE 6.42 263 8.59 253 0.0 100 0.0 66 0 997.8 NA 0.0000 BR 7000 0 0 0 660
2019/10/14 22:06:00 BASE 7.04 264 8.59 253 0.0 100 0.0 65 0 997.8 NA 0.0000 BR 9999 0 0 0 620
2019/10/14 22:07:00 BASE 6.43 266 8.59 253 0.0 100 0.0 70 0 997.8 NA 0.0000 BR 9999 0 0 0 620
2019/10/14 22:08:00 BASE 4.93 271 8.59 253 0.0 100 0.0 75 0 997.8 NA 0.0000 BR 9000 0 0 0 560
2019/10/14 22:09:00 BASE 4.30 272 8.59 253 0.0 100 0.0 78 0 997.8 NA 0.0000 BR 8000 0 0 0 520
2019/10/14 22:10:00 BASE 4.40 273 8.59 253 0.0 100 0.0 70 0 997.8 NA 0.0000 BR 4800 0 0 0 520
2019/10/14 22:11:00 BASE 4.33 279 8.59 253 0.0 100 0.0 80 0 997.8 NA 0.0000 BR 2800 0 0 0 490
2019/10/14 22:12:00 BASE 4.76 279 8.59 253 0.0 100 0.0 70 0 997.8 NA 0.0000 BR 3100 0 0 0 520
2019/10/14 22:13:00 BASE 5.46 270 8.59 253 0.0 100 0.0 70 0 997.8 NA 0.0000 BR 4200 0 0 0 520
2019/10/14 22:14:00 BASE 6.18 262 8.59 253 0.0 100 0.0 66 0 997.8 NA 0.0000 BR 3700 0 0 0 590
2019/10/14 22:15:00 BASE 7.05 262 9.21 269 0.0 100 0.0 62 0 997.8 NA 0.0000 BR 3500 0 0 0 620
2019/10/14 22:16:00 BASE 6.33 270 9.21 269 0.0 100 0.0 63 0 997.8 NA 0.0000 BR 3400 0 0 0 520
2019/10/14 22:17:00 BASE 5.01 275 9.21 269 0.0 100 0.0 62 0 997.9 NA 0.0000 BR 3000 0 0 0 490
2019/10/14 22:18:00 BASE 5.20 273 9.21 269 0.0 100 0.0 61 0 997.9 NA 0.0000 BR 2900 0 0 0 520
2019/10/14 22:19:00 BASE 5.74 275 9.21 269 0.0 100 0.0 57 0 997.9 NA 0.0000 BR 2800 0 0 0 490
2019/10/14 22:20:00 BASE 6.33 275 9.21 269 0.0 100 0.0 51 0 997.9 NA 0.0000 BR 2600 0 0 0 620
2019/10/14 22:21:00 BASE 7.46 276 9.21 281 0.0 100 0.0 44 0 997.9 NA 0.0000 BR 2700 0 0 0 590
2019/10/14 22:22:00 BASE 7.41 277 9.21 281 0.0 100 0.0 37 0 997.9 NA 0.0000 BR 3700 0 0 0 620
2019/10/14 22:23:00 BASE 6.83 278 9.21 281 0.0 100 0.0 32 0 997.9 NA 0.0000 BR 2700 0 0 0 520
2019/10/14 22:24:00 BASE 6.75 284 9.21 281 0.0 100 0.0 32 0 997.9 NA 0.0000 BR 1900 0 0 0 520
2019/10/14 22:25:00 BASE 7.03 286 9.21 281 0.0 100 0.0 30 0 997.9 NA 0.0000 BR 2600 0 0 0 490
2019/10/14 22:26:00 BASE 7.74 280 9.21 281 0.0 100 0.0 27 0 997.9 NA 0.0000 BR 4100 0 0 0 560
2019/10/14 22:27:00 BASE 7.17 274 9.21 281 0.0 100 0.0 29 0 997.9 NA 0.0000 BR 4000 0 0 0 520
2019/10/14 22:28:00 BASE 6.51 274 9.21 281 0.0 100 0.0 32 0 998.0 NA 0.0000 BR 3700 0 0 0 520
2019/10/14 22:29:00 BASE 6.51 275 9.21 281 0.0 100 0.0 33 0 998.0 NA 0.0000 BR 3900 0 0 0 620
2019/10/14 22:30:00 BASE 6.00 274 9.21 281 0.0 100 0.0 37 0 998.0 NA 0.0000 BR 3400 0 0 0 560
2019/10/14 22:31:00 BASE 6.36 269 9.93 261 -0.0 100 -0.0 33 0 998.1 NA 0.0000 BR 4100 0 0 0 560
2019/10/14 22:32:00 BASE 7.93 258 9.93 261 -0.0 100 -0.0 30 0 998.1 NA 0.0000 BR 4900 0 0 0 620
2019/10/14 22:33:00 BASE 7.93 253 9.93 261 -0.0 100 -0.0 27 0 998.2 NA 0.0000 BR 5000 0 0 0 560
2019/10/14 22:34:00 BASE 6.29 257 9.93 261 -0.1 100 -0.1 25 0 998.2 NA 0.0000 BR 5000 0 0 0 560
2019/10/14 22:35:00 BASE 6.44 261 9.93 261 -0.1 100 -0.1 24 0 998.2 NA 0.0000 BR 4100 0 0 0 560
2019/10/14 22:36:00 BASE 7.07 260 9.93 261 -0.1 100 -0.1 24 0 998.2 NA 0.0000 BR 5000 0 0 0 560
2019/10/14 22:37:00 BASE 8.27 259 10.49 262 -0.1 100 -0.1 24 0 998.2 NA 0.0000 BR 8000 0 0 0 620
2019/10/14 22:38:00 BASE 9.34 256 10.49 262 -0.1 100 -0.1 24 0 998.2 NA 0.0000 BR 9000 0 0 0 620
2019/10/14 22:39:00 BASE 9.45 253 11.68 252 -0.1 100 -0.1 22 0 998.2 NA 0.0000 BR 9999 0 0 0 620
2019/10/14 22:40:00 BASE 9.69 249 11.68 252 -0.1 100 -0.1 21 0 998.2 NA 0.0000 BR 8000 0 0 0 590
2019/10/14 22:41:00 BASE 9.58 247 11.68 252 -0.1 100 -0.1 21 0 998.3 NA 0.0000 BR 7000 0 0 0 560
2019/10/14 22:42:00 BASE 10.00 249 11.68 252 -0.1 100 -0.1 21 0 998.3 NA 0.0000 BR 5000 0 0 0 520
2019/10/14 22:43:00 BASE 10.12 252 11.88 256 -0.1 100 -0.1 22 0 998.3 NA 0.0000 BR 4900 0 0 0 720
2019/10/14 22:44:00 BASE 9.48 259 11.88 256 -0.1 100 -0.1 22 0 998.3 NA 0.0000 BR 6000 0 0 0 660
2019/10/14 22:45:00 BASE 9.55 258 11.88 256 -0.1 100 -0.1 21 0 998.4 NA 0.0000 BR 7000 0 0 0 590
2019/10/14 22:46:00 BASE 9.96 254 11.88 256 -0.1 100 -0.1 22 0 998.4 NA 0.0000 BR 7000 0 0 0 590
2019/10/14 22:47:00 BASE 9.17 258 11.88 256 -0.1 100 -0.1 26 0 998.4 NA 0.0000 BR 8000 0 0 0 690
2019/10/14 22:48:00 BASE 8.82 260 11.88 256 -0.1 100 -0.1 28 0 998.4 NA 0.0000 BR 9999 0 0 0 690
2019/10/14 22:49:00 BASE 9.63 259 11.88 256 -0.1 100 -0.1 25 0 998.4 NA 0.0000 BR 9999 0 0 0 620
2019/10/14 22:50:00 BASE 9.18 258 11.88 256 -0.1 100 -0.1 24 0 998.4 NA 0.0000 BR 9999 0 0 0 720
2019/10/14 22:51:00 BASE 8.37 259 11.88 256 -0.1 100 -0.1 26 0 998.4 NA 0.0000 BR 9000 0 0 0 590
2019/10/14 22:52:00 BASE 7.88 264 11.88 256 -0.1 100 -0.1 29 0 998.4 NA 0.0000 BR 6000 0 0 0 560
2019/10/14 22:53:00 BASE 7.08 273 11.47 252 -0.1 100 -0.1 32 0 998.4 NA 0.0000 BR 5000 0 0 0 520
2019/10/14 22:54:00 BASE 6.12 275 11.47 252 -0.1 100 -0.1 33 0 998.4 NA 0.0000 BR 4900 0 0 0 520
2019/10/14 22:55:00 BASE 5.51 268 11.47 252 -0.1 100 -0.1 29 0 998.4 NA 0.0000 BR 4200 0 0 0 560
2019/10/14 22:56:00 BASE 5.43 265 11.47 252 -0.1 100 -0.1 27 0 998.4 NA 0.0000 BR 2900 0 0 0 620
2019/10/14 22:57:00 BASE 5.27 266 11.47 252 -0.1 100 -0.1 23 0 998.4 NA 0.0000 BR 2300 0 0 0 590
2019/10/14 22:58:00 BASE 5.12 264 11.47 252 -0.1 100 -0.1 19 0 998.4 NA 0.0000 BR 3400 0 0 0 590
2019/10/14 22:59:00 BASE 4.99 266 9.98 256 -0.1 100 -0.1 16 0 998.4 NA 0.0000 BR 4600 0 0 0 590
2019/10/14 23:00:00 BASE 5.41 266 9.16 256 -0.1 100 -0.1 12 0 998.4 NA 0.0000 BR 4800 0 0 0 560
2019/10/14 23:01:00 BASE 6.14 264 8.28 267 -0.1 100 -0.1 10 0 998.4 NA 0.0000 BR 5000 0 0 0 520
2019/10/14 23:02:00 BASE 6.53 266 8.13 263 -0.1 100 -0.1 10 0 998.4 NA 0.0000 BR 4100 0 0 0 560
2019/10/14 23:03:00 BASE 6.48 265 8.69 257 -0.1 100 -0.1 11 0 998.4 NA 0.0000 BR 3500 0 0 0 560
2019/10/14 23:04:00 BASE 6.42 266 8.69 257 -0.1 100 -0.1 13 0 998.4 NA 0.0000 BR 3300 0 0 0 520
2019/10/14 23:05:00 BASE 6.82 269 8.90 280 -0.1 100 -0.1 13 0 998.4 NA 0.0000 BR 4100 0 0 0 520
2019/10/14 23:06:00 BASE 7.20 263 8.90 280 -0.1 100 -0.1 11 0 998.4 NA 0.0000 BR 5000 0 0 0 560
2019/10/14 23:07:00 BASE 7.40 258 9.00 255 -0.1 100 -0.1 9 0 998.4 NA 0.0000 BR 4800 0 0 0 560
2019/10/14 23:08:00 BASE 7.13 258 9.00 255 -0.1 100 -0.1 8 0 998.4 NA 0.0000 BR 4000 0 0 0 560
2019/10/14 23:09:00 BASE 5.80 263 9.00 255 -0.1 100 -0.1 7 0 998.4 NA 0.0000 BR 3100 0 0 0 520
2019/10/14 23:10:00 BASE 5.58 262 9.00 255 -0.1 100 -0.1 6 0 998.4 NA 0.0000 BR 2100 0 0 0 490
2019/10/14 23:11:00 BASE 6.40 253 9.00 255 -0.1 100 -0.1 6 0 998.5 NA 0.0000 BR 2400 0 0 0 490
2019/10/14 23:12:00 BASE 6.64 247 9.00 255 -0.1 100 -0.1 5 0 998.4 NA 0.0000 BR 2400 0 0 0 520
2019/10/14 23:13:00 BASE 7.27 244 9.00 255 -0.1 100 -0.1 6 0 998.4 NA 0.0000 BR 2500 0 0 0 490
2019/10/14 23:14:00 BASE 7.77 239 9.00 255 -0.1 100 -0.1 5 0 998.5 NA 0.0000 BR 3100 0 0 0 520
2019/10/14 23:15:00 BASE 6.96 240 9.00 255 -0.1 100 -0.1 5 0 998.5 NA 0.0000 BR 2600 0 0 0 460
2019/10/14 23:16:00 BASE 5.75 245 9.00 255 -0.1 100 -0.1 4 0 998.5 NA 0.0000 BR 1800 0 0 0 460
2019/10/14 23:17:00 BASE 5.00 253 8.64 241 -0.1 100 -0.1 4 0 998.5 NA 0.0000 BR 1300 0 0 0 460
2019/10/14 23:18:00 BASE 4.36 255 8.64 241 -0.1 100 -0.1 3 0 998.4 NA 0.0000 BR 1000 0 0 0 460
2019/10/14 23:19:00 BASE 4.28 259 8.64 241 -0.1 100 -0.1 3 0 998.5 NA 0.0000 BR 0900 0 0 0 430
2019/10/14 23:20:00 BASE 4.63 263 8.64 241 -0.1 100 -0.1 3 0 998.5 NA 0.0000 BR 1000 0 0 0 460
2019/10/14 23:21:00 BASE 4.53 263 8.64 241 -0.1 100 -0.1 3 0 998.4 NA 0.0000 BR 1400 0 0 0 490
2019/10/14 23:22:00 BASE 4.15 269 8.64 241 -0.2 100 -0.2 2 0 998.4 NA 0.0000 BR 1800 0 0 0 490
2019/10/14 23:23:00 BASE 5.47 263 8.39 246 -0.2 100 -0.2 2 0 998.4 NA 0.0000 BR 2200 0 0 0 520
2019/10/14 23:24:00 BASE 7.55 244 9.67 235 -0.2 100 -0.2 2 0 998.4 NA 0.0000 BR 3100 0 0 0 520
2019/10/14 23:25:00 BASE 7.27 241 9.67 235 -0.2 100 -0.2 1 0 998.4 NA 0.0000 BR 4100 0 0 0 490
2019/10/14 23:26:00 BASE 5.75 256 9.67 235 -0.2 100 -0.2 1 0 998.4 NA 0.0000 BR 3000 0 0 0 490
2019/10/14 23:27:00 BASE 4.71 261 9.67 235 -0.2 100 -0.2 1 0 998.4 NA 0.0000 BR 2000 0 0 0 590
2019/10/14 23:28:00 BASE 4.71 258 9.67 235 -0.2 100 -0.2 1 0 998.4 NA 0.0000 BR 2100 0 0 0 560
2019/10/14 23:29:00 BASE 6.51 257 9.67 235 -0.2 100 -0.2 1 0 998.4 NA 0.0000 BR 3100 0 0 0 590
2019/10/14 23:30:00 BASE 7.70 257 9.67 235 -0.2 100 -0.2 0 0 998.4 NA 0.0000 BR 4600 0 0 0 590
2019/10/14 23:31:00 BASE 7.95 260 11.01 252 -0.3 100 -0.3 0 0 998.4 NA 0.0000 BR 5000 0 0 0 590
2019/10/14 23:32:00 BASE 9.09 258 11.01 252 -0.3 100 -0.3 0 0 998.5 NA 0.0000 BR 7000 0 0 0 720
2019/10/14 23:33:00 BASE 9.81 251 11.21 251 -0.3 100 -0.3 0 0 998.5 NA 0.0000 BR 8000 0 0 0 820
2019/10/14 23:34:00 BASE 9.90 246 11.21 251 -0.3 100 -0.3 0 0 998.5 NA 0.0000 BR 9000 0 0 0 660
2019/10/14 23:35:00 BASE 8.70 250 11.21 251 -0.3 100 -0.3 0 0 998.5 NA 0.0000 BR 7000 0 0 0 520
2019/10/14 23:36:00 BASE 7.55 255 11.21 251 -0.3 100 -0.3 0 0 998.5 NA 0.0000 BR 4500 0 0 0 560
2019/10/14 23:37:00 BASE 8.23 252 11.21 251 -0.3 100 -0.3 0 0 998.5 NA 0.0000 BR 3500 0 0 0 590
2019/10/14 23:38:00 BASE 8.10 250 11.21 251 -0.3 100 -0.3 0 0 998.5 NA 0.0000 BR 3700 0 0 0 520
2019/10/14 23:39:00 BASE 5.77 251 11.21 251 -0.3 100 -0.3 0 0 998.5 NA 0.0000 BR 2800 0 0 0 490
2019/10/14 23:40:00 BASE 4.45 260 11.21 251 -0.3 100 -0.3 0 0 998.5 NA 0.0000 BR 1600 0 0 0 490
2019/10/14 23:41:00 BASE 4.56 264 11.21 251 -0.3 100 -0.3 0 0 998.6 NA 0.0000 BR 1300 0 0 0 490
2019/10/14 23:42:00 BASE 4.60 263 11.21 251 -0.3 100 -0.3 0 0 998.6 NA 0.0000 BR 2700 0 0 0 560
2019/10/14 23:43:00 BASE 4.70 263 10.75 257 -0.3 100 -0.3 0 0 998.5 NA 0.0000 BR 3100 0 0 0 520
2019/10/14 23:44:00 BASE 4.95 260 10.75 257 -0.3 100 -0.3 0 0 998.5 NA 0.0000 BR 3300 0 0 0 590
2019/10/14 23:45:00 BASE 5.26 253 10.75 257 -0.3 100 -0.3 0 0 998.5 NA 0.0000 BR 4000 0 0 0 520
2019/10/14 23:46:00 BASE 4.21 245 10.75 257 -0.3 100 -0.3 0 0 998.5 NA 0.0000 BR 3900 0 0 0 490
2019/10/14 23:47:00 BASE 2.71 255 8.75 251 -0.3 100 -0.3 0 0 998.5 NA 0.0000 BR 3000 0 0 0 520
2019/10/14 23:48:00 BASE 2.27 266 6.28 260 -0.3 100 -0.3 0 0 998.5 NA 0.0000 BR 1900 0 0 0 520
2019/10/14 23:49:00 BASE 2.19 266 6.28 260 -0.3 100 -0.3 0 0 998.5 NA 0.0000 BR 1700 0 0 0 460
2019/10/14 23:50:00 BASE 1.95 263 6.28 260 -0.3 100 -0.3 0 0 998.5 NA 0.0000 BR 1600 0 0 0 460
2019/10/14 23:51:00 BASE 1.63 267 6.28 260 -0.3 100 -0.3 0 0 998.5 NA 0.0000 BR 1400 0 0 0 490
2019/10/14 23:52:00 BASE 2.12 265 6.28 260 -0.3 100 -0.3 0 0 998.5 NA 0.0000 BR 1400 0 0 0 460
2019/10/14 23:53:00 BASE 3.35 244 6.28 260 -0.3 100 -0.3 0 0 998.5 NA 0.0000 BR 2100 0 0 0 490
2019/10/14 23:54:00 BASE 4.09 229 6.07 252 -0.3 100 -0.3 0 0 998.5 NA 0.0000 BR 2600 0 0 0 460
2019/10/14 23:55:00 BASE 4.40 229 5.25 243 -0.4 100 -0.4 0 0 998.5 NA 0.0000 BR 3100 0 0 0 490
2019/10/14 23:56:00 BASE 4.69 233 6.12 236 -0.4 100 -0.4 0 0 998.5 NA 0.0000 BR 3900 0 0 0 490
2019/10/14 23:57:00 BASE 4.91 240 6.17 245 -0.5 100 -0.5 0 0 998.6 NA 0.0000 BR 3400 0 0 0 520
2019/10/14 23:58:00 BASE 5.18 239 6.17 245 -0.5 100 -0.5 0 0 998.6 NA 0.0000 BR 3200 0 0 0 520
2019/10/14 23:59:00 BASE 5.18 239 6.17 245 -0.5 100 -0.5 0 0 998.6 NA 0.0000 BR 4100 0 0 0 520